<?xml version="1.0" encoding="UTF-8" standalone="no" ?>
<gpx xmlns="http://www.topografix.com/GPX/1/1" xmlns:xsi="http://www.w3.org/2001/XMLSchema-instance" xsi:schemaLocation="http://www.topografix.com/GPX/1/1 http://www.topografix.com/GPX/1/1/gpx.xsd" version="1.1" creator="VisuGPX - https://www.visugpx.com">
  <metadata>
    <name>Route - Wettstein Schlucht Lac Vert 89-1846</name>
  </metadata>
  <trk>
    <name><![CDATA[8721387-orbey-schlu-bresse-schlu-90-1800]]></name>
    <trkseg>
      <trkpt lat="48.12684" lon="7.1658">
        <ele>467</ele>
        <time>2019-04-12T10:19:02Z</time>
      </trkpt>
      <trkpt lat="48.12712" lon="7.16604">
        <ele>467</ele>
        <time>2019-04-12T10:20:02Z</time>
      </trkpt>
      <trkpt lat="48.12727" lon="7.16512">
        <ele>471</ele>
        <time>2019-04-12T10:21:02Z</time>
      </trkpt>
      <trkpt lat="48.12739" lon="7.16456">
        <ele>474</ele>
        <time>2019-04-12T10:22:02Z</time>
      </trkpt>
      <trkpt lat="48.12755" lon="7.16411">
        <ele>479</ele>
        <time>2019-04-12T10:23:02Z</time>
      </trkpt>
      <trkpt lat="48.12757" lon="7.16401">
        <ele>480</ele>
        <time>2019-04-12T10:24:02Z</time>
      </trkpt>
      <trkpt lat="48.12758" lon="7.16342">
        <ele>485</ele>
        <time>2019-04-12T10:25:02Z</time>
      </trkpt>
      <trkpt lat="48.12767" lon="7.16279">
        <ele>490</ele>
        <time>2019-04-12T10:26:02Z</time>
      </trkpt>
      <trkpt lat="48.1277" lon="7.16237">
        <ele>492</ele>
        <time>2019-04-12T10:27:02Z</time>
      </trkpt>
      <trkpt lat="48.1278" lon="7.16176">
        <ele>491</ele>
        <time>2019-04-12T10:28:02Z</time>
      </trkpt>
      <trkpt lat="48.128" lon="7.16082">
        <ele>489</ele>
        <time>2019-04-12T10:29:02Z</time>
      </trkpt>
      <trkpt lat="48.12801" lon="7.16069">
        <ele>490</ele>
        <time>2019-04-12T10:30:02Z</time>
      </trkpt>
      <trkpt lat="48.12793" lon="7.15997">
        <ele>492</ele>
        <time>2019-04-12T10:31:02Z</time>
      </trkpt>
      <trkpt lat="48.12785" lon="7.15974">
        <ele>494</ele>
        <time>2019-04-12T10:32:02Z</time>
      </trkpt>
      <trkpt lat="48.12777" lon="7.15962">
        <ele>494</ele>
        <time>2019-04-12T10:33:02Z</time>
      </trkpt>
      <trkpt lat="48.12738" lon="7.15929">
        <ele>492</ele>
        <time>2019-04-12T10:34:02Z</time>
      </trkpt>
      <trkpt lat="48.12687" lon="7.15895">
        <ele>491</ele>
        <time>2019-04-12T10:35:02Z</time>
      </trkpt>
      <trkpt lat="48.12679" lon="7.15886">
        <ele>491</ele>
        <time>2019-04-12T10:36:02Z</time>
      </trkpt>
      <trkpt lat="48.12673" lon="7.15866">
        <ele>492</ele>
        <time>2019-04-12T10:37:02Z</time>
      </trkpt>
      <trkpt lat="48.12667" lon="7.15829">
        <ele>493</ele>
        <time>2019-04-12T10:38:02Z</time>
      </trkpt>
      <trkpt lat="48.12651" lon="7.15778">
        <ele>498</ele>
        <time>2019-04-12T10:39:02Z</time>
      </trkpt>
      <trkpt lat="48.12645" lon="7.15751">
        <ele>500</ele>
        <time>2019-04-12T10:40:02Z</time>
      </trkpt>
      <trkpt lat="48.12638" lon="7.15711">
        <ele>502</ele>
        <time>2019-04-12T10:41:02Z</time>
      </trkpt>
      <trkpt lat="48.12636" lon="7.15669">
        <ele>503</ele>
        <time>2019-04-12T10:42:02Z</time>
      </trkpt>
      <trkpt lat="48.12632" lon="7.15654">
        <ele>503</ele>
        <time>2019-04-12T10:43:02Z</time>
      </trkpt>
      <trkpt lat="48.12627" lon="7.15638">
        <ele>502</ele>
        <time>2019-04-12T10:44:02Z</time>
      </trkpt>
      <trkpt lat="48.12618" lon="7.15627">
        <ele>501</ele>
        <time>2019-04-12T10:45:02Z</time>
      </trkpt>
      <trkpt lat="48.12609" lon="7.1562">
        <ele>500</ele>
        <time>2019-04-12T10:46:02Z</time>
      </trkpt>
      <trkpt lat="48.12607" lon="7.15611">
        <ele>500</ele>
        <time>2019-04-12T10:47:02Z</time>
      </trkpt>
      <trkpt lat="48.12562" lon="7.15562">
        <ele>501</ele>
        <time>2019-04-12T10:48:02Z</time>
      </trkpt>
      <trkpt lat="48.12555" lon="7.15551">
        <ele>502</ele>
        <time>2019-04-12T10:49:02Z</time>
      </trkpt>
      <trkpt lat="48.12552" lon="7.15541">
        <ele>503</ele>
        <time>2019-04-12T10:50:02Z</time>
      </trkpt>
      <trkpt lat="48.12552" lon="7.15541">
        <ele>503</ele>
        <time>2019-04-12T10:51:02Z</time>
      </trkpt>
      <trkpt lat="48.12547" lon="7.15521">
        <ele>503</ele>
        <time>2019-04-12T10:52:02Z</time>
      </trkpt>
      <trkpt lat="48.12546" lon="7.15459">
        <ele>505</ele>
        <time>2019-04-12T10:53:02Z</time>
      </trkpt>
      <trkpt lat="48.12541" lon="7.1542">
        <ele>507</ele>
        <time>2019-04-12T10:54:02Z</time>
      </trkpt>
      <trkpt lat="48.12528" lon="7.15379">
        <ele>509</ele>
        <time>2019-04-12T10:55:02Z</time>
      </trkpt>
      <trkpt lat="48.12516" lon="7.15354">
        <ele>510</ele>
        <time>2019-04-12T10:56:02Z</time>
      </trkpt>
      <trkpt lat="48.12494" lon="7.1532">
        <ele>512</ele>
        <time>2019-04-12T10:57:02Z</time>
      </trkpt>
      <trkpt lat="48.12483" lon="7.15307">
        <ele>513</ele>
        <time>2019-04-12T10:58:02Z</time>
      </trkpt>
      <trkpt lat="48.12475" lon="7.15301">
        <ele>513</ele>
        <time>2019-04-12T10:59:02Z</time>
      </trkpt>
      <trkpt lat="48.12455" lon="7.15293">
        <ele>513</ele>
        <time>2019-04-12T11:00:02Z</time>
      </trkpt>
      <trkpt lat="48.12426" lon="7.15286">
        <ele>513</ele>
        <time>2019-04-12T11:01:02Z</time>
      </trkpt>
      <trkpt lat="48.1237" lon="7.15276">
        <ele>514</ele>
        <time>2019-04-12T11:02:02Z</time>
      </trkpt>
      <trkpt lat="48.12356" lon="7.15271">
        <ele>514</ele>
        <time>2019-04-12T11:03:02Z</time>
      </trkpt>
      <trkpt lat="48.12342" lon="7.15264">
        <ele>514</ele>
        <time>2019-04-12T11:04:02Z</time>
      </trkpt>
      <trkpt lat="48.12327" lon="7.1525">
        <ele>514</ele>
        <time>2019-04-12T11:05:02Z</time>
      </trkpt>
      <trkpt lat="48.12316" lon="7.15234">
        <ele>516</ele>
        <time>2019-04-12T11:06:02Z</time>
      </trkpt>
      <trkpt lat="48.12286" lon="7.15179">
        <ele>518</ele>
        <time>2019-04-12T11:07:02Z</time>
      </trkpt>
      <trkpt lat="48.12265" lon="7.15144">
        <ele>520</ele>
        <time>2019-04-12T11:08:02Z</time>
      </trkpt>
      <trkpt lat="48.12224" lon="7.15063">
        <ele>524</ele>
        <time>2019-04-12T11:09:02Z</time>
      </trkpt>
      <trkpt lat="48.12193" lon="7.1501">
        <ele>526</ele>
        <time>2019-04-12T11:10:02Z</time>
      </trkpt>
      <trkpt lat="48.12164" lon="7.14965">
        <ele>529</ele>
        <time>2019-04-12T11:11:02Z</time>
      </trkpt>
      <trkpt lat="48.1208" lon="7.14806">
        <ele>538</ele>
        <time>2019-04-12T11:12:02Z</time>
      </trkpt>
      <trkpt lat="48.12072" lon="7.14789">
        <ele>540</ele>
        <time>2019-04-12T11:13:02Z</time>
      </trkpt>
      <trkpt lat="48.12053" lon="7.14741">
        <ele>543</ele>
        <time>2019-04-12T11:14:02Z</time>
      </trkpt>
      <trkpt lat="48.1204" lon="7.14713">
        <ele>544</ele>
        <time>2019-04-12T11:15:02Z</time>
      </trkpt>
      <trkpt lat="48.11992" lon="7.14631">
        <ele>547</ele>
        <time>2019-04-12T11:16:02Z</time>
      </trkpt>
      <trkpt lat="48.11961" lon="7.14567">
        <ele>551</ele>
        <time>2019-04-12T11:17:02Z</time>
      </trkpt>
      <trkpt lat="48.11952" lon="7.14557">
        <ele>552</ele>
        <time>2019-04-12T11:18:02Z</time>
      </trkpt>
      <trkpt lat="48.11874" lon="7.14495">
        <ele>555</ele>
        <time>2019-04-12T11:19:02Z</time>
      </trkpt>
      <trkpt lat="48.11834" lon="7.14451">
        <ele>558</ele>
        <time>2019-04-12T11:20:02Z</time>
      </trkpt>
      <trkpt lat="48.11815" lon="7.14402">
        <ele>559</ele>
        <time>2019-04-12T11:21:02Z</time>
      </trkpt>
      <trkpt lat="48.11806" lon="7.14371">
        <ele>560</ele>
        <time>2019-04-12T11:22:02Z</time>
      </trkpt>
      <trkpt lat="48.11803" lon="7.14351">
        <ele>561</ele>
        <time>2019-04-12T11:23:02Z</time>
      </trkpt>
      <trkpt lat="48.11801" lon="7.14318">
        <ele>562</ele>
        <time>2019-04-12T11:24:02Z</time>
      </trkpt>
      <trkpt lat="48.11768" lon="7.14345">
        <ele>562</ele>
        <time>2019-04-12T11:25:02Z</time>
      </trkpt>
      <trkpt lat="48.11712" lon="7.14369">
        <ele>564</ele>
        <time>2019-04-12T11:26:02Z</time>
      </trkpt>
      <trkpt lat="48.11613" lon="7.14405">
        <ele>568</ele>
        <time>2019-04-12T11:27:02Z</time>
      </trkpt>
      <trkpt lat="48.11596" lon="7.14409">
        <ele>569</ele>
        <time>2019-04-12T11:28:02Z</time>
      </trkpt>
      <trkpt lat="48.1158" lon="7.14407">
        <ele>570</ele>
        <time>2019-04-12T11:29:02Z</time>
      </trkpt>
      <trkpt lat="48.11543" lon="7.14389">
        <ele>573</ele>
        <time>2019-04-12T11:30:02Z</time>
      </trkpt>
      <trkpt lat="48.11515" lon="7.14379">
        <ele>575</ele>
        <time>2019-04-12T11:31:02Z</time>
      </trkpt>
      <trkpt lat="48.11499" lon="7.14381">
        <ele>576</ele>
        <time>2019-04-12T11:32:02Z</time>
      </trkpt>
      <trkpt lat="48.11477" lon="7.1439">
        <ele>577</ele>
        <time>2019-04-12T11:33:02Z</time>
      </trkpt>
      <trkpt lat="48.11416" lon="7.14431">
        <ele>578</ele>
        <time>2019-04-12T11:34:02Z</time>
      </trkpt>
      <trkpt lat="48.11395" lon="7.14435">
        <ele>578</ele>
        <time>2019-04-12T11:35:02Z</time>
      </trkpt>
      <trkpt lat="48.1138" lon="7.14434">
        <ele>578</ele>
        <time>2019-04-12T11:36:02Z</time>
      </trkpt>
      <trkpt lat="48.11284" lon="7.14396">
        <ele>584</ele>
        <time>2019-04-12T11:37:02Z</time>
      </trkpt>
      <trkpt lat="48.11267" lon="7.14392">
        <ele>585</ele>
        <time>2019-04-12T11:38:02Z</time>
      </trkpt>
      <trkpt lat="48.11267" lon="7.14392">
        <ele>585</ele>
        <time>2019-04-12T11:39:02Z</time>
      </trkpt>
      <trkpt lat="48.11257" lon="7.14389">
        <ele>585</ele>
        <time>2019-04-12T11:40:02Z</time>
      </trkpt>
      <trkpt lat="48.1124" lon="7.14388">
        <ele>586</ele>
        <time>2019-04-12T11:41:02Z</time>
      </trkpt>
      <trkpt lat="48.11115" lon="7.14394">
        <ele>587</ele>
        <time>2019-04-12T11:42:02Z</time>
      </trkpt>
      <trkpt lat="48.11091" lon="7.144">
        <ele>586</ele>
        <time>2019-04-12T11:43:02Z</time>
      </trkpt>
      <trkpt lat="48.11067" lon="7.14413">
        <ele>585</ele>
        <time>2019-04-12T11:44:02Z</time>
      </trkpt>
      <trkpt lat="48.11055" lon="7.14416">
        <ele>585</ele>
        <time>2019-04-12T11:45:02Z</time>
      </trkpt>
      <trkpt lat="48.11025" lon="7.1442">
        <ele>587</ele>
        <time>2019-04-12T11:46:02Z</time>
      </trkpt>
      <trkpt lat="48.11" lon="7.14417">
        <ele>589</ele>
        <time>2019-04-12T11:47:02Z</time>
      </trkpt>
      <trkpt lat="48.10926" lon="7.1439">
        <ele>596</ele>
        <time>2019-04-12T11:48:02Z</time>
      </trkpt>
      <trkpt lat="48.10901" lon="7.14377">
        <ele>598</ele>
        <time>2019-04-12T11:49:02Z</time>
      </trkpt>
      <trkpt lat="48.10822" lon="7.1432">
        <ele>605</ele>
        <time>2019-04-12T11:50:02Z</time>
      </trkpt>
      <trkpt lat="48.10714" lon="7.14234">
        <ele>609</ele>
        <time>2019-04-12T11:51:02Z</time>
      </trkpt>
      <trkpt lat="48.10696" lon="7.14212">
        <ele>610</ele>
        <time>2019-04-12T11:52:02Z</time>
      </trkpt>
      <trkpt lat="48.10632" lon="7.14086">
        <ele>618</ele>
        <time>2019-04-12T11:53:02Z</time>
      </trkpt>
      <trkpt lat="48.10563" lon="7.14009">
        <ele>619</ele>
        <time>2019-04-12T11:54:02Z</time>
      </trkpt>
      <trkpt lat="48.10563" lon="7.14009">
        <ele>619</ele>
        <time>2019-04-12T11:55:02Z</time>
      </trkpt>
      <trkpt lat="48.10488" lon="7.13931">
        <ele>625</ele>
        <time>2019-04-12T11:56:02Z</time>
      </trkpt>
      <trkpt lat="48.10468" lon="7.13913">
        <ele>627</ele>
        <time>2019-04-12T11:57:02Z</time>
      </trkpt>
      <trkpt lat="48.10417" lon="7.13885">
        <ele>634</ele>
        <time>2019-04-12T11:58:02Z</time>
      </trkpt>
      <trkpt lat="48.10407" lon="7.13874">
        <ele>637</ele>
        <time>2019-04-12T11:59:02Z</time>
      </trkpt>
      <trkpt lat="48.10368" lon="7.13808">
        <ele>651</ele>
        <time>2019-04-12T12:00:02Z</time>
      </trkpt>
      <trkpt lat="48.10359" lon="7.13797">
        <ele>653</ele>
        <time>2019-04-12T12:01:02Z</time>
      </trkpt>
      <trkpt lat="48.10294" lon="7.13725">
        <ele>661</ele>
        <time>2019-04-12T12:02:02Z</time>
      </trkpt>
      <trkpt lat="48.1028" lon="7.13705">
        <ele>661</ele>
        <time>2019-04-12T12:03:02Z</time>
      </trkpt>
      <trkpt lat="48.10265" lon="7.1368">
        <ele>658</ele>
        <time>2019-04-12T12:04:02Z</time>
      </trkpt>
      <trkpt lat="48.10236" lon="7.13603">
        <ele>657</ele>
        <time>2019-04-12T12:05:02Z</time>
      </trkpt>
      <trkpt lat="48.10225" lon="7.1359">
        <ele>656</ele>
        <time>2019-04-12T12:06:02Z</time>
      </trkpt>
      <trkpt lat="48.10202" lon="7.13577">
        <ele>655</ele>
        <time>2019-04-12T12:07:02Z</time>
      </trkpt>
      <trkpt lat="48.10174" lon="7.13569">
        <ele>654</ele>
        <time>2019-04-12T12:08:02Z</time>
      </trkpt>
      <trkpt lat="48.1009" lon="7.13561">
        <ele>659</ele>
        <time>2019-04-12T12:09:02Z</time>
      </trkpt>
      <trkpt lat="48.10054" lon="7.13562">
        <ele>662</ele>
        <time>2019-04-12T12:10:02Z</time>
      </trkpt>
      <trkpt lat="48.10014" lon="7.13567">
        <ele>664</ele>
        <time>2019-04-12T12:11:02Z</time>
      </trkpt>
      <trkpt lat="48.09973" lon="7.13574">
        <ele>670</ele>
        <time>2019-04-12T12:12:02Z</time>
      </trkpt>
      <trkpt lat="48.09932" lon="7.13589">
        <ele>676</ele>
        <time>2019-04-12T12:13:02Z</time>
      </trkpt>
      <trkpt lat="48.09922" lon="7.13597">
        <ele>678</ele>
        <time>2019-04-12T12:14:02Z</time>
      </trkpt>
      <trkpt lat="48.09878" lon="7.13651">
        <ele>682</ele>
        <time>2019-04-12T12:15:02Z</time>
      </trkpt>
      <trkpt lat="48.09857" lon="7.13674">
        <ele>682</ele>
        <time>2019-04-12T12:16:02Z</time>
      </trkpt>
      <trkpt lat="48.09829" lon="7.13694">
        <ele>683</ele>
        <time>2019-04-12T12:17:02Z</time>
      </trkpt>
      <trkpt lat="48.09816" lon="7.137">
        <ele>683</ele>
        <time>2019-04-12T12:18:02Z</time>
      </trkpt>
      <trkpt lat="48.09802" lon="7.13701">
        <ele>682</ele>
        <time>2019-04-12T12:19:02Z</time>
      </trkpt>
      <trkpt lat="48.09774" lon="7.13698">
        <ele>683</ele>
        <time>2019-04-12T12:20:02Z</time>
      </trkpt>
      <trkpt lat="48.09743" lon="7.13709">
        <ele>682</ele>
        <time>2019-04-12T12:21:02Z</time>
      </trkpt>
      <trkpt lat="48.09697" lon="7.13721">
        <ele>684</ele>
        <time>2019-04-12T12:22:02Z</time>
      </trkpt>
      <trkpt lat="48.09688" lon="7.13717">
        <ele>684</ele>
        <time>2019-04-12T12:23:02Z</time>
      </trkpt>
      <trkpt lat="48.09684" lon="7.13709">
        <ele>685</ele>
        <time>2019-04-12T12:24:02Z</time>
      </trkpt>
      <trkpt lat="48.09655" lon="7.13571">
        <ele>695</ele>
        <time>2019-04-12T12:25:02Z</time>
      </trkpt>
      <trkpt lat="48.09636" lon="7.13469">
        <ele>703</ele>
        <time>2019-04-12T12:26:02Z</time>
      </trkpt>
      <trkpt lat="48.09625" lon="7.13387">
        <ele>708</ele>
        <time>2019-04-12T12:27:02Z</time>
      </trkpt>
      <trkpt lat="48.09625" lon="7.13368">
        <ele>709</ele>
        <time>2019-04-12T12:28:02Z</time>
      </trkpt>
      <trkpt lat="48.09626" lon="7.13357">
        <ele>709</ele>
        <time>2019-04-12T12:29:02Z</time>
      </trkpt>
      <trkpt lat="48.0963" lon="7.13347">
        <ele>709</ele>
        <time>2019-04-12T12:30:02Z</time>
      </trkpt>
      <trkpt lat="48.09636" lon="7.13341">
        <ele>710</ele>
        <time>2019-04-12T12:31:02Z</time>
      </trkpt>
      <trkpt lat="48.09642" lon="7.1334">
        <ele>710</ele>
        <time>2019-04-12T12:32:02Z</time>
      </trkpt>
      <trkpt lat="48.09651" lon="7.13341">
        <ele>709</ele>
        <time>2019-04-12T12:33:02Z</time>
      </trkpt>
      <trkpt lat="48.0966" lon="7.13349">
        <ele>708</ele>
        <time>2019-04-12T12:34:02Z</time>
      </trkpt>
      <trkpt lat="48.09667" lon="7.13364">
        <ele>707</ele>
        <time>2019-04-12T12:35:02Z</time>
      </trkpt>
      <trkpt lat="48.09683" lon="7.13408">
        <ele>706</ele>
        <time>2019-04-12T12:36:02Z</time>
      </trkpt>
      <trkpt lat="48.09683" lon="7.13408">
        <ele>706</ele>
        <time>2019-04-12T12:37:02Z</time>
      </trkpt>
      <trkpt lat="48.09715" lon="7.13504">
        <ele>705</ele>
        <time>2019-04-12T12:38:02Z</time>
      </trkpt>
      <trkpt lat="48.09726" lon="7.13532">
        <ele>704</ele>
        <time>2019-04-12T12:39:02Z</time>
      </trkpt>
      <trkpt lat="48.09738" lon="7.13549">
        <ele>705</ele>
        <time>2019-04-12T12:40:02Z</time>
      </trkpt>
      <trkpt lat="48.09764" lon="7.13565">
        <ele>706</ele>
        <time>2019-04-12T12:41:02Z</time>
      </trkpt>
      <trkpt lat="48.0979" lon="7.13578">
        <ele>707</ele>
        <time>2019-04-12T12:42:02Z</time>
      </trkpt>
      <trkpt lat="48.098" lon="7.13581">
        <ele>708</ele>
        <time>2019-04-12T12:43:02Z</time>
      </trkpt>
      <trkpt lat="48.09809" lon="7.1358">
        <ele>709</ele>
        <time>2019-04-12T12:44:02Z</time>
      </trkpt>
      <trkpt lat="48.09822" lon="7.13573">
        <ele>711</ele>
        <time>2019-04-12T12:45:02Z</time>
      </trkpt>
      <trkpt lat="48.09826" lon="7.13565">
        <ele>712</ele>
        <time>2019-04-12T12:46:02Z</time>
      </trkpt>
      <trkpt lat="48.09834" lon="7.13536">
        <ele>716</ele>
        <time>2019-04-12T12:47:02Z</time>
      </trkpt>
      <trkpt lat="48.09848" lon="7.13477">
        <ele>719</ele>
        <time>2019-04-12T12:48:02Z</time>
      </trkpt>
      <trkpt lat="48.09855" lon="7.13458">
        <ele>720</ele>
        <time>2019-04-12T12:49:02Z</time>
      </trkpt>
      <trkpt lat="48.09865" lon="7.1344">
        <ele>720</ele>
        <time>2019-04-12T12:50:02Z</time>
      </trkpt>
      <trkpt lat="48.09873" lon="7.13429">
        <ele>721</ele>
        <time>2019-04-12T12:51:02Z</time>
      </trkpt>
      <trkpt lat="48.09883" lon="7.13419">
        <ele>722</ele>
        <time>2019-04-12T12:52:02Z</time>
      </trkpt>
      <trkpt lat="48.099" lon="7.1341">
        <ele>722</ele>
        <time>2019-04-12T12:53:02Z</time>
      </trkpt>
      <trkpt lat="48.09915" lon="7.13405">
        <ele>723</ele>
        <time>2019-04-12T12:54:02Z</time>
      </trkpt>
      <trkpt lat="48.09915" lon="7.13405">
        <ele>723</ele>
        <time>2019-04-12T12:55:02Z</time>
      </trkpt>
      <trkpt lat="48.0995" lon="7.13393">
        <ele>723</ele>
        <time>2019-04-12T12:56:02Z</time>
      </trkpt>
      <trkpt lat="48.09995" lon="7.13373">
        <ele>726</ele>
        <time>2019-04-12T12:57:02Z</time>
      </trkpt>
      <trkpt lat="48.10004" lon="7.13366">
        <ele>727</ele>
        <time>2019-04-12T12:58:02Z</time>
      </trkpt>
      <trkpt lat="48.1005" lon="7.1331">
        <ele>728</ele>
        <time>2019-04-12T12:59:02Z</time>
      </trkpt>
      <trkpt lat="48.1009" lon="7.13268">
        <ele>731</ele>
        <time>2019-04-12T13:00:02Z</time>
      </trkpt>
      <trkpt lat="48.1014" lon="7.13225">
        <ele>736</ele>
        <time>2019-04-12T13:01:02Z</time>
      </trkpt>
      <trkpt lat="48.10151" lon="7.1322">
        <ele>736</ele>
        <time>2019-04-12T13:02:02Z</time>
      </trkpt>
      <trkpt lat="48.10202" lon="7.13213">
        <ele>736</ele>
        <time>2019-04-12T13:03:02Z</time>
      </trkpt>
      <trkpt lat="48.1022" lon="7.13205">
        <ele>737</ele>
        <time>2019-04-12T13:04:02Z</time>
      </trkpt>
      <trkpt lat="48.10256" lon="7.13172">
        <ele>744</ele>
        <time>2019-04-12T13:05:02Z</time>
      </trkpt>
      <trkpt lat="48.10285" lon="7.13141">
        <ele>746</ele>
        <time>2019-04-12T13:06:02Z</time>
      </trkpt>
      <trkpt lat="48.10329" lon="7.13089">
        <ele>749</ele>
        <time>2019-04-12T13:07:02Z</time>
      </trkpt>
      <trkpt lat="48.10348" lon="7.13062">
        <ele>749</ele>
        <time>2019-04-12T13:08:02Z</time>
      </trkpt>
      <trkpt lat="48.10365" lon="7.13027">
        <ele>750</ele>
        <time>2019-04-12T13:09:02Z</time>
      </trkpt>
      <trkpt lat="48.10381" lon="7.12988">
        <ele>751</ele>
        <time>2019-04-12T13:10:02Z</time>
      </trkpt>
      <trkpt lat="48.10408" lon="7.12909">
        <ele>756</ele>
        <time>2019-04-12T13:11:02Z</time>
      </trkpt>
      <trkpt lat="48.10428" lon="7.12839">
        <ele>757</ele>
        <time>2019-04-12T13:12:02Z</time>
      </trkpt>
      <trkpt lat="48.10436" lon="7.12823">
        <ele>759</ele>
        <time>2019-04-12T13:13:02Z</time>
      </trkpt>
      <trkpt lat="48.10445" lon="7.1281">
        <ele>760</ele>
        <time>2019-04-12T13:14:02Z</time>
      </trkpt>
      <trkpt lat="48.10466" lon="7.12791">
        <ele>763</ele>
        <time>2019-04-12T13:15:02Z</time>
      </trkpt>
      <trkpt lat="48.1051" lon="7.1276">
        <ele>767</ele>
        <time>2019-04-12T13:16:02Z</time>
      </trkpt>
      <trkpt lat="48.1051" lon="7.1276">
        <ele>767</ele>
        <time>2019-04-12T13:17:02Z</time>
      </trkpt>
      <trkpt lat="48.10598" lon="7.12699">
        <ele>773</ele>
        <time>2019-04-12T13:18:02Z</time>
      </trkpt>
      <trkpt lat="48.10598" lon="7.12699">
        <ele>773</ele>
        <time>2019-04-12T13:19:02Z</time>
      </trkpt>
      <trkpt lat="48.10615" lon="7.12678">
        <ele>774</ele>
        <time>2019-04-12T13:20:02Z</time>
      </trkpt>
      <trkpt lat="48.10633" lon="7.12643">
        <ele>776</ele>
        <time>2019-04-12T13:21:02Z</time>
      </trkpt>
      <trkpt lat="48.1064" lon="7.12626">
        <ele>777</ele>
        <time>2019-04-12T13:22:02Z</time>
      </trkpt>
      <trkpt lat="48.10644" lon="7.12604">
        <ele>777</ele>
        <time>2019-04-12T13:23:02Z</time>
      </trkpt>
      <trkpt lat="48.10645" lon="7.12577">
        <ele>778</ele>
        <time>2019-04-12T13:24:02Z</time>
      </trkpt>
      <trkpt lat="48.10643" lon="7.12548">
        <ele>779</ele>
        <time>2019-04-12T13:25:02Z</time>
      </trkpt>
      <trkpt lat="48.10622" lon="7.12442">
        <ele>779</ele>
        <time>2019-04-12T13:26:02Z</time>
      </trkpt>
      <trkpt lat="48.10586" lon="7.12282">
        <ele>781</ele>
        <time>2019-04-12T13:27:02Z</time>
      </trkpt>
      <trkpt lat="48.10577" lon="7.12263">
        <ele>782</ele>
        <time>2019-04-12T13:28:02Z</time>
      </trkpt>
      <trkpt lat="48.10571" lon="7.12264">
        <ele>782</ele>
        <time>2019-04-12T13:29:02Z</time>
      </trkpt>
      <trkpt lat="48.10498" lon="7.1233">
        <ele>781</ele>
        <time>2019-04-12T13:30:02Z</time>
      </trkpt>
      <trkpt lat="48.10498" lon="7.1233">
        <ele>781</ele>
        <time>2019-04-12T13:31:02Z</time>
      </trkpt>
      <trkpt lat="48.10443" lon="7.12375">
        <ele>786</ele>
        <time>2019-04-12T13:32:02Z</time>
      </trkpt>
      <trkpt lat="48.10425" lon="7.12381">
        <ele>788</ele>
        <time>2019-04-12T13:33:02Z</time>
      </trkpt>
      <trkpt lat="48.10366" lon="7.12392">
        <ele>791</ele>
        <time>2019-04-12T13:34:02Z</time>
      </trkpt>
      <trkpt lat="48.10344" lon="7.12403">
        <ele>791</ele>
        <time>2019-04-12T13:35:02Z</time>
      </trkpt>
      <trkpt lat="48.103" lon="7.12447">
        <ele>791</ele>
        <time>2019-04-12T13:36:02Z</time>
      </trkpt>
      <trkpt lat="48.10269" lon="7.12483">
        <ele>794</ele>
        <time>2019-04-12T13:37:02Z</time>
      </trkpt>
      <trkpt lat="48.10246" lon="7.12517">
        <ele>797</ele>
        <time>2019-04-12T13:38:02Z</time>
      </trkpt>
      <trkpt lat="48.10231" lon="7.12552">
        <ele>802</ele>
        <time>2019-04-12T13:39:02Z</time>
      </trkpt>
      <trkpt lat="48.10211" lon="7.12602">
        <ele>807</ele>
        <time>2019-04-12T13:40:02Z</time>
      </trkpt>
      <trkpt lat="48.10195" lon="7.12676">
        <ele>809</ele>
        <time>2019-04-12T13:41:02Z</time>
      </trkpt>
      <trkpt lat="48.10175" lon="7.12758">
        <ele>811</ele>
        <time>2019-04-12T13:42:02Z</time>
      </trkpt>
      <trkpt lat="48.10134" lon="7.12887">
        <ele>815</ele>
        <time>2019-04-12T13:43:02Z</time>
      </trkpt>
      <trkpt lat="48.10125" lon="7.1291">
        <ele>814</ele>
        <time>2019-04-12T13:44:02Z</time>
      </trkpt>
      <trkpt lat="48.1011" lon="7.12926">
        <ele>814</ele>
        <time>2019-04-12T13:45:02Z</time>
      </trkpt>
      <trkpt lat="48.10097" lon="7.12935">
        <ele>815</ele>
        <time>2019-04-12T13:46:02Z</time>
      </trkpt>
      <trkpt lat="48.10028" lon="7.12948">
        <ele>821</ele>
        <time>2019-04-12T13:47:02Z</time>
      </trkpt>
      <trkpt lat="48.0994" lon="7.12954">
        <ele>820</ele>
        <time>2019-04-12T13:48:02Z</time>
      </trkpt>
      <trkpt lat="48.09924" lon="7.12952">
        <ele>820</ele>
        <time>2019-04-12T13:49:02Z</time>
      </trkpt>
      <trkpt lat="48.09908" lon="7.12944">
        <ele>820</ele>
        <time>2019-04-12T13:50:02Z</time>
      </trkpt>
      <trkpt lat="48.09893" lon="7.12929">
        <ele>820</ele>
        <time>2019-04-12T13:51:02Z</time>
      </trkpt>
      <trkpt lat="48.09884" lon="7.12913">
        <ele>821</ele>
        <time>2019-04-12T13:52:02Z</time>
      </trkpt>
      <trkpt lat="48.09842" lon="7.12798">
        <ele>827</ele>
        <time>2019-04-12T13:53:02Z</time>
      </trkpt>
      <trkpt lat="48.09793" lon="7.12681">
        <ele>829</ele>
        <time>2019-04-12T13:54:02Z</time>
      </trkpt>
      <trkpt lat="48.09701" lon="7.12476">
        <ele>835</ele>
        <time>2019-04-12T13:55:02Z</time>
      </trkpt>
      <trkpt lat="48.09673" lon="7.12401">
        <ele>837</ele>
        <time>2019-04-12T13:56:02Z</time>
      </trkpt>
      <trkpt lat="48.09638" lon="7.12284">
        <ele>835</ele>
        <time>2019-04-12T13:57:02Z</time>
      </trkpt>
      <trkpt lat="48.09628" lon="7.12243">
        <ele>835</ele>
        <time>2019-04-12T13:58:02Z</time>
      </trkpt>
      <trkpt lat="48.09549" lon="7.11851">
        <ele>848</ele>
        <time>2019-04-12T13:59:02Z</time>
      </trkpt>
      <trkpt lat="48.09543" lon="7.11832">
        <ele>850</ele>
        <time>2019-04-12T14:00:02Z</time>
      </trkpt>
      <trkpt lat="48.09534" lon="7.11819">
        <ele>851</ele>
        <time>2019-04-12T14:01:02Z</time>
      </trkpt>
      <trkpt lat="48.09524" lon="7.11809">
        <ele>853</ele>
        <time>2019-04-12T14:02:02Z</time>
      </trkpt>
      <trkpt lat="48.09514" lon="7.11806">
        <ele>854</ele>
        <time>2019-04-12T14:03:02Z</time>
      </trkpt>
      <trkpt lat="48.09506" lon="7.11809">
        <ele>854</ele>
        <time>2019-04-12T14:04:02Z</time>
      </trkpt>
      <trkpt lat="48.09491" lon="7.11818">
        <ele>856</ele>
        <time>2019-04-12T14:05:02Z</time>
      </trkpt>
      <trkpt lat="48.09453" lon="7.11855">
        <ele>863</ele>
        <time>2019-04-12T14:06:02Z</time>
      </trkpt>
      <trkpt lat="48.09438" lon="7.11881">
        <ele>864</ele>
        <time>2019-04-12T14:07:02Z</time>
      </trkpt>
      <trkpt lat="48.0941" lon="7.11951">
        <ele>864</ele>
        <time>2019-04-12T14:08:02Z</time>
      </trkpt>
      <trkpt lat="48.09403" lon="7.11975">
        <ele>864</ele>
        <time>2019-04-12T14:09:02Z</time>
      </trkpt>
      <trkpt lat="48.09398" lon="7.12005">
        <ele>862</ele>
        <time>2019-04-12T14:10:02Z</time>
      </trkpt>
      <trkpt lat="48.09394" lon="7.12051">
        <ele>859</ele>
        <time>2019-04-12T14:11:02Z</time>
      </trkpt>
      <trkpt lat="48.09385" lon="7.12094">
        <ele>859</ele>
        <time>2019-04-12T14:12:02Z</time>
      </trkpt>
      <trkpt lat="48.0937" lon="7.12138">
        <ele>862</ele>
        <time>2019-04-12T14:13:02Z</time>
      </trkpt>
      <trkpt lat="48.09343" lon="7.12203">
        <ele>865</ele>
        <time>2019-04-12T14:14:02Z</time>
      </trkpt>
      <trkpt lat="48.09326" lon="7.12245">
        <ele>864</ele>
        <time>2019-04-12T14:15:02Z</time>
      </trkpt>
      <trkpt lat="48.09315" lon="7.12262">
        <ele>863</ele>
        <time>2019-04-12T14:16:02Z</time>
      </trkpt>
      <trkpt lat="48.09285" lon="7.12284">
        <ele>863</ele>
        <time>2019-04-12T14:17:02Z</time>
      </trkpt>
      <trkpt lat="48.09242" lon="7.12302">
        <ele>864</ele>
        <time>2019-04-12T14:18:02Z</time>
      </trkpt>
      <trkpt lat="48.09229" lon="7.12301">
        <ele>863</ele>
        <time>2019-04-12T14:19:02Z</time>
      </trkpt>
      <trkpt lat="48.09212" lon="7.12292">
        <ele>862</ele>
        <time>2019-04-12T14:20:02Z</time>
      </trkpt>
      <trkpt lat="48.092" lon="7.12276">
        <ele>863</ele>
        <time>2019-04-12T14:21:02Z</time>
      </trkpt>
      <trkpt lat="48.09187" lon="7.12248">
        <ele>865</ele>
        <time>2019-04-12T14:22:02Z</time>
      </trkpt>
      <trkpt lat="48.09176" lon="7.12213">
        <ele>866</ele>
        <time>2019-04-12T14:23:02Z</time>
      </trkpt>
      <trkpt lat="48.09163" lon="7.12144">
        <ele>869</ele>
        <time>2019-04-12T14:24:02Z</time>
      </trkpt>
      <trkpt lat="48.09146" lon="7.12024">
        <ele>872</ele>
        <time>2019-04-12T14:25:02Z</time>
      </trkpt>
      <trkpt lat="48.09127" lon="7.11866">
        <ele>887</ele>
        <time>2019-04-12T14:26:02Z</time>
      </trkpt>
      <trkpt lat="48.09122" lon="7.11845">
        <ele>890</ele>
        <time>2019-04-12T14:27:02Z</time>
      </trkpt>
      <trkpt lat="48.09115" lon="7.11837">
        <ele>891</ele>
        <time>2019-04-12T14:28:02Z</time>
      </trkpt>
      <trkpt lat="48.09102" lon="7.11833">
        <ele>891</ele>
        <time>2019-04-12T14:29:02Z</time>
      </trkpt>
      <trkpt lat="48.09032" lon="7.11822">
        <ele>888</ele>
        <time>2019-04-12T14:30:02Z</time>
      </trkpt>
      <trkpt lat="48.09005" lon="7.11814">
        <ele>888</ele>
        <time>2019-04-12T14:31:02Z</time>
      </trkpt>
      <trkpt lat="48.08928" lon="7.11771">
        <ele>890</ele>
        <time>2019-04-12T14:32:02Z</time>
      </trkpt>
      <trkpt lat="48.08854" lon="7.11725">
        <ele>888</ele>
        <time>2019-04-12T14:33:02Z</time>
      </trkpt>
      <trkpt lat="48.0883" lon="7.11706">
        <ele>888</ele>
        <time>2019-04-12T14:34:02Z</time>
      </trkpt>
      <trkpt lat="48.08817" lon="7.11694">
        <ele>889</ele>
        <time>2019-04-12T14:35:02Z</time>
      </trkpt>
      <trkpt lat="48.08812" lon="7.11685">
        <ele>889</ele>
        <time>2019-04-12T14:36:02Z</time>
      </trkpt>
      <trkpt lat="48.08791" lon="7.11618">
        <ele>889</ele>
        <time>2019-04-12T14:37:02Z</time>
      </trkpt>
      <trkpt lat="48.08774" lon="7.11528">
        <ele>885</ele>
        <time>2019-04-12T14:38:02Z</time>
      </trkpt>
      <trkpt lat="48.08771" lon="7.1149">
        <ele>882</ele>
        <time>2019-04-12T14:39:02Z</time>
      </trkpt>
      <trkpt lat="48.08772" lon="7.11462">
        <ele>879</ele>
        <time>2019-04-12T14:40:02Z</time>
      </trkpt>
      <trkpt lat="48.08787" lon="7.1133">
        <ele>874</ele>
        <time>2019-04-12T14:41:02Z</time>
      </trkpt>
      <trkpt lat="48.08786" lon="7.11314">
        <ele>874</ele>
        <time>2019-04-12T14:42:02Z</time>
      </trkpt>
      <trkpt lat="48.08782" lon="7.11304">
        <ele>873</ele>
        <time>2019-04-12T14:43:02Z</time>
      </trkpt>
      <trkpt lat="48.08773" lon="7.11297">
        <ele>871</ele>
        <time>2019-04-12T14:44:02Z</time>
      </trkpt>
      <trkpt lat="48.08765" lon="7.11299">
        <ele>869</ele>
        <time>2019-04-12T14:45:02Z</time>
      </trkpt>
      <trkpt lat="48.0876" lon="7.11304">
        <ele>868</ele>
        <time>2019-04-12T14:46:02Z</time>
      </trkpt>
      <trkpt lat="48.08755" lon="7.11315">
        <ele>866</ele>
        <time>2019-04-12T14:47:02Z</time>
      </trkpt>
      <trkpt lat="48.08746" lon="7.11354">
        <ele>866</ele>
        <time>2019-04-12T14:48:02Z</time>
      </trkpt>
      <trkpt lat="48.08739" lon="7.11373">
        <ele>866</ele>
        <time>2019-04-12T14:49:02Z</time>
      </trkpt>
      <trkpt lat="48.08732" lon="7.11383">
        <ele>866</ele>
        <time>2019-04-12T14:50:02Z</time>
      </trkpt>
      <trkpt lat="48.08722" lon="7.11392">
        <ele>866</ele>
        <time>2019-04-12T14:51:02Z</time>
      </trkpt>
      <trkpt lat="48.08707" lon="7.11398">
        <ele>866</ele>
        <time>2019-04-12T14:52:02Z</time>
      </trkpt>
      <trkpt lat="48.08692" lon="7.114">
        <ele>865</ele>
        <time>2019-04-12T14:53:02Z</time>
      </trkpt>
      <trkpt lat="48.08676" lon="7.11397">
        <ele>864</ele>
        <time>2019-04-12T14:54:02Z</time>
      </trkpt>
      <trkpt lat="48.08639" lon="7.11378">
        <ele>860</ele>
        <time>2019-04-12T14:55:02Z</time>
      </trkpt>
      <trkpt lat="48.08619" lon="7.1137">
        <ele>858</ele>
        <time>2019-04-12T14:56:02Z</time>
      </trkpt>
      <trkpt lat="48.08534" lon="7.11354">
        <ele>850</ele>
        <time>2019-04-12T14:57:02Z</time>
      </trkpt>
      <trkpt lat="48.08452" lon="7.11347">
        <ele>843</ele>
        <time>2019-04-12T14:58:02Z</time>
      </trkpt>
      <trkpt lat="48.08387" lon="7.11338">
        <ele>837</ele>
        <time>2019-04-12T14:59:02Z</time>
      </trkpt>
      <trkpt lat="48.08347" lon="7.11338">
        <ele>835</ele>
        <time>2019-04-12T15:00:02Z</time>
      </trkpt>
      <trkpt lat="48.0829" lon="7.11325">
        <ele>830</ele>
        <time>2019-04-12T15:01:02Z</time>
      </trkpt>
      <trkpt lat="48.0827" lon="7.11323">
        <ele>829</ele>
        <time>2019-04-12T15:02:02Z</time>
      </trkpt>
      <trkpt lat="48.08209" lon="7.11327">
        <ele>827</ele>
        <time>2019-04-12T15:03:02Z</time>
      </trkpt>
      <trkpt lat="48.08171" lon="7.11323">
        <ele>823</ele>
        <time>2019-04-12T15:04:02Z</time>
      </trkpt>
      <trkpt lat="48.08117" lon="7.11323">
        <ele>818</ele>
        <time>2019-04-12T15:05:02Z</time>
      </trkpt>
      <trkpt lat="48.08095" lon="7.11317">
        <ele>815</ele>
        <time>2019-04-12T15:06:02Z</time>
      </trkpt>
      <trkpt lat="48.08073" lon="7.11307">
        <ele>811</ele>
        <time>2019-04-12T15:07:02Z</time>
      </trkpt>
      <trkpt lat="48.08059" lon="7.11296">
        <ele>807</ele>
        <time>2019-04-12T15:08:02Z</time>
      </trkpt>
      <trkpt lat="48.08054" lon="7.11289">
        <ele>805</ele>
        <time>2019-04-12T15:09:02Z</time>
      </trkpt>
      <trkpt lat="48.0805" lon="7.11277">
        <ele>804</ele>
        <time>2019-04-12T15:10:02Z</time>
      </trkpt>
      <trkpt lat="48.08051" lon="7.11264">
        <ele>803</ele>
        <time>2019-04-12T15:11:02Z</time>
      </trkpt>
      <trkpt lat="48.08055" lon="7.11254">
        <ele>803</ele>
        <time>2019-04-12T15:12:02Z</time>
      </trkpt>
      <trkpt lat="48.08062" lon="7.1125">
        <ele>804</ele>
        <time>2019-04-12T15:13:02Z</time>
      </trkpt>
      <trkpt lat="48.08071" lon="7.11249">
        <ele>805</ele>
        <time>2019-04-12T15:14:02Z</time>
      </trkpt>
      <trkpt lat="48.08091" lon="7.1126">
        <ele>808</ele>
        <time>2019-04-12T15:15:02Z</time>
      </trkpt>
      <trkpt lat="48.08102" lon="7.11263">
        <ele>809</ele>
        <time>2019-04-12T15:16:02Z</time>
      </trkpt>
      <trkpt lat="48.08113" lon="7.11263">
        <ele>809</ele>
        <time>2019-04-12T15:17:02Z</time>
      </trkpt>
      <trkpt lat="48.08128" lon="7.11258">
        <ele>809</ele>
        <time>2019-04-12T15:18:02Z</time>
      </trkpt>
      <trkpt lat="48.08159" lon="7.11241">
        <ele>807</ele>
        <time>2019-04-12T15:19:02Z</time>
      </trkpt>
      <trkpt lat="48.08175" lon="7.11235">
        <ele>806</ele>
        <time>2019-04-12T15:20:02Z</time>
      </trkpt>
      <trkpt lat="48.08237" lon="7.11224">
        <ele>803</ele>
        <time>2019-04-12T15:21:02Z</time>
      </trkpt>
      <trkpt lat="48.08266" lon="7.1122">
        <ele>801</ele>
        <time>2019-04-12T15:22:02Z</time>
      </trkpt>
      <trkpt lat="48.083" lon="7.11221">
        <ele>799</ele>
        <time>2019-04-12T15:23:02Z</time>
      </trkpt>
      <trkpt lat="48.08347" lon="7.11229">
        <ele>800</ele>
        <time>2019-04-12T15:24:02Z</time>
      </trkpt>
      <trkpt lat="48.08364" lon="7.11226">
        <ele>799</ele>
        <time>2019-04-12T15:25:02Z</time>
      </trkpt>
      <trkpt lat="48.08392" lon="7.11218">
        <ele>798</ele>
        <time>2019-04-12T15:26:02Z</time>
      </trkpt>
      <trkpt lat="48.08454" lon="7.11193">
        <ele>800</ele>
        <time>2019-04-12T15:27:02Z</time>
      </trkpt>
      <trkpt lat="48.08463" lon="7.11185">
        <ele>800</ele>
        <time>2019-04-12T15:28:02Z</time>
      </trkpt>
      <trkpt lat="48.08469" lon="7.11174">
        <ele>799</ele>
        <time>2019-04-12T15:29:02Z</time>
      </trkpt>
      <trkpt lat="48.0847" lon="7.11165">
        <ele>798</ele>
        <time>2019-04-12T15:30:02Z</time>
      </trkpt>
      <trkpt lat="48.08467" lon="7.11155">
        <ele>797</ele>
        <time>2019-04-12T15:31:02Z</time>
      </trkpt>
      <trkpt lat="48.08462" lon="7.11149">
        <ele>796</ele>
        <time>2019-04-12T15:32:02Z</time>
      </trkpt>
      <trkpt lat="48.08455" lon="7.11149">
        <ele>794</ele>
        <time>2019-04-12T15:33:02Z</time>
      </trkpt>
      <trkpt lat="48.08432" lon="7.11171">
        <ele>790</ele>
        <time>2019-04-12T15:34:02Z</time>
      </trkpt>
      <trkpt lat="48.0842" lon="7.11177">
        <ele>789</ele>
        <time>2019-04-12T15:35:02Z</time>
      </trkpt>
      <trkpt lat="48.0838" lon="7.11184">
        <ele>788</ele>
        <time>2019-04-12T15:36:02Z</time>
      </trkpt>
      <trkpt lat="48.08359" lon="7.11184">
        <ele>787</ele>
        <time>2019-04-12T15:37:02Z</time>
      </trkpt>
      <trkpt lat="48.08342" lon="7.11179">
        <ele>784</ele>
        <time>2019-04-12T15:38:02Z</time>
      </trkpt>
      <trkpt lat="48.08326" lon="7.11168">
        <ele>781</ele>
        <time>2019-04-12T15:39:02Z</time>
      </trkpt>
      <trkpt lat="48.08238" lon="7.11094">
        <ele>771</ele>
        <time>2019-04-12T15:40:02Z</time>
      </trkpt>
      <trkpt lat="48.08146" lon="7.1099">
        <ele>762</ele>
        <time>2019-04-12T15:41:02Z</time>
      </trkpt>
      <trkpt lat="48.08082" lon="7.10909">
        <ele>755</ele>
        <time>2019-04-12T15:42:02Z</time>
      </trkpt>
      <trkpt lat="48.08038" lon="7.10872">
        <ele>751</ele>
        <time>2019-04-12T15:43:02Z</time>
      </trkpt>
      <trkpt lat="48.07998" lon="7.10842">
        <ele>748</ele>
        <time>2019-04-12T15:44:02Z</time>
      </trkpt>
      <trkpt lat="48.0797" lon="7.10828">
        <ele>746</ele>
        <time>2019-04-12T15:45:02Z</time>
      </trkpt>
      <trkpt lat="48.079" lon="7.10753">
        <ele>739</ele>
        <time>2019-04-12T15:46:02Z</time>
      </trkpt>
      <trkpt lat="48.07863" lon="7.10721">
        <ele>735</ele>
        <time>2019-04-12T15:47:02Z</time>
      </trkpt>
      <trkpt lat="48.07757" lon="7.10669">
        <ele>726</ele>
        <time>2019-04-12T15:48:02Z</time>
      </trkpt>
      <trkpt lat="48.07746" lon="7.10658">
        <ele>725</ele>
        <time>2019-04-12T15:49:02Z</time>
      </trkpt>
      <trkpt lat="48.07742" lon="7.10644">
        <ele>723</ele>
        <time>2019-04-12T15:50:02Z</time>
      </trkpt>
      <trkpt lat="48.07744" lon="7.10631">
        <ele>722</ele>
        <time>2019-04-12T15:51:02Z</time>
      </trkpt>
      <trkpt lat="48.07747" lon="7.10625">
        <ele>722</ele>
        <time>2019-04-12T15:52:02Z</time>
      </trkpt>
      <trkpt lat="48.07757" lon="7.10617">
        <ele>721</ele>
        <time>2019-04-12T15:53:02Z</time>
      </trkpt>
      <trkpt lat="48.07769" lon="7.10613">
        <ele>721</ele>
        <time>2019-04-12T15:54:02Z</time>
      </trkpt>
      <trkpt lat="48.07818" lon="7.10608">
        <ele>720</ele>
        <time>2019-04-12T15:55:02Z</time>
      </trkpt>
      <trkpt lat="48.07838" lon="7.10611">
        <ele>720</ele>
        <time>2019-04-12T15:56:02Z</time>
      </trkpt>
      <trkpt lat="48.07919" lon="7.10632">
        <ele>718</ele>
        <time>2019-04-12T15:57:02Z</time>
      </trkpt>
      <trkpt lat="48.07944" lon="7.1063">
        <ele>717</ele>
        <time>2019-04-12T15:58:02Z</time>
      </trkpt>
      <trkpt lat="48.07971" lon="7.10618">
        <ele>715</ele>
        <time>2019-04-12T15:59:02Z</time>
      </trkpt>
      <trkpt lat="48.07988" lon="7.10604">
        <ele>713</ele>
        <time>2019-04-12T16:00:02Z</time>
      </trkpt>
      <trkpt lat="48.08002" lon="7.10601">
        <ele>712</ele>
        <time>2019-04-12T16:01:02Z</time>
      </trkpt>
      <trkpt lat="48.08024" lon="7.10611">
        <ele>713</ele>
        <time>2019-04-12T16:02:02Z</time>
      </trkpt>
      <trkpt lat="48.08035" lon="7.1061">
        <ele>712</ele>
        <time>2019-04-12T16:03:02Z</time>
      </trkpt>
      <trkpt lat="48.08045" lon="7.10602">
        <ele>710</ele>
        <time>2019-04-12T16:04:02Z</time>
      </trkpt>
      <trkpt lat="48.08046" lon="7.10586">
        <ele>706</ele>
        <time>2019-04-12T16:05:02Z</time>
      </trkpt>
      <trkpt lat="48.08042" lon="7.10578">
        <ele>705</ele>
        <time>2019-04-12T16:06:02Z</time>
      </trkpt>
      <trkpt lat="48.08035" lon="7.10573">
        <ele>704</ele>
        <time>2019-04-12T16:07:02Z</time>
      </trkpt>
      <trkpt lat="48.08018" lon="7.10571">
        <ele>705</ele>
        <time>2019-04-12T16:08:02Z</time>
      </trkpt>
      <trkpt lat="48.07995" lon="7.10572">
        <ele>706</ele>
        <time>2019-04-12T16:09:02Z</time>
      </trkpt>
      <trkpt lat="48.07966" lon="7.10568">
        <ele>705</ele>
        <time>2019-04-12T16:10:02Z</time>
      </trkpt>
      <trkpt lat="48.07946" lon="7.10564">
        <ele>703</ele>
        <time>2019-04-12T16:11:02Z</time>
      </trkpt>
      <trkpt lat="48.0792" lon="7.10554">
        <ele>700</ele>
        <time>2019-04-12T16:12:02Z</time>
      </trkpt>
      <trkpt lat="48.07845" lon="7.10507">
        <ele>695</ele>
        <time>2019-04-12T16:13:02Z</time>
      </trkpt>
      <trkpt lat="48.07726" lon="7.10446">
        <ele>689</ele>
        <time>2019-04-12T16:14:02Z</time>
      </trkpt>
      <trkpt lat="48.07658" lon="7.10381">
        <ele>681</ele>
        <time>2019-04-12T16:15:02Z</time>
      </trkpt>
      <trkpt lat="48.07641" lon="7.10372">
        <ele>679</ele>
        <time>2019-04-12T16:16:02Z</time>
      </trkpt>
      <trkpt lat="48.07577" lon="7.10359">
        <ele>676</ele>
        <time>2019-04-12T16:17:02Z</time>
      </trkpt>
      <trkpt lat="48.07577" lon="7.10359">
        <ele>676</ele>
        <time>2019-04-12T16:18:02Z</time>
      </trkpt>
      <trkpt lat="48.07499" lon="7.10343">
        <ele>671</ele>
        <time>2019-04-12T16:19:02Z</time>
      </trkpt>
      <trkpt lat="48.07433" lon="7.10334">
        <ele>668</ele>
        <time>2019-04-12T16:20:02Z</time>
      </trkpt>
      <trkpt lat="48.07403" lon="7.10333">
        <ele>666</ele>
        <time>2019-04-12T16:21:02Z</time>
      </trkpt>
      <trkpt lat="48.07386" lon="7.10341">
        <ele>665</ele>
        <time>2019-04-12T16:22:02Z</time>
      </trkpt>
      <trkpt lat="48.07363" lon="7.10363">
        <ele>662</ele>
        <time>2019-04-12T16:23:02Z</time>
      </trkpt>
      <trkpt lat="48.07354" lon="7.10365">
        <ele>661</ele>
        <time>2019-04-12T16:24:02Z</time>
      </trkpt>
      <trkpt lat="48.07348" lon="7.1036">
        <ele>660</ele>
        <time>2019-04-12T16:25:02Z</time>
      </trkpt>
      <trkpt lat="48.07346" lon="7.1034">
        <ele>659</ele>
        <time>2019-04-12T16:26:02Z</time>
      </trkpt>
      <trkpt lat="48.07351" lon="7.10325">
        <ele>657</ele>
        <time>2019-04-12T16:27:02Z</time>
      </trkpt>
      <trkpt lat="48.07363" lon="7.10315">
        <ele>657</ele>
        <time>2019-04-12T16:28:02Z</time>
      </trkpt>
      <trkpt lat="48.07443" lon="7.10289">
        <ele>655</ele>
        <time>2019-04-12T16:29:02Z</time>
      </trkpt>
      <trkpt lat="48.07517" lon="7.1028">
        <ele>653</ele>
        <time>2019-04-12T16:30:02Z</time>
      </trkpt>
      <trkpt lat="48.07603" lon="7.10266">
        <ele>649</ele>
        <time>2019-04-12T16:31:02Z</time>
      </trkpt>
      <trkpt lat="48.07681" lon="7.1026">
        <ele>645</ele>
        <time>2019-04-12T16:32:02Z</time>
      </trkpt>
      <trkpt lat="48.07842" lon="7.10254">
        <ele>641</ele>
        <time>2019-04-12T16:33:02Z</time>
      </trkpt>
      <trkpt lat="48.07851" lon="7.10252">
        <ele>641</ele>
        <time>2019-04-12T16:34:02Z</time>
      </trkpt>
      <trkpt lat="48.07858" lon="7.10245">
        <ele>641</ele>
        <time>2019-04-12T16:35:02Z</time>
      </trkpt>
      <trkpt lat="48.07862" lon="7.10235">
        <ele>642</ele>
        <time>2019-04-12T16:36:02Z</time>
      </trkpt>
      <trkpt lat="48.07862" lon="7.10222">
        <ele>642</ele>
        <time>2019-04-12T16:37:02Z</time>
      </trkpt>
      <trkpt lat="48.07832" lon="7.10016">
        <ele>630</ele>
        <time>2019-04-12T16:38:02Z</time>
      </trkpt>
      <trkpt lat="48.07828" lon="7.09931">
        <ele>629</ele>
        <time>2019-04-12T16:39:02Z</time>
      </trkpt>
      <trkpt lat="48.07831" lon="7.09896">
        <ele>629</ele>
        <time>2019-04-12T16:40:02Z</time>
      </trkpt>
      <trkpt lat="48.0783" lon="7.09878">
        <ele>629</ele>
        <time>2019-04-12T16:41:02Z</time>
      </trkpt>
      <trkpt lat="48.07824" lon="7.09857">
        <ele>628</ele>
        <time>2019-04-12T16:42:02Z</time>
      </trkpt>
      <trkpt lat="48.07813" lon="7.0984">
        <ele>628</ele>
        <time>2019-04-12T16:43:02Z</time>
      </trkpt>
      <trkpt lat="48.07799" lon="7.09832">
        <ele>628</ele>
        <time>2019-04-12T16:44:02Z</time>
      </trkpt>
      <trkpt lat="48.07791" lon="7.09833">
        <ele>628</ele>
        <time>2019-04-12T16:45:02Z</time>
      </trkpt>
      <trkpt lat="48.07782" lon="7.09836">
        <ele>627</ele>
        <time>2019-04-12T16:46:02Z</time>
      </trkpt>
      <trkpt lat="48.07768" lon="7.09849">
        <ele>626</ele>
        <time>2019-04-12T16:47:02Z</time>
      </trkpt>
      <trkpt lat="48.07728" lon="7.09921">
        <ele>623</ele>
        <time>2019-04-12T16:48:02Z</time>
      </trkpt>
      <trkpt lat="48.07712" lon="7.09945">
        <ele>623</ele>
        <time>2019-04-12T16:49:02Z</time>
      </trkpt>
      <trkpt lat="48.07647" lon="7.10004">
        <ele>617</ele>
        <time>2019-04-12T16:50:02Z</time>
      </trkpt>
      <trkpt lat="48.07621" lon="7.10022">
        <ele>617</ele>
        <time>2019-04-12T16:51:02Z</time>
      </trkpt>
      <trkpt lat="48.07592" lon="7.10035">
        <ele>616</ele>
        <time>2019-04-12T16:52:02Z</time>
      </trkpt>
      <trkpt lat="48.07551" lon="7.10039">
        <ele>613</ele>
        <time>2019-04-12T16:53:02Z</time>
      </trkpt>
      <trkpt lat="48.07508" lon="7.10048">
        <ele>608</ele>
        <time>2019-04-12T16:54:02Z</time>
      </trkpt>
      <trkpt lat="48.07449" lon="7.1007">
        <ele>600</ele>
        <time>2019-04-12T16:55:02Z</time>
      </trkpt>
      <trkpt lat="48.07404" lon="7.10074">
        <ele>596</ele>
        <time>2019-04-12T16:56:02Z</time>
      </trkpt>
      <trkpt lat="48.07366" lon="7.10067">
        <ele>593</ele>
        <time>2019-04-12T16:57:02Z</time>
      </trkpt>
      <trkpt lat="48.07337" lon="7.10067">
        <ele>591</ele>
        <time>2019-04-12T16:58:02Z</time>
      </trkpt>
      <trkpt lat="48.07307" lon="7.10061">
        <ele>589</ele>
        <time>2019-04-12T16:59:02Z</time>
      </trkpt>
      <trkpt lat="48.07292" lon="7.10056">
        <ele>588</ele>
        <time>2019-04-12T17:00:02Z</time>
      </trkpt>
      <trkpt lat="48.07289" lon="7.10035">
        <ele>589</ele>
        <time>2019-04-12T17:01:02Z</time>
      </trkpt>
      <trkpt lat="48.07282" lon="7.10023">
        <ele>589</ele>
        <time>2019-04-12T17:02:02Z</time>
      </trkpt>
      <trkpt lat="48.07253" lon="7.10002">
        <ele>587</ele>
        <time>2019-04-12T17:03:02Z</time>
      </trkpt>
      <trkpt lat="48.07235" lon="7.09985">
        <ele>590</ele>
        <time>2019-04-12T17:04:02Z</time>
      </trkpt>
      <trkpt lat="48.07207" lon="7.0994">
        <ele>597</ele>
        <time>2019-04-12T17:05:02Z</time>
      </trkpt>
      <trkpt lat="48.07188" lon="7.09916">
        <ele>599</ele>
        <time>2019-04-12T17:06:02Z</time>
      </trkpt>
      <trkpt lat="48.07155" lon="7.09897">
        <ele>600</ele>
        <time>2019-04-12T17:07:02Z</time>
      </trkpt>
      <trkpt lat="48.07128" lon="7.09888">
        <ele>602</ele>
        <time>2019-04-12T17:08:02Z</time>
      </trkpt>
      <trkpt lat="48.07086" lon="7.09886">
        <ele>599</ele>
        <time>2019-04-12T17:09:02Z</time>
      </trkpt>
      <trkpt lat="48.06883" lon="7.0991">
        <ele>603</ele>
        <time>2019-04-12T17:10:02Z</time>
      </trkpt>
      <trkpt lat="48.06853" lon="7.09904">
        <ele>606</ele>
        <time>2019-04-12T17:11:02Z</time>
      </trkpt>
      <trkpt lat="48.06829" lon="7.09891">
        <ele>610</ele>
        <time>2019-04-12T17:12:02Z</time>
      </trkpt>
      <trkpt lat="48.06829" lon="7.09891">
        <ele>610</ele>
        <time>2019-04-12T17:13:02Z</time>
      </trkpt>
      <trkpt lat="48.06777" lon="7.09864">
        <ele>616</ele>
        <time>2019-04-12T17:14:02Z</time>
      </trkpt>
      <trkpt lat="48.0676" lon="7.09862">
        <ele>616</ele>
        <time>2019-04-12T17:15:02Z</time>
      </trkpt>
      <trkpt lat="48.06744" lon="7.09863">
        <ele>615</ele>
        <time>2019-04-12T17:16:02Z</time>
      </trkpt>
      <trkpt lat="48.06687" lon="7.0988">
        <ele>613</ele>
        <time>2019-04-12T17:17:02Z</time>
      </trkpt>
      <trkpt lat="48.06675" lon="7.09882">
        <ele>613</ele>
        <time>2019-04-12T17:18:02Z</time>
      </trkpt>
      <trkpt lat="48.06664" lon="7.0988">
        <ele>613</ele>
        <time>2019-04-12T17:19:02Z</time>
      </trkpt>
      <trkpt lat="48.06648" lon="7.09871">
        <ele>612</ele>
        <time>2019-04-12T17:20:02Z</time>
      </trkpt>
      <trkpt lat="48.06641" lon="7.09862">
        <ele>613</ele>
        <time>2019-04-12T17:21:02Z</time>
      </trkpt>
      <trkpt lat="48.06636" lon="7.09847">
        <ele>614</ele>
        <time>2019-04-12T17:22:02Z</time>
      </trkpt>
      <trkpt lat="48.06634" lon="7.09833">
        <ele>616</ele>
        <time>2019-04-12T17:23:02Z</time>
      </trkpt>
      <trkpt lat="48.06635" lon="7.0982">
        <ele>616</ele>
        <time>2019-04-12T17:24:02Z</time>
      </trkpt>
      <trkpt lat="48.06637" lon="7.09808">
        <ele>616</ele>
        <time>2019-04-12T17:25:02Z</time>
      </trkpt>
      <trkpt lat="48.06658" lon="7.09764">
        <ele>621</ele>
        <time>2019-04-12T17:26:02Z</time>
      </trkpt>
      <trkpt lat="48.06667" lon="7.09742">
        <ele>623</ele>
        <time>2019-04-12T17:27:02Z</time>
      </trkpt>
      <trkpt lat="48.06674" lon="7.0971">
        <ele>624</ele>
        <time>2019-04-12T17:28:02Z</time>
      </trkpt>
      <trkpt lat="48.06678" lon="7.09676">
        <ele>625</ele>
        <time>2019-04-12T17:29:02Z</time>
      </trkpt>
      <trkpt lat="48.06678" lon="7.09643">
        <ele>626</ele>
        <time>2019-04-12T17:30:02Z</time>
      </trkpt>
      <trkpt lat="48.06658" lon="7.09444">
        <ele>640</ele>
        <time>2019-04-12T17:31:02Z</time>
      </trkpt>
      <trkpt lat="48.06655" lon="7.09431">
        <ele>642</ele>
        <time>2019-04-12T17:32:02Z</time>
      </trkpt>
      <trkpt lat="48.06649" lon="7.09418">
        <ele>644</ele>
        <time>2019-04-12T17:33:02Z</time>
      </trkpt>
      <trkpt lat="48.0664" lon="7.09407">
        <ele>646</ele>
        <time>2019-04-12T17:34:02Z</time>
      </trkpt>
      <trkpt lat="48.06629" lon="7.09401">
        <ele>646</ele>
        <time>2019-04-12T17:35:02Z</time>
      </trkpt>
      <trkpt lat="48.06616" lon="7.09401">
        <ele>645</ele>
        <time>2019-04-12T17:36:02Z</time>
      </trkpt>
      <trkpt lat="48.06586" lon="7.09419">
        <ele>638</ele>
        <time>2019-04-12T17:37:02Z</time>
      </trkpt>
      <trkpt lat="48.06573" lon="7.09421">
        <ele>638</ele>
        <time>2019-04-12T17:38:02Z</time>
      </trkpt>
      <trkpt lat="48.06562" lon="7.09418">
        <ele>639</ele>
        <time>2019-04-12T17:39:02Z</time>
      </trkpt>
      <trkpt lat="48.06532" lon="7.09398">
        <ele>646</ele>
        <time>2019-04-12T17:40:02Z</time>
      </trkpt>
      <trkpt lat="48.06522" lon="7.09394">
        <ele>648</ele>
        <time>2019-04-12T17:41:02Z</time>
      </trkpt>
      <trkpt lat="48.06501" lon="7.09393">
        <ele>649</ele>
        <time>2019-04-12T17:42:02Z</time>
      </trkpt>
      <trkpt lat="48.06487" lon="7.09397">
        <ele>651</ele>
        <time>2019-04-12T17:43:02Z</time>
      </trkpt>
      <trkpt lat="48.06409" lon="7.09434">
        <ele>656</ele>
        <time>2019-04-12T17:44:02Z</time>
      </trkpt>
      <trkpt lat="48.06375" lon="7.09447">
        <ele>653</ele>
        <time>2019-04-12T17:45:02Z</time>
      </trkpt>
      <trkpt lat="48.06358" lon="7.0945">
        <ele>652</ele>
        <time>2019-04-12T17:46:02Z</time>
      </trkpt>
      <trkpt lat="48.06343" lon="7.0945">
        <ele>652</ele>
        <time>2019-04-12T17:47:02Z</time>
      </trkpt>
      <trkpt lat="48.06323" lon="7.09445">
        <ele>653</ele>
        <time>2019-04-12T17:48:02Z</time>
      </trkpt>
      <trkpt lat="48.06311" lon="7.09439">
        <ele>653</ele>
        <time>2019-04-12T17:49:02Z</time>
      </trkpt>
      <trkpt lat="48.06296" lon="7.09427">
        <ele>654</ele>
        <time>2019-04-12T17:50:02Z</time>
      </trkpt>
      <trkpt lat="48.0628" lon="7.09408">
        <ele>656</ele>
        <time>2019-04-12T17:51:02Z</time>
      </trkpt>
      <trkpt lat="48.06271" lon="7.09392">
        <ele>657</ele>
        <time>2019-04-12T17:52:02Z</time>
      </trkpt>
      <trkpt lat="48.06246" lon="7.09338">
        <ele>664</ele>
        <time>2019-04-12T17:53:02Z</time>
      </trkpt>
      <trkpt lat="48.06236" lon="7.09323">
        <ele>667</ele>
        <time>2019-04-12T17:54:02Z</time>
      </trkpt>
      <trkpt lat="48.06224" lon="7.09314">
        <ele>669</ele>
        <time>2019-04-12T17:55:02Z</time>
      </trkpt>
      <trkpt lat="48.06207" lon="7.09309">
        <ele>669</ele>
        <time>2019-04-12T17:56:02Z</time>
      </trkpt>
      <trkpt lat="48.06192" lon="7.09311">
        <ele>667</ele>
        <time>2019-04-12T17:57:02Z</time>
      </trkpt>
      <trkpt lat="48.06181" lon="7.09314">
        <ele>666</ele>
        <time>2019-04-12T17:58:02Z</time>
      </trkpt>
      <trkpt lat="48.06147" lon="7.09338">
        <ele>660</ele>
        <time>2019-04-12T17:59:02Z</time>
      </trkpt>
      <trkpt lat="48.06128" lon="7.09345">
        <ele>660</ele>
        <time>2019-04-12T18:00:02Z</time>
      </trkpt>
      <trkpt lat="48.06111" lon="7.09345">
        <ele>661</ele>
        <time>2019-04-12T18:01:02Z</time>
      </trkpt>
      <trkpt lat="48.06087" lon="7.09338">
        <ele>664</ele>
        <time>2019-04-12T18:02:02Z</time>
      </trkpt>
      <trkpt lat="48.06063" lon="7.09322">
        <ele>665</ele>
        <time>2019-04-12T18:03:02Z</time>
      </trkpt>
      <trkpt lat="48.06037" lon="7.09297">
        <ele>667</ele>
        <time>2019-04-12T18:04:02Z</time>
      </trkpt>
      <trkpt lat="48.06016" lon="7.09273">
        <ele>670</ele>
        <time>2019-04-12T18:05:02Z</time>
      </trkpt>
      <trkpt lat="48.06002" lon="7.09254">
        <ele>672</ele>
        <time>2019-04-12T18:06:02Z</time>
      </trkpt>
      <trkpt lat="48.05977" lon="7.09205">
        <ele>674</ele>
        <time>2019-04-12T18:07:02Z</time>
      </trkpt>
      <trkpt lat="48.05968" lon="7.09179">
        <ele>676</ele>
        <time>2019-04-12T18:08:02Z</time>
      </trkpt>
      <trkpt lat="48.05959" lon="7.09144">
        <ele>677</ele>
        <time>2019-04-12T18:09:02Z</time>
      </trkpt>
      <trkpt lat="48.05956" lon="7.09123">
        <ele>677</ele>
        <time>2019-04-12T18:10:02Z</time>
      </trkpt>
      <trkpt lat="48.05954" lon="7.09098">
        <ele>677</ele>
        <time>2019-04-12T18:11:02Z</time>
      </trkpt>
      <trkpt lat="48.05957" lon="7.09068">
        <ele>678</ele>
        <time>2019-04-12T18:12:02Z</time>
      </trkpt>
      <trkpt lat="48.05961" lon="7.09052">
        <ele>679</ele>
        <time>2019-04-12T18:13:02Z</time>
      </trkpt>
      <trkpt lat="48.05968" lon="7.09034">
        <ele>681</ele>
        <time>2019-04-12T18:14:02Z</time>
      </trkpt>
      <trkpt lat="48.06019" lon="7.0894">
        <ele>692</ele>
        <time>2019-04-12T18:15:02Z</time>
      </trkpt>
      <trkpt lat="48.06029" lon="7.08915">
        <ele>694</ele>
        <time>2019-04-12T18:16:02Z</time>
      </trkpt>
      <trkpt lat="48.06029" lon="7.08915">
        <ele>694</ele>
        <time>2019-04-12T18:17:02Z</time>
      </trkpt>
      <trkpt lat="48.06043" lon="7.0888">
        <ele>695</ele>
        <time>2019-04-12T18:18:02Z</time>
      </trkpt>
      <trkpt lat="48.06057" lon="7.08828">
        <ele>697</ele>
        <time>2019-04-12T18:19:02Z</time>
      </trkpt>
      <trkpt lat="48.06061" lon="7.08803">
        <ele>699</ele>
        <time>2019-04-12T18:20:02Z</time>
      </trkpt>
      <trkpt lat="48.06063" lon="7.08777">
        <ele>699</ele>
        <time>2019-04-12T18:21:02Z</time>
      </trkpt>
      <trkpt lat="48.06062" lon="7.08698">
        <ele>699</ele>
        <time>2019-04-12T18:22:02Z</time>
      </trkpt>
      <trkpt lat="48.06063" lon="7.0867">
        <ele>699</ele>
        <time>2019-04-12T18:23:02Z</time>
      </trkpt>
      <trkpt lat="48.06082" lon="7.08502">
        <ele>706</ele>
        <time>2019-04-12T18:24:02Z</time>
      </trkpt>
      <trkpt lat="48.0609" lon="7.08456">
        <ele>706</ele>
        <time>2019-04-12T18:25:02Z</time>
      </trkpt>
      <trkpt lat="48.06121" lon="7.0836">
        <ele>710</ele>
        <time>2019-04-12T18:26:02Z</time>
      </trkpt>
      <trkpt lat="48.06128" lon="7.08328">
        <ele>711</ele>
        <time>2019-04-12T18:27:02Z</time>
      </trkpt>
      <trkpt lat="48.06143" lon="7.08234">
        <ele>710</ele>
        <time>2019-04-12T18:28:02Z</time>
      </trkpt>
      <trkpt lat="48.06147" lon="7.08216">
        <ele>709</ele>
        <time>2019-04-12T18:29:02Z</time>
      </trkpt>
      <trkpt lat="48.06155" lon="7.08199">
        <ele>710</ele>
        <time>2019-04-12T18:30:02Z</time>
      </trkpt>
      <trkpt lat="48.06169" lon="7.08184">
        <ele>713</ele>
        <time>2019-04-12T18:31:02Z</time>
      </trkpt>
      <trkpt lat="48.06185" lon="7.08171">
        <ele>715</ele>
        <time>2019-04-12T18:32:02Z</time>
      </trkpt>
      <trkpt lat="48.0622" lon="7.0815">
        <ele>718</ele>
        <time>2019-04-12T18:33:02Z</time>
      </trkpt>
      <trkpt lat="48.06244" lon="7.08143">
        <ele>722</ele>
        <time>2019-04-12T18:34:02Z</time>
      </trkpt>
      <trkpt lat="48.06301" lon="7.08151">
        <ele>734</ele>
        <time>2019-04-12T18:35:02Z</time>
      </trkpt>
      <trkpt lat="48.06329" lon="7.08137">
        <ele>737</ele>
        <time>2019-04-12T18:36:02Z</time>
      </trkpt>
      <trkpt lat="48.0634" lon="7.08123">
        <ele>739</ele>
        <time>2019-04-12T18:37:02Z</time>
      </trkpt>
      <trkpt lat="48.06349" lon="7.081">
        <ele>738</ele>
        <time>2019-04-12T18:38:02Z</time>
      </trkpt>
      <trkpt lat="48.06353" lon="7.08079">
        <ele>737</ele>
        <time>2019-04-12T18:39:02Z</time>
      </trkpt>
      <trkpt lat="48.06354" lon="7.08066">
        <ele>737</ele>
        <time>2019-04-12T18:40:02Z</time>
      </trkpt>
      <trkpt lat="48.06351" lon="7.08013">
        <ele>732</ele>
        <time>2019-04-12T18:41:02Z</time>
      </trkpt>
      <trkpt lat="48.06354" lon="7.07985">
        <ele>732</ele>
        <time>2019-04-12T18:42:02Z</time>
      </trkpt>
      <trkpt lat="48.06366" lon="7.0793">
        <ele>734</ele>
        <time>2019-04-12T18:43:02Z</time>
      </trkpt>
      <trkpt lat="48.064" lon="7.07804">
        <ele>737</ele>
        <time>2019-04-12T18:44:02Z</time>
      </trkpt>
      <trkpt lat="48.06415" lon="7.07775">
        <ele>738</ele>
        <time>2019-04-12T18:45:02Z</time>
      </trkpt>
      <trkpt lat="48.06428" lon="7.07762">
        <ele>738</ele>
        <time>2019-04-12T18:46:02Z</time>
      </trkpt>
      <trkpt lat="48.06444" lon="7.0775">
        <ele>739</ele>
        <time>2019-04-12T18:47:02Z</time>
      </trkpt>
      <trkpt lat="48.06467" lon="7.07739">
        <ele>740</ele>
        <time>2019-04-12T18:48:02Z</time>
      </trkpt>
      <trkpt lat="48.0658" lon="7.07708">
        <ele>754</ele>
        <time>2019-04-12T18:49:02Z</time>
      </trkpt>
      <trkpt lat="48.06645" lon="7.07675">
        <ele>759</ele>
        <time>2019-04-12T18:50:02Z</time>
      </trkpt>
      <trkpt lat="48.0666" lon="7.07663">
        <ele>759</ele>
        <time>2019-04-12T18:51:02Z</time>
      </trkpt>
      <trkpt lat="48.06675" lon="7.07649">
        <ele>760</ele>
        <time>2019-04-12T18:52:02Z</time>
      </trkpt>
      <trkpt lat="48.06726" lon="7.07577">
        <ele>763</ele>
        <time>2019-04-12T18:53:02Z</time>
      </trkpt>
      <trkpt lat="48.06752" lon="7.07549">
        <ele>765</ele>
        <time>2019-04-12T18:54:02Z</time>
      </trkpt>
      <trkpt lat="48.06774" lon="7.07542">
        <ele>767</ele>
        <time>2019-04-12T18:55:02Z</time>
      </trkpt>
      <trkpt lat="48.06821" lon="7.07536">
        <ele>773</ele>
        <time>2019-04-12T18:56:02Z</time>
      </trkpt>
      <trkpt lat="48.06857" lon="7.07543">
        <ele>779</ele>
        <time>2019-04-12T18:57:02Z</time>
      </trkpt>
      <trkpt lat="48.06874" lon="7.07542">
        <ele>781</ele>
        <time>2019-04-12T18:58:02Z</time>
      </trkpt>
      <trkpt lat="48.06888" lon="7.07526">
        <ele>781</ele>
        <time>2019-04-12T18:59:02Z</time>
      </trkpt>
      <trkpt lat="48.06893" lon="7.07509">
        <ele>780</ele>
        <time>2019-04-12T19:00:02Z</time>
      </trkpt>
      <trkpt lat="48.06895" lon="7.07487">
        <ele>781</ele>
        <time>2019-04-12T19:01:02Z</time>
      </trkpt>
      <trkpt lat="48.06891" lon="7.07467">
        <ele>783</ele>
        <time>2019-04-12T19:02:02Z</time>
      </trkpt>
      <trkpt lat="48.06876" lon="7.0744">
        <ele>783</ele>
        <time>2019-04-12T19:03:02Z</time>
      </trkpt>
      <trkpt lat="48.06835" lon="7.07345">
        <ele>785</ele>
        <time>2019-04-12T19:04:02Z</time>
      </trkpt>
      <trkpt lat="48.06769" lon="7.07266">
        <ele>783</ele>
        <time>2019-04-12T19:05:02Z</time>
      </trkpt>
      <trkpt lat="48.06755" lon="7.07231">
        <ele>784</ele>
        <time>2019-04-12T19:06:02Z</time>
      </trkpt>
      <trkpt lat="48.06746" lon="7.07192">
        <ele>786</ele>
        <time>2019-04-12T19:07:02Z</time>
      </trkpt>
      <trkpt lat="48.06734" lon="7.07084">
        <ele>797</ele>
        <time>2019-04-12T19:08:02Z</time>
      </trkpt>
      <trkpt lat="48.06735" lon="7.07043">
        <ele>802</ele>
        <time>2019-04-12T19:09:02Z</time>
      </trkpt>
      <trkpt lat="48.06731" lon="7.07019">
        <ele>805</ele>
        <time>2019-04-12T19:10:02Z</time>
      </trkpt>
      <trkpt lat="48.06719" lon="7.06996">
        <ele>808</ele>
        <time>2019-04-12T19:11:02Z</time>
      </trkpt>
      <trkpt lat="48.06704" lon="7.06991">
        <ele>809</ele>
        <time>2019-04-12T19:12:02Z</time>
      </trkpt>
      <trkpt lat="48.06689" lon="7.06995">
        <ele>808</ele>
        <time>2019-04-12T19:13:02Z</time>
      </trkpt>
      <trkpt lat="48.06668" lon="7.07022">
        <ele>803</ele>
        <time>2019-04-12T19:14:02Z</time>
      </trkpt>
      <trkpt lat="48.06639" lon="7.07062">
        <ele>797</ele>
        <time>2019-04-12T19:15:02Z</time>
      </trkpt>
      <trkpt lat="48.06616" lon="7.07073">
        <ele>796</ele>
        <time>2019-04-12T19:16:02Z</time>
      </trkpt>
      <trkpt lat="48.06602" lon="7.07067">
        <ele>797</ele>
        <time>2019-04-12T19:17:02Z</time>
      </trkpt>
      <trkpt lat="48.0653" lon="7.06992">
        <ele>805</ele>
        <time>2019-04-12T19:18:02Z</time>
      </trkpt>
      <trkpt lat="48.06481" lon="7.06928">
        <ele>808</ele>
        <time>2019-04-12T19:19:02Z</time>
      </trkpt>
      <trkpt lat="48.06463" lon="7.06895">
        <ele>810</ele>
        <time>2019-04-12T19:20:02Z</time>
      </trkpt>
      <trkpt lat="48.06456" lon="7.06868">
        <ele>811</ele>
        <time>2019-04-12T19:21:02Z</time>
      </trkpt>
      <trkpt lat="48.06451" lon="7.0676">
        <ele>820</ele>
        <time>2019-04-12T19:22:02Z</time>
      </trkpt>
      <trkpt lat="48.06441" lon="7.06717">
        <ele>822</ele>
        <time>2019-04-12T19:23:02Z</time>
      </trkpt>
      <trkpt lat="48.06375" lon="7.06518">
        <ele>829</ele>
        <time>2019-04-12T19:24:02Z</time>
      </trkpt>
      <trkpt lat="48.06359" lon="7.06474">
        <ele>831</ele>
        <time>2019-04-12T19:25:02Z</time>
      </trkpt>
      <trkpt lat="48.06347" lon="7.06409">
        <ele>834</ele>
        <time>2019-04-12T19:26:02Z</time>
      </trkpt>
      <trkpt lat="48.06337" lon="7.06339">
        <ele>832</ele>
        <time>2019-04-12T19:27:02Z</time>
      </trkpt>
      <trkpt lat="48.06335" lon="7.06294">
        <ele>832</ele>
        <time>2019-04-12T19:28:02Z</time>
      </trkpt>
      <trkpt lat="48.06341" lon="7.0625">
        <ele>834</ele>
        <time>2019-04-12T19:29:02Z</time>
      </trkpt>
      <trkpt lat="48.06362" lon="7.06168">
        <ele>839</ele>
        <time>2019-04-12T19:30:02Z</time>
      </trkpt>
      <trkpt lat="48.06383" lon="7.06101">
        <ele>840</ele>
        <time>2019-04-12T19:31:02Z</time>
      </trkpt>
      <trkpt lat="48.06426" lon="7.06033">
        <ele>844</ele>
        <time>2019-04-12T19:32:02Z</time>
      </trkpt>
      <trkpt lat="48.06452" lon="7.06006">
        <ele>844</ele>
        <time>2019-04-12T19:33:02Z</time>
      </trkpt>
      <trkpt lat="48.06481" lon="7.05995">
        <ele>847</ele>
        <time>2019-04-12T19:34:02Z</time>
      </trkpt>
      <trkpt lat="48.06509" lon="7.06005">
        <ele>852</ele>
        <time>2019-04-12T19:35:02Z</time>
      </trkpt>
      <trkpt lat="48.06594" lon="7.06042">
        <ele>859</ele>
        <time>2019-04-12T19:36:02Z</time>
      </trkpt>
      <trkpt lat="48.06648" lon="7.06046">
        <ele>864</ele>
        <time>2019-04-12T19:37:02Z</time>
      </trkpt>
      <trkpt lat="48.06696" lon="7.06031">
        <ele>866</ele>
        <time>2019-04-12T19:38:02Z</time>
      </trkpt>
      <trkpt lat="48.06755" lon="7.06">
        <ele>869</ele>
        <time>2019-04-12T19:39:02Z</time>
      </trkpt>
      <trkpt lat="48.06773" lon="7.0598">
        <ele>873</ele>
        <time>2019-04-12T19:40:02Z</time>
      </trkpt>
      <trkpt lat="48.0678" lon="7.05956">
        <ele>874</ele>
        <time>2019-04-12T19:41:02Z</time>
      </trkpt>
      <trkpt lat="48.06778" lon="7.0593">
        <ele>873</ele>
        <time>2019-04-12T19:42:02Z</time>
      </trkpt>
      <trkpt lat="48.06768" lon="7.05913">
        <ele>872</ele>
        <time>2019-04-12T19:43:02Z</time>
      </trkpt>
      <trkpt lat="48.06744" lon="7.05893">
        <ele>871</ele>
        <time>2019-04-12T19:44:02Z</time>
      </trkpt>
      <trkpt lat="48.06715" lon="7.05859">
        <ele>871</ele>
        <time>2019-04-12T19:45:02Z</time>
      </trkpt>
      <trkpt lat="48.06694" lon="7.05819">
        <ele>873</ele>
        <time>2019-04-12T19:46:02Z</time>
      </trkpt>
      <trkpt lat="48.06684" lon="7.05784">
        <ele>874</ele>
        <time>2019-04-12T19:47:02Z</time>
      </trkpt>
      <trkpt lat="48.06684" lon="7.05749">
        <ele>876</ele>
        <time>2019-04-12T19:48:02Z</time>
      </trkpt>
      <trkpt lat="48.06698" lon="7.05682">
        <ele>877</ele>
        <time>2019-04-12T19:49:02Z</time>
      </trkpt>
      <trkpt lat="48.06733" lon="7.05567">
        <ele>880</ele>
        <time>2019-04-12T19:50:02Z</time>
      </trkpt>
      <trkpt lat="48.06742" lon="7.05548">
        <ele>881</ele>
        <time>2019-04-12T19:51:02Z</time>
      </trkpt>
      <trkpt lat="48.06775" lon="7.0549">
        <ele>885</ele>
        <time>2019-04-12T19:52:02Z</time>
      </trkpt>
      <trkpt lat="48.06791" lon="7.05469">
        <ele>889</ele>
        <time>2019-04-12T19:53:02Z</time>
      </trkpt>
      <trkpt lat="48.06803" lon="7.05449">
        <ele>892</ele>
        <time>2019-04-12T19:54:02Z</time>
      </trkpt>
      <trkpt lat="48.06838" lon="7.05364">
        <ele>898</ele>
        <time>2019-04-12T19:55:02Z</time>
      </trkpt>
      <trkpt lat="48.06845" lon="7.05327">
        <ele>898</ele>
        <time>2019-04-12T19:56:02Z</time>
      </trkpt>
      <trkpt lat="48.06858" lon="7.05162">
        <ele>907</ele>
        <time>2019-04-12T19:57:02Z</time>
      </trkpt>
      <trkpt lat="48.06868" lon="7.05102">
        <ele>908</ele>
        <time>2019-04-12T19:58:02Z</time>
      </trkpt>
      <trkpt lat="48.06912" lon="7.04887">
        <ele>914</ele>
        <time>2019-04-12T19:59:02Z</time>
      </trkpt>
      <trkpt lat="48.0691" lon="7.04818">
        <ele>915</ele>
        <time>2019-04-12T20:00:02Z</time>
      </trkpt>
      <trkpt lat="48.06897" lon="7.04767">
        <ele>915</ele>
        <time>2019-04-12T20:01:02Z</time>
      </trkpt>
      <trkpt lat="48.06878" lon="7.04728">
        <ele>915</ele>
        <time>2019-04-12T20:02:02Z</time>
      </trkpt>
      <trkpt lat="48.06855" lon="7.04708">
        <ele>916</ele>
        <time>2019-04-12T20:03:02Z</time>
      </trkpt>
      <trkpt lat="48.06832" lon="7.04706">
        <ele>917</ele>
        <time>2019-04-12T20:04:02Z</time>
      </trkpt>
      <trkpt lat="48.06806" lon="7.04719">
        <ele>923</ele>
        <time>2019-04-12T20:05:02Z</time>
      </trkpt>
      <trkpt lat="48.06748" lon="7.04793">
        <ele>927</ele>
        <time>2019-04-12T20:06:02Z</time>
      </trkpt>
      <trkpt lat="48.06724" lon="7.04812">
        <ele>926</ele>
        <time>2019-04-12T20:07:02Z</time>
      </trkpt>
      <trkpt lat="48.06701" lon="7.04819">
        <ele>926</ele>
        <time>2019-04-12T20:08:02Z</time>
      </trkpt>
      <trkpt lat="48.06666" lon="7.04809">
        <ele>929</ele>
        <time>2019-04-12T20:09:02Z</time>
      </trkpt>
      <trkpt lat="48.06598" lon="7.04767">
        <ele>937</ele>
        <time>2019-04-12T20:10:02Z</time>
      </trkpt>
      <trkpt lat="48.06576" lon="7.04762">
        <ele>940</ele>
        <time>2019-04-12T20:11:02Z</time>
      </trkpt>
      <trkpt lat="48.06555" lon="7.04767">
        <ele>943</ele>
        <time>2019-04-12T20:12:02Z</time>
      </trkpt>
      <trkpt lat="48.06555" lon="7.04767">
        <ele>943</ele>
        <time>2019-04-12T20:13:02Z</time>
      </trkpt>
      <trkpt lat="48.0652" lon="7.048">
        <ele>945</ele>
        <time>2019-04-12T20:14:02Z</time>
      </trkpt>
      <trkpt lat="48.06494" lon="7.04834">
        <ele>943</ele>
        <time>2019-04-12T20:15:02Z</time>
      </trkpt>
      <trkpt lat="48.06469" lon="7.04851">
        <ele>942</ele>
        <time>2019-04-12T20:16:02Z</time>
      </trkpt>
      <trkpt lat="48.06446" lon="7.04856">
        <ele>943</ele>
        <time>2019-04-12T20:17:02Z</time>
      </trkpt>
      <trkpt lat="48.06422" lon="7.04849">
        <ele>944</ele>
        <time>2019-04-12T20:18:02Z</time>
      </trkpt>
      <trkpt lat="48.06399" lon="7.04828">
        <ele>946</ele>
        <time>2019-04-12T20:19:02Z</time>
      </trkpt>
      <trkpt lat="48.06363" lon="7.04749">
        <ele>956</ele>
        <time>2019-04-12T20:20:02Z</time>
      </trkpt>
      <trkpt lat="48.06342" lon="7.04729">
        <ele>960</ele>
        <time>2019-04-12T20:21:02Z</time>
      </trkpt>
      <trkpt lat="48.06314" lon="7.04722">
        <ele>961</ele>
        <time>2019-04-12T20:22:02Z</time>
      </trkpt>
      <trkpt lat="48.06227" lon="7.04724">
        <ele>960</ele>
        <time>2019-04-12T20:23:02Z</time>
      </trkpt>
      <trkpt lat="48.06167" lon="7.04728">
        <ele>960</ele>
        <time>2019-04-12T20:24:02Z</time>
      </trkpt>
      <trkpt lat="48.0615" lon="7.04723">
        <ele>960</ele>
        <time>2019-04-12T20:25:02Z</time>
      </trkpt>
      <trkpt lat="48.06138" lon="7.04705">
        <ele>964</ele>
        <time>2019-04-12T20:26:02Z</time>
      </trkpt>
      <trkpt lat="48.06135" lon="7.04688">
        <ele>967</ele>
        <time>2019-04-12T20:27:02Z</time>
      </trkpt>
      <trkpt lat="48.06139" lon="7.04671">
        <ele>971</ele>
        <time>2019-04-12T20:28:02Z</time>
      </trkpt>
      <trkpt lat="48.06146" lon="7.04661">
        <ele>974</ele>
        <time>2019-04-12T20:29:02Z</time>
      </trkpt>
      <trkpt lat="48.06161" lon="7.0466">
        <ele>975</ele>
        <time>2019-04-12T20:30:02Z</time>
      </trkpt>
      <trkpt lat="48.06181" lon="7.04668">
        <ele>974</ele>
        <time>2019-04-12T20:31:02Z</time>
      </trkpt>
      <trkpt lat="48.06202" lon="7.04682">
        <ele>970</ele>
        <time>2019-04-12T20:32:02Z</time>
      </trkpt>
      <trkpt lat="48.06216" lon="7.04688">
        <ele>969</ele>
        <time>2019-04-12T20:33:02Z</time>
      </trkpt>
      <trkpt lat="48.06239" lon="7.04689">
        <ele>969</ele>
        <time>2019-04-12T20:34:02Z</time>
      </trkpt>
      <trkpt lat="48.06262" lon="7.04685">
        <ele>970</ele>
        <time>2019-04-12T20:35:02Z</time>
      </trkpt>
      <trkpt lat="48.06297" lon="7.04674">
        <ele>973</ele>
        <time>2019-04-12T20:36:02Z</time>
      </trkpt>
      <trkpt lat="48.06334" lon="7.04666">
        <ele>975</ele>
        <time>2019-04-12T20:37:02Z</time>
      </trkpt>
      <trkpt lat="48.0638" lon="7.04666">
        <ele>977</ele>
        <time>2019-04-12T20:38:02Z</time>
      </trkpt>
      <trkpt lat="48.06435" lon="7.04678">
        <ele>975</ele>
        <time>2019-04-12T20:39:02Z</time>
      </trkpt>
      <trkpt lat="48.06455" lon="7.04678">
        <ele>974</ele>
        <time>2019-04-12T20:40:02Z</time>
      </trkpt>
      <trkpt lat="48.06487" lon="7.04666">
        <ele>977</ele>
        <time>2019-04-12T20:41:02Z</time>
      </trkpt>
      <trkpt lat="48.0651" lon="7.04646">
        <ele>980</ele>
        <time>2019-04-12T20:42:02Z</time>
      </trkpt>
      <trkpt lat="48.0653" lon="7.04624">
        <ele>982</ele>
        <time>2019-04-12T20:43:02Z</time>
      </trkpt>
      <trkpt lat="48.06589" lon="7.04542">
        <ele>987</ele>
        <time>2019-04-12T20:44:02Z</time>
      </trkpt>
      <trkpt lat="48.06655" lon="7.04433">
        <ele>989</ele>
        <time>2019-04-12T20:45:02Z</time>
      </trkpt>
      <trkpt lat="48.06671" lon="7.04399">
        <ele>989</ele>
        <time>2019-04-12T20:46:02Z</time>
      </trkpt>
      <trkpt lat="48.06698" lon="7.04293">
        <ele>998</ele>
        <time>2019-04-12T20:47:02Z</time>
      </trkpt>
      <trkpt lat="48.06724" lon="7.04235">
        <ele>1000</ele>
        <time>2019-04-12T20:48:02Z</time>
      </trkpt>
      <trkpt lat="48.06768" lon="7.04168">
        <ele>1000</ele>
        <time>2019-04-12T20:49:02Z</time>
      </trkpt>
      <trkpt lat="48.06829" lon="7.03998">
        <ele>1012</ele>
        <time>2019-04-12T20:50:02Z</time>
      </trkpt>
      <trkpt lat="48.06862" lon="7.03892">
        <ele>1018</ele>
        <time>2019-04-12T20:51:02Z</time>
      </trkpt>
      <trkpt lat="48.06868" lon="7.03868">
        <ele>1018</ele>
        <time>2019-04-12T20:52:02Z</time>
      </trkpt>
      <trkpt lat="48.06863" lon="7.03834">
        <ele>1017</ele>
        <time>2019-04-12T20:53:02Z</time>
      </trkpt>
      <trkpt lat="48.06849" lon="7.03808">
        <ele>1014</ele>
        <time>2019-04-12T20:54:02Z</time>
      </trkpt>
      <trkpt lat="48.06822" lon="7.03796">
        <ele>1013</ele>
        <time>2019-04-12T20:55:02Z</time>
      </trkpt>
      <trkpt lat="48.06797" lon="7.03814">
        <ele>1017</ele>
        <time>2019-04-12T20:56:02Z</time>
      </trkpt>
      <trkpt lat="48.06781" lon="7.03856">
        <ele>1020</ele>
        <time>2019-04-12T20:57:02Z</time>
      </trkpt>
      <trkpt lat="48.0677" lon="7.03896">
        <ele>1021</ele>
        <time>2019-04-12T20:58:02Z</time>
      </trkpt>
      <trkpt lat="48.06763" lon="7.03968">
        <ele>1018</ele>
        <time>2019-04-12T20:59:02Z</time>
      </trkpt>
      <trkpt lat="48.06755" lon="7.04005">
        <ele>1016</ele>
        <time>2019-04-12T21:00:02Z</time>
      </trkpt>
      <trkpt lat="48.0667" lon="7.0421">
        <ele>1020</ele>
        <time>2019-04-12T21:01:02Z</time>
      </trkpt>
      <trkpt lat="48.06656" lon="7.04223">
        <ele>1022</ele>
        <time>2019-04-12T21:02:02Z</time>
      </trkpt>
      <trkpt lat="48.06626" lon="7.04237">
        <ele>1029</ele>
        <time>2019-04-12T21:03:02Z</time>
      </trkpt>
      <trkpt lat="48.06606" lon="7.04261">
        <ele>1031</ele>
        <time>2019-04-12T21:04:02Z</time>
      </trkpt>
      <trkpt lat="48.06584" lon="7.04314">
        <ele>1031</ele>
        <time>2019-04-12T21:05:02Z</time>
      </trkpt>
      <trkpt lat="48.06572" lon="7.04335">
        <ele>1031</ele>
        <time>2019-04-12T21:06:02Z</time>
      </trkpt>
      <trkpt lat="48.06527" lon="7.04379">
        <ele>1033</ele>
        <time>2019-04-12T21:07:02Z</time>
      </trkpt>
      <trkpt lat="48.06504" lon="7.04383">
        <ele>1037</ele>
        <time>2019-04-12T21:08:02Z</time>
      </trkpt>
      <trkpt lat="48.06466" lon="7.04366">
        <ele>1043</ele>
        <time>2019-04-12T21:09:02Z</time>
      </trkpt>
      <trkpt lat="48.0643" lon="7.04363">
        <ele>1046</ele>
        <time>2019-04-12T21:10:02Z</time>
      </trkpt>
      <trkpt lat="48.0635" lon="7.04367">
        <ele>1051</ele>
        <time>2019-04-12T21:11:02Z</time>
      </trkpt>
      <trkpt lat="48.06296" lon="7.04365">
        <ele>1053</ele>
        <time>2019-04-12T21:12:02Z</time>
      </trkpt>
      <trkpt lat="48.06193" lon="7.04326">
        <ele>1060</ele>
        <time>2019-04-12T21:13:02Z</time>
      </trkpt>
      <trkpt lat="48.06162" lon="7.04322">
        <ele>1059</ele>
        <time>2019-04-12T21:14:02Z</time>
      </trkpt>
      <trkpt lat="48.06111" lon="7.04324">
        <ele>1052</ele>
        <time>2019-04-12T21:15:02Z</time>
      </trkpt>
      <trkpt lat="48.06094" lon="7.04316">
        <ele>1051</ele>
        <time>2019-04-12T21:16:02Z</time>
      </trkpt>
      <trkpt lat="48.0608" lon="7.04298">
        <ele>1053</ele>
        <time>2019-04-12T21:17:02Z</time>
      </trkpt>
      <trkpt lat="48.06044" lon="7.04175">
        <ele>1050</ele>
        <time>2019-04-12T21:18:02Z</time>
      </trkpt>
      <trkpt lat="48.06046" lon="7.04158">
        <ele>1049</ele>
        <time>2019-04-12T21:19:02Z</time>
      </trkpt>
      <trkpt lat="48.06054" lon="7.04144">
        <ele>1050</ele>
        <time>2019-04-12T21:20:02Z</time>
      </trkpt>
      <trkpt lat="48.06089" lon="7.04112">
        <ele>1064</ele>
        <time>2019-04-12T21:21:02Z</time>
      </trkpt>
      <trkpt lat="48.06107" lon="7.04087">
        <ele>1068</ele>
        <time>2019-04-12T21:22:02Z</time>
      </trkpt>
      <trkpt lat="48.06149" lon="7.04001">
        <ele>1071</ele>
        <time>2019-04-12T21:23:02Z</time>
      </trkpt>
      <trkpt lat="48.06167" lon="7.03972">
        <ele>1072</ele>
        <time>2019-04-12T21:24:02Z</time>
      </trkpt>
      <trkpt lat="48.06231" lon="7.03897">
        <ele>1081</ele>
        <time>2019-04-12T21:25:02Z</time>
      </trkpt>
      <trkpt lat="48.06282" lon="7.03819">
        <ele>1085</ele>
        <time>2019-04-12T21:26:02Z</time>
      </trkpt>
      <trkpt lat="48.06303" lon="7.03735">
        <ele>1084</ele>
        <time>2019-04-12T21:27:02Z</time>
      </trkpt>
      <trkpt lat="48.06307" lon="7.03712">
        <ele>1083</ele>
        <time>2019-04-12T21:28:02Z</time>
      </trkpt>
      <trkpt lat="48.06307" lon="7.03685">
        <ele>1079</ele>
        <time>2019-04-12T21:29:02Z</time>
      </trkpt>
      <trkpt lat="48.06313" lon="7.03664">
        <ele>1080</ele>
        <time>2019-04-12T21:30:02Z</time>
      </trkpt>
      <trkpt lat="48.06362" lon="7.03581">
        <ele>1092</ele>
        <time>2019-04-12T21:31:02Z</time>
      </trkpt>
      <trkpt lat="48.06369" lon="7.03566">
        <ele>1095</ele>
        <time>2019-04-12T21:32:02Z</time>
      </trkpt>
      <trkpt lat="48.06377" lon="7.03537">
        <ele>1099</ele>
        <time>2019-04-12T21:33:02Z</time>
      </trkpt>
      <trkpt lat="48.06379" lon="7.03512">
        <ele>1098</ele>
        <time>2019-04-12T21:34:02Z</time>
      </trkpt>
      <trkpt lat="48.06377" lon="7.03462">
        <ele>1100</ele>
        <time>2019-04-12T21:35:02Z</time>
      </trkpt>
      <trkpt lat="48.06372" lon="7.03447">
        <ele>1098</ele>
        <time>2019-04-12T21:36:02Z</time>
      </trkpt>
      <trkpt lat="48.06358" lon="7.03417">
        <ele>1090</ele>
        <time>2019-04-12T21:37:02Z</time>
      </trkpt>
      <trkpt lat="48.06354" lon="7.03404">
        <ele>1088</ele>
        <time>2019-04-12T21:38:02Z</time>
      </trkpt>
      <trkpt lat="48.06352" lon="7.03386">
        <ele>1088</ele>
        <time>2019-04-12T21:39:02Z</time>
      </trkpt>
      <trkpt lat="48.06363" lon="7.03264">
        <ele>1098</ele>
        <time>2019-04-12T21:40:02Z</time>
      </trkpt>
      <trkpt lat="48.06372" lon="7.03216">
        <ele>1103</ele>
        <time>2019-04-12T21:41:02Z</time>
      </trkpt>
      <trkpt lat="48.06389" lon="7.03161">
        <ele>1117</ele>
        <time>2019-04-12T21:42:02Z</time>
      </trkpt>
      <trkpt lat="48.06391" lon="7.03148">
        <ele>1119</ele>
        <time>2019-04-12T21:43:02Z</time>
      </trkpt>
      <trkpt lat="48.06386" lon="7.03111">
        <ele>1116</ele>
        <time>2019-04-12T21:44:02Z</time>
      </trkpt>
      <trkpt lat="48.06372" lon="7.03045">
        <ele>1099</ele>
        <time>2019-04-12T21:45:02Z</time>
      </trkpt>
      <trkpt lat="48.06372" lon="7.03034">
        <ele>1098</ele>
        <time>2019-04-12T21:46:02Z</time>
      </trkpt>
      <trkpt lat="48.06398" lon="7.02953">
        <ele>1115</ele>
        <time>2019-04-12T21:47:02Z</time>
      </trkpt>
      <trkpt lat="48.0642" lon="7.02842">
        <ele>1130</ele>
        <time>2019-04-12T21:48:02Z</time>
      </trkpt>
      <trkpt lat="48.06422" lon="7.02825">
        <ele>1132</ele>
        <time>2019-04-12T21:49:02Z</time>
      </trkpt>
      <trkpt lat="48.06422" lon="7.02806">
        <ele>1132</ele>
        <time>2019-04-12T21:50:02Z</time>
      </trkpt>
      <trkpt lat="48.06411" lon="7.02646">
        <ele>1139</ele>
        <time>2019-04-12T21:51:02Z</time>
      </trkpt>
      <trkpt lat="48.06408" lon="7.02631">
        <ele>1139</ele>
        <time>2019-04-12T21:52:02Z</time>
      </trkpt>
      <trkpt lat="48.06399" lon="7.02596">
        <ele>1138</ele>
        <time>2019-04-12T21:53:02Z</time>
      </trkpt>
      <trkpt lat="48.0639" lon="7.02541">
        <ele>1140</ele>
        <time>2019-04-12T21:54:02Z</time>
      </trkpt>
      <trkpt lat="48.06369" lon="7.02468">
        <ele>1142</ele>
        <time>2019-04-12T21:55:02Z</time>
      </trkpt>
      <trkpt lat="48.06365" lon="7.0245">
        <ele>1144</ele>
        <time>2019-04-12T21:56:02Z</time>
      </trkpt>
      <trkpt lat="48.06361" lon="7.0241">
        <ele>1148</ele>
        <time>2019-04-12T21:57:02Z</time>
      </trkpt>
      <trkpt lat="48.06364" lon="7.02369">
        <ele>1148</ele>
        <time>2019-04-12T21:58:02Z</time>
      </trkpt>
      <trkpt lat="48.06373" lon="7.02316">
        <ele>1146</ele>
        <time>2019-04-12T21:59:02Z</time>
      </trkpt>
      <trkpt lat="48.06378" lon="7.02267">
        <ele>1142</ele>
        <time>2019-04-12T22:00:02Z</time>
      </trkpt>
      <trkpt lat="48.06376" lon="7.02244">
        <ele>1141</ele>
        <time>2019-04-12T22:01:02Z</time>
      </trkpt>
      <trkpt lat="48.0637" lon="7.02222">
        <ele>1139</ele>
        <time>2019-04-12T22:02:02Z</time>
      </trkpt>
      <trkpt lat="48.06361" lon="7.02201">
        <ele>1138</ele>
        <time>2019-04-12T22:03:02Z</time>
      </trkpt>
      <trkpt lat="48.06317" lon="7.02133">
        <ele>1136</ele>
        <time>2019-04-12T22:04:02Z</time>
      </trkpt>
      <trkpt lat="48.06298" lon="7.02107">
        <ele>1136</ele>
        <time>2019-04-12T22:05:02Z</time>
      </trkpt>
      <trkpt lat="48.06288" lon="7.02098">
        <ele>1137</ele>
        <time>2019-04-12T22:06:02Z</time>
      </trkpt>
      <trkpt lat="48.06281" lon="7.02094">
        <ele>1137</ele>
        <time>2019-04-12T22:07:02Z</time>
      </trkpt>
      <trkpt lat="48.06252" lon="7.02089">
        <ele>1139</ele>
        <time>2019-04-12T22:08:02Z</time>
      </trkpt>
      <trkpt lat="48.06242" lon="7.0208">
        <ele>1140</ele>
        <time>2019-04-12T22:09:02Z</time>
      </trkpt>
      <trkpt lat="48.06238" lon="7.02062">
        <ele>1141</ele>
        <time>2019-04-12T22:10:02Z</time>
      </trkpt>
      <trkpt lat="48.06239" lon="7.02048">
        <ele>1141</ele>
        <time>2019-04-12T22:11:02Z</time>
      </trkpt>
      <trkpt lat="48.0625" lon="7.02028">
        <ele>1140</ele>
        <time>2019-04-12T22:12:02Z</time>
      </trkpt>
      <trkpt lat="48.06264" lon="7.02008">
        <ele>1138</ele>
        <time>2019-04-12T22:13:02Z</time>
      </trkpt>
      <trkpt lat="48.06272" lon="7.01992">
        <ele>1137</ele>
        <time>2019-04-12T22:14:02Z</time>
      </trkpt>
      <trkpt lat="48.06277" lon="7.01975">
        <ele>1137</ele>
        <time>2019-04-12T22:15:02Z</time>
      </trkpt>
      <trkpt lat="48.06266" lon="7.01962">
        <ele>1138</ele>
        <time>2019-04-12T22:16:02Z</time>
      </trkpt>
      <trkpt lat="48.06257" lon="7.01941">
        <ele>1139</ele>
        <time>2019-04-12T22:17:02Z</time>
      </trkpt>
      <trkpt lat="48.06254" lon="7.01931">
        <ele>1140</ele>
        <time>2019-04-12T22:18:02Z</time>
      </trkpt>
      <trkpt lat="48.06236" lon="7.0173">
        <ele>1145</ele>
        <time>2019-04-12T22:19:02Z</time>
      </trkpt>
      <trkpt lat="48.0623" lon="7.01705">
        <ele>1145</ele>
        <time>2019-04-12T22:20:02Z</time>
      </trkpt>
      <trkpt lat="48.06226" lon="7.01699">
        <ele>1146</ele>
        <time>2019-04-12T22:21:02Z</time>
      </trkpt>
      <trkpt lat="48.06215" lon="7.01695">
        <ele>1148</ele>
        <time>2019-04-12T22:22:02Z</time>
      </trkpt>
      <trkpt lat="48.06207" lon="7.01698">
        <ele>1150</ele>
        <time>2019-04-12T22:23:02Z</time>
      </trkpt>
      <trkpt lat="48.06203" lon="7.01705">
        <ele>1152</ele>
        <time>2019-04-12T22:24:02Z</time>
      </trkpt>
      <trkpt lat="48.062" lon="7.01723">
        <ele>1153</ele>
        <time>2019-04-12T22:25:02Z</time>
      </trkpt>
      <trkpt lat="48.06198" lon="7.01871">
        <ele>1153</ele>
        <time>2019-04-12T22:26:02Z</time>
      </trkpt>
      <trkpt lat="48.06196" lon="7.01905">
        <ele>1153</ele>
        <time>2019-04-12T22:27:02Z</time>
      </trkpt>
      <trkpt lat="48.06193" lon="7.01914">
        <ele>1154</ele>
        <time>2019-04-12T22:28:02Z</time>
      </trkpt>
      <trkpt lat="48.06189" lon="7.01921">
        <ele>1154</ele>
        <time>2019-04-12T22:29:02Z</time>
      </trkpt>
      <trkpt lat="48.06183" lon="7.01925">
        <ele>1156</ele>
        <time>2019-04-12T22:30:02Z</time>
      </trkpt>
      <trkpt lat="48.06177" lon="7.01925">
        <ele>1157</ele>
        <time>2019-04-12T22:31:02Z</time>
      </trkpt>
      <trkpt lat="48.06172" lon="7.01922">
        <ele>1158</ele>
        <time>2019-04-12T22:32:02Z</time>
      </trkpt>
      <trkpt lat="48.06163" lon="7.0191">
        <ele>1161</ele>
        <time>2019-04-12T22:33:02Z</time>
      </trkpt>
      <trkpt lat="48.06159" lon="7.01888">
        <ele>1162</ele>
        <time>2019-04-12T22:34:02Z</time>
      </trkpt>
      <trkpt lat="48.06153" lon="7.01761">
        <ele>1164</ele>
        <time>2019-04-12T22:35:02Z</time>
      </trkpt>
      <trkpt lat="48.06148" lon="7.01713">
        <ele>1164</ele>
        <time>2019-04-12T22:36:02Z</time>
      </trkpt>
      <trkpt lat="48.06141" lon="7.01684">
        <ele>1166</ele>
        <time>2019-04-12T22:37:02Z</time>
      </trkpt>
      <trkpt lat="48.06125" lon="7.01647">
        <ele>1168</ele>
        <time>2019-04-12T22:38:02Z</time>
      </trkpt>
      <trkpt lat="48.06103" lon="7.01615">
        <ele>1172</ele>
        <time>2019-04-12T22:39:02Z</time>
      </trkpt>
      <trkpt lat="48.06103" lon="7.01615">
        <ele>1172</ele>
        <time>2019-04-12T22:40:02Z</time>
      </trkpt>
      <trkpt lat="48.06067" lon="7.01562">
        <ele>1176</ele>
        <time>2019-04-12T22:41:02Z</time>
      </trkpt>
      <trkpt lat="48.06004" lon="7.01511">
        <ele>1183</ele>
        <time>2019-04-12T22:42:02Z</time>
      </trkpt>
      <trkpt lat="48.05915" lon="7.0146">
        <ele>1191</ele>
        <time>2019-04-12T22:43:02Z</time>
      </trkpt>
      <trkpt lat="48.05843" lon="7.01438">
        <ele>1194</ele>
        <time>2019-04-12T22:44:02Z</time>
      </trkpt>
      <trkpt lat="48.0577" lon="7.01433">
        <ele>1199</ele>
        <time>2019-04-12T22:45:02Z</time>
      </trkpt>
      <trkpt lat="48.05714" lon="7.01434">
        <ele>1204</ele>
        <time>2019-04-12T22:46:02Z</time>
      </trkpt>
      <trkpt lat="48.05681" lon="7.01427">
        <ele>1206</ele>
        <time>2019-04-12T22:47:02Z</time>
      </trkpt>
      <trkpt lat="48.0565" lon="7.01406">
        <ele>1207</ele>
        <time>2019-04-12T22:48:02Z</time>
      </trkpt>
      <trkpt lat="48.05611" lon="7.01372">
        <ele>1208</ele>
        <time>2019-04-12T22:49:02Z</time>
      </trkpt>
      <trkpt lat="48.05566" lon="7.01344">
        <ele>1212</ele>
        <time>2019-04-12T22:50:02Z</time>
      </trkpt>
      <trkpt lat="48.05529" lon="7.0133">
        <ele>1213</ele>
        <time>2019-04-12T22:51:02Z</time>
      </trkpt>
      <trkpt lat="48.0551" lon="7.01325">
        <ele>1214</ele>
        <time>2019-04-12T22:52:02Z</time>
      </trkpt>
      <trkpt lat="48.05497" lon="7.01325">
        <ele>1215</ele>
        <time>2019-04-12T22:53:02Z</time>
      </trkpt>
      <trkpt lat="48.05481" lon="7.01329">
        <ele>1216</ele>
        <time>2019-04-12T22:54:02Z</time>
      </trkpt>
      <trkpt lat="48.05461" lon="7.01339">
        <ele>1217</ele>
        <time>2019-04-12T22:55:02Z</time>
      </trkpt>
      <trkpt lat="48.05383" lon="7.01397">
        <ele>1224</ele>
        <time>2019-04-12T22:56:02Z</time>
      </trkpt>
      <trkpt lat="48.05364" lon="7.01409">
        <ele>1224</ele>
        <time>2019-04-12T22:57:02Z</time>
      </trkpt>
      <trkpt lat="48.05341" lon="7.01421">
        <ele>1225</ele>
        <time>2019-04-12T22:58:02Z</time>
      </trkpt>
      <trkpt lat="48.05239" lon="7.01455">
        <ele>1229</ele>
        <time>2019-04-12T22:59:02Z</time>
      </trkpt>
      <trkpt lat="48.05209" lon="7.01459">
        <ele>1230</ele>
        <time>2019-04-12T23:00:02Z</time>
      </trkpt>
      <trkpt lat="48.05186" lon="7.01457">
        <ele>1230</ele>
        <time>2019-04-12T23:01:02Z</time>
      </trkpt>
      <trkpt lat="48.0515" lon="7.01448">
        <ele>1231</ele>
        <time>2019-04-12T23:02:02Z</time>
      </trkpt>
      <trkpt lat="48.05133" lon="7.01438">
        <ele>1232</ele>
        <time>2019-04-12T23:03:02Z</time>
      </trkpt>
      <trkpt lat="48.05119" lon="7.01423">
        <ele>1233</ele>
        <time>2019-04-12T23:04:02Z</time>
      </trkpt>
      <trkpt lat="48.05103" lon="7.01394">
        <ele>1234</ele>
        <time>2019-04-12T23:05:02Z</time>
      </trkpt>
      <trkpt lat="48.05097" lon="7.01371">
        <ele>1233</ele>
        <time>2019-04-12T23:06:02Z</time>
      </trkpt>
      <trkpt lat="48.05095" lon="7.01351">
        <ele>1233</ele>
        <time>2019-04-12T23:07:02Z</time>
      </trkpt>
      <trkpt lat="48.0508" lon="7.01162">
        <ele>1230</ele>
        <time>2019-04-12T23:08:02Z</time>
      </trkpt>
      <trkpt lat="48.05073" lon="7.01113">
        <ele>1230</ele>
        <time>2019-04-12T23:09:02Z</time>
      </trkpt>
      <trkpt lat="48.05068" lon="7.01088">
        <ele>1230</ele>
        <time>2019-04-12T23:10:02Z</time>
      </trkpt>
      <trkpt lat="48.05059" lon="7.01064">
        <ele>1229</ele>
        <time>2019-04-12T23:11:02Z</time>
      </trkpt>
      <trkpt lat="48.05054" lon="7.01054">
        <ele>1228</ele>
        <time>2019-04-12T23:12:02Z</time>
      </trkpt>
      <trkpt lat="48.05043" lon="7.01043">
        <ele>1228</ele>
        <time>2019-04-12T23:13:02Z</time>
      </trkpt>
      <trkpt lat="48.05027" lon="7.01033">
        <ele>1229</ele>
        <time>2019-04-12T23:14:02Z</time>
      </trkpt>
      <trkpt lat="48.04987" lon="7.0102">
        <ele>1232</ele>
        <time>2019-04-12T23:15:02Z</time>
      </trkpt>
      <trkpt lat="48.0496" lon="7.01006">
        <ele>1233</ele>
        <time>2019-04-12T23:16:02Z</time>
      </trkpt>
      <trkpt lat="48.04855" lon="7.00914">
        <ele>1229</ele>
        <time>2019-04-12T23:17:02Z</time>
      </trkpt>
      <trkpt lat="48.04783" lon="7.00864">
        <ele>1230</ele>
        <time>2019-04-12T23:18:02Z</time>
      </trkpt>
      <trkpt lat="48.04697" lon="7.00814">
        <ele>1232</ele>
        <time>2019-04-12T23:19:02Z</time>
      </trkpt>
      <trkpt lat="48.04662" lon="7.00798">
        <ele>1232</ele>
        <time>2019-04-12T23:20:02Z</time>
      </trkpt>
      <trkpt lat="48.04623" lon="7.00786">
        <ele>1234</ele>
        <time>2019-04-12T23:21:02Z</time>
      </trkpt>
      <trkpt lat="48.04605" lon="7.00775">
        <ele>1234</ele>
        <time>2019-04-12T23:22:02Z</time>
      </trkpt>
      <trkpt lat="48.0458" lon="7.0075">
        <ele>1232</ele>
        <time>2019-04-12T23:23:02Z</time>
      </trkpt>
      <trkpt lat="48.0454" lon="7.007">
        <ele>1231</ele>
        <time>2019-04-12T23:24:02Z</time>
      </trkpt>
      <trkpt lat="48.04528" lon="7.00689">
        <ele>1232</ele>
        <time>2019-04-12T23:25:02Z</time>
      </trkpt>
      <trkpt lat="48.04485" lon="7.00662">
        <ele>1237</ele>
        <time>2019-04-12T23:26:02Z</time>
      </trkpt>
      <trkpt lat="48.04467" lon="7.00646">
        <ele>1237</ele>
        <time>2019-04-12T23:27:02Z</time>
      </trkpt>
      <trkpt lat="48.04452" lon="7.00629">
        <ele>1236</ele>
        <time>2019-04-12T23:28:02Z</time>
      </trkpt>
      <trkpt lat="48.04421" lon="7.00585">
        <ele>1233</ele>
        <time>2019-04-12T23:29:02Z</time>
      </trkpt>
      <trkpt lat="48.04386" lon="7.0055">
        <ele>1234</ele>
        <time>2019-04-12T23:30:02Z</time>
      </trkpt>
      <trkpt lat="48.04344" lon="7.00494">
        <ele>1233</ele>
        <time>2019-04-12T23:31:02Z</time>
      </trkpt>
      <trkpt lat="48.04316" lon="7.00461">
        <ele>1231</ele>
        <time>2019-04-12T23:32:02Z</time>
      </trkpt>
      <trkpt lat="48.04302" lon="7.00448">
        <ele>1230</ele>
        <time>2019-04-12T23:33:02Z</time>
      </trkpt>
      <trkpt lat="48.04288" lon="7.0044">
        <ele>1230</ele>
        <time>2019-04-12T23:34:02Z</time>
      </trkpt>
      <trkpt lat="48.04268" lon="7.00437">
        <ele>1232</ele>
        <time>2019-04-12T23:35:02Z</time>
      </trkpt>
      <trkpt lat="48.04234" lon="7.00442">
        <ele>1234</ele>
        <time>2019-04-12T23:36:02Z</time>
      </trkpt>
      <trkpt lat="48.04212" lon="7.00452">
        <ele>1235</ele>
        <time>2019-04-12T23:37:02Z</time>
      </trkpt>
      <trkpt lat="48.04146" lon="7.00487">
        <ele>1236</ele>
        <time>2019-04-12T23:38:02Z</time>
      </trkpt>
      <trkpt lat="48.04128" lon="7.00505">
        <ele>1237</ele>
        <time>2019-04-12T23:39:02Z</time>
      </trkpt>
      <trkpt lat="48.04041" lon="7.00609">
        <ele>1236</ele>
        <time>2019-04-12T23:40:02Z</time>
      </trkpt>
      <trkpt lat="48.04008" lon="7.00661">
        <ele>1235</ele>
        <time>2019-04-12T23:41:02Z</time>
      </trkpt>
      <trkpt lat="48.03997" lon="7.00683">
        <ele>1235</ele>
        <time>2019-04-12T23:42:02Z</time>
      </trkpt>
      <trkpt lat="48.03975" lon="7.00739">
        <ele>1238</ele>
        <time>2019-04-12T23:43:02Z</time>
      </trkpt>
      <trkpt lat="48.03963" lon="7.00761">
        <ele>1239</ele>
        <time>2019-04-12T23:44:02Z</time>
      </trkpt>
      <trkpt lat="48.03951" lon="7.00772">
        <ele>1239</ele>
        <time>2019-04-12T23:45:02Z</time>
      </trkpt>
      <trkpt lat="48.03939" lon="7.00779">
        <ele>1238</ele>
        <time>2019-04-12T23:46:02Z</time>
      </trkpt>
      <trkpt lat="48.03885" lon="7.00796">
        <ele>1237</ele>
        <time>2019-04-12T23:47:02Z</time>
      </trkpt>
      <trkpt lat="48.03851" lon="7.008">
        <ele>1237</ele>
        <time>2019-04-12T23:48:02Z</time>
      </trkpt>
      <trkpt lat="48.03774" lon="7.00806">
        <ele>1239</ele>
        <time>2019-04-12T23:49:02Z</time>
      </trkpt>
      <trkpt lat="48.03754" lon="7.00803">
        <ele>1240</ele>
        <time>2019-04-12T23:50:02Z</time>
      </trkpt>
      <trkpt lat="48.03693" lon="7.00787">
        <ele>1240</ele>
        <time>2019-04-12T23:51:02Z</time>
      </trkpt>
      <trkpt lat="48.03677" lon="7.00786">
        <ele>1240</ele>
        <time>2019-04-12T23:52:02Z</time>
      </trkpt>
      <trkpt lat="48.03635" lon="7.00791">
        <ele>1243</ele>
        <time>2019-04-12T23:53:02Z</time>
      </trkpt>
      <trkpt lat="48.03614" lon="7.00791">
        <ele>1244</ele>
        <time>2019-04-12T23:54:02Z</time>
      </trkpt>
      <trkpt lat="48.03587" lon="7.00782">
        <ele>1244</ele>
        <time>2019-04-12T23:55:02Z</time>
      </trkpt>
      <trkpt lat="48.03568" lon="7.00767">
        <ele>1246</ele>
        <time>2019-04-12T23:56:02Z</time>
      </trkpt>
      <trkpt lat="48.03542" lon="7.00728">
        <ele>1247</ele>
        <time>2019-04-12T23:57:02Z</time>
      </trkpt>
      <trkpt lat="48.03498" lon="7.0065">
        <ele>1250</ele>
        <time>2019-04-12T23:58:02Z</time>
      </trkpt>
      <trkpt lat="48.03448" lon="7.00557">
        <ele>1253</ele>
        <time>2019-04-12T23:59:02Z</time>
      </trkpt>
      <trkpt lat="48.03438" lon="7.00531">
        <ele>1253</ele>
        <time>2019-04-13T00:00:02Z</time>
      </trkpt>
      <trkpt lat="48.03412" lon="7.00406">
        <ele>1252</ele>
        <time>2019-04-13T00:01:02Z</time>
      </trkpt>
      <trkpt lat="48.034" lon="7.0037">
        <ele>1253</ele>
        <time>2019-04-13T00:02:02Z</time>
      </trkpt>
      <trkpt lat="48.034" lon="7.0037">
        <ele>1253</ele>
        <time>2019-04-13T00:03:02Z</time>
      </trkpt>
      <trkpt lat="48.03363" lon="7.00281">
        <ele>1255</ele>
        <time>2019-04-13T00:04:02Z</time>
      </trkpt>
      <trkpt lat="48.03336" lon="7.0023">
        <ele>1257</ele>
        <time>2019-04-13T00:05:02Z</time>
      </trkpt>
      <trkpt lat="48.03295" lon="7.00164">
        <ele>1257</ele>
        <time>2019-04-13T00:06:02Z</time>
      </trkpt>
      <trkpt lat="48.03281" lon="7.00146">
        <ele>1257</ele>
        <time>2019-04-13T00:07:02Z</time>
      </trkpt>
      <trkpt lat="48.03269" lon="7.00137">
        <ele>1257</ele>
        <time>2019-04-13T00:08:02Z</time>
      </trkpt>
      <trkpt lat="48.03255" lon="7.00133">
        <ele>1257</ele>
        <time>2019-04-13T00:09:02Z</time>
      </trkpt>
      <trkpt lat="48.0323" lon="7.00141">
        <ele>1257</ele>
        <time>2019-04-13T00:10:02Z</time>
      </trkpt>
      <trkpt lat="48.03195" lon="7.00177">
        <ele>1257</ele>
        <time>2019-04-13T00:11:02Z</time>
      </trkpt>
      <trkpt lat="48.03177" lon="7.00201">
        <ele>1258</ele>
        <time>2019-04-13T00:12:02Z</time>
      </trkpt>
      <trkpt lat="48.03136" lon="7.0028">
        <ele>1258</ele>
        <time>2019-04-13T00:13:02Z</time>
      </trkpt>
      <trkpt lat="48.03047" lon="7.00382">
        <ele>1253</ele>
        <time>2019-04-13T00:14:02Z</time>
      </trkpt>
      <trkpt lat="48.03036" lon="7.00404">
        <ele>1253</ele>
        <time>2019-04-13T00:15:02Z</time>
      </trkpt>
      <trkpt lat="48.03021" lon="7.00438">
        <ele>1254</ele>
        <time>2019-04-13T00:16:02Z</time>
      </trkpt>
      <trkpt lat="48.03008" lon="7.00453">
        <ele>1253</ele>
        <time>2019-04-13T00:17:02Z</time>
      </trkpt>
      <trkpt lat="48.02996" lon="7.00461">
        <ele>1253</ele>
        <time>2019-04-13T00:18:02Z</time>
      </trkpt>
      <trkpt lat="48.02981" lon="7.00464">
        <ele>1253</ele>
        <time>2019-04-13T00:19:02Z</time>
      </trkpt>
      <trkpt lat="48.02971" lon="7.00463">
        <ele>1253</ele>
        <time>2019-04-13T00:20:02Z</time>
      </trkpt>
      <trkpt lat="48.0296" lon="7.00457">
        <ele>1253</ele>
        <time>2019-04-13T00:21:02Z</time>
      </trkpt>
      <trkpt lat="48.02951" lon="7.0045">
        <ele>1252</ele>
        <time>2019-04-13T00:22:02Z</time>
      </trkpt>
      <trkpt lat="48.02888" lon="7.00378">
        <ele>1251</ele>
        <time>2019-04-13T00:23:02Z</time>
      </trkpt>
      <trkpt lat="48.0287" lon="7.00349">
        <ele>1253</ele>
        <time>2019-04-13T00:24:02Z</time>
      </trkpt>
      <trkpt lat="48.02857" lon="7.00322">
        <ele>1254</ele>
        <time>2019-04-13T00:25:02Z</time>
      </trkpt>
      <trkpt lat="48.02849" lon="7.00297">
        <ele>1254</ele>
        <time>2019-04-13T00:26:02Z</time>
      </trkpt>
      <trkpt lat="48.02819" lon="7.00076">
        <ele>1247</ele>
        <time>2019-04-13T00:27:02Z</time>
      </trkpt>
      <trkpt lat="48.02808" lon="7.00004">
        <ele>1246</ele>
        <time>2019-04-13T00:28:02Z</time>
      </trkpt>
      <trkpt lat="48.02798" lon="6.9996">
        <ele>1243</ele>
        <time>2019-04-13T00:29:02Z</time>
      </trkpt>
      <trkpt lat="48.02767" lon="6.99867">
        <ele>1239</ele>
        <time>2019-04-13T00:30:02Z</time>
      </trkpt>
      <trkpt lat="48.0272" lon="6.99766">
        <ele>1240</ele>
        <time>2019-04-13T00:31:02Z</time>
      </trkpt>
      <trkpt lat="48.02695" lon="6.99721">
        <ele>1239</ele>
        <time>2019-04-13T00:32:02Z</time>
      </trkpt>
      <trkpt lat="48.02685" lon="6.9971">
        <ele>1238</ele>
        <time>2019-04-13T00:33:02Z</time>
      </trkpt>
      <trkpt lat="48.0266" lon="6.99694">
        <ele>1240</ele>
        <time>2019-04-13T00:34:02Z</time>
      </trkpt>
      <trkpt lat="48.02615" lon="6.99675">
        <ele>1244</ele>
        <time>2019-04-13T00:35:02Z</time>
      </trkpt>
      <trkpt lat="48.02605" lon="6.99668">
        <ele>1245</ele>
        <time>2019-04-13T00:36:02Z</time>
      </trkpt>
      <trkpt lat="48.02594" lon="6.9965">
        <ele>1245</ele>
        <time>2019-04-13T00:37:02Z</time>
      </trkpt>
      <trkpt lat="48.0257" lon="6.996">
        <ele>1244</ele>
        <time>2019-04-13T00:38:02Z</time>
      </trkpt>
      <trkpt lat="48.02552" lon="6.99567">
        <ele>1243</ele>
        <time>2019-04-13T00:39:02Z</time>
      </trkpt>
      <trkpt lat="48.02537" lon="6.99546">
        <ele>1242</ele>
        <time>2019-04-13T00:40:02Z</time>
      </trkpt>
      <trkpt lat="48.02494" lon="6.99493">
        <ele>1241</ele>
        <time>2019-04-13T00:41:02Z</time>
      </trkpt>
      <trkpt lat="48.02484" lon="6.99473">
        <ele>1240</ele>
        <time>2019-04-13T00:42:02Z</time>
      </trkpt>
      <trkpt lat="48.02473" lon="6.99446">
        <ele>1238</ele>
        <time>2019-04-13T00:43:02Z</time>
      </trkpt>
      <trkpt lat="48.02465" lon="6.99417">
        <ele>1234</ele>
        <time>2019-04-13T00:44:02Z</time>
      </trkpt>
      <trkpt lat="48.02453" lon="6.99354">
        <ele>1228</ele>
        <time>2019-04-13T00:45:02Z</time>
      </trkpt>
      <trkpt lat="48.02447" lon="6.99333">
        <ele>1227</ele>
        <time>2019-04-13T00:46:02Z</time>
      </trkpt>
      <trkpt lat="48.02381" lon="6.99189">
        <ele>1221</ele>
        <time>2019-04-13T00:47:02Z</time>
      </trkpt>
      <trkpt lat="48.02373" lon="6.99182">
        <ele>1221</ele>
        <time>2019-04-13T00:48:02Z</time>
      </trkpt>
      <trkpt lat="48.02362" lon="6.99177">
        <ele>1222</ele>
        <time>2019-04-13T00:49:02Z</time>
      </trkpt>
      <trkpt lat="48.02306" lon="6.99173">
        <ele>1231</ele>
        <time>2019-04-13T00:50:02Z</time>
      </trkpt>
      <trkpt lat="48.02298" lon="6.9917">
        <ele>1232</ele>
        <time>2019-04-13T00:51:02Z</time>
      </trkpt>
      <trkpt lat="48.02289" lon="6.99164">
        <ele>1233</ele>
        <time>2019-04-13T00:52:02Z</time>
      </trkpt>
      <trkpt lat="48.02283" lon="6.99151">
        <ele>1234</ele>
        <time>2019-04-13T00:53:02Z</time>
      </trkpt>
      <trkpt lat="48.0228" lon="6.99128">
        <ele>1235</ele>
        <time>2019-04-13T00:54:02Z</time>
      </trkpt>
      <trkpt lat="48.02284" lon="6.99111">
        <ele>1234</ele>
        <time>2019-04-13T00:55:02Z</time>
      </trkpt>
      <trkpt lat="48.0229" lon="6.99095">
        <ele>1233</ele>
        <time>2019-04-13T00:56:02Z</time>
      </trkpt>
      <trkpt lat="48.02344" lon="6.99013">
        <ele>1223</ele>
        <time>2019-04-13T00:57:02Z</time>
      </trkpt>
      <trkpt lat="48.02353" lon="6.98992">
        <ele>1221</ele>
        <time>2019-04-13T00:58:02Z</time>
      </trkpt>
      <trkpt lat="48.02354" lon="6.98972">
        <ele>1221</ele>
        <time>2019-04-13T00:59:02Z</time>
      </trkpt>
      <trkpt lat="48.02348" lon="6.98944">
        <ele>1221</ele>
        <time>2019-04-13T01:00:02Z</time>
      </trkpt>
      <trkpt lat="48.02337" lon="6.98912">
        <ele>1222</ele>
        <time>2019-04-13T01:01:02Z</time>
      </trkpt>
      <trkpt lat="48.02304" lon="6.98868">
        <ele>1222</ele>
        <time>2019-04-13T01:02:02Z</time>
      </trkpt>
      <trkpt lat="48.02266" lon="6.98833">
        <ele>1223</ele>
        <time>2019-04-13T01:03:02Z</time>
      </trkpt>
      <trkpt lat="48.02211" lon="6.98789">
        <ele>1220</ele>
        <time>2019-04-13T01:04:02Z</time>
      </trkpt>
      <trkpt lat="48.02133" lon="6.98743">
        <ele>1215</ele>
        <time>2019-04-13T01:05:02Z</time>
      </trkpt>
      <trkpt lat="48.02035" lon="6.98748">
        <ele>1216</ele>
        <time>2019-04-13T01:06:02Z</time>
      </trkpt>
      <trkpt lat="48.02007" lon="6.98736">
        <ele>1213</ele>
        <time>2019-04-13T01:07:02Z</time>
      </trkpt>
      <trkpt lat="48.01961" lon="6.98701">
        <ele>1203</ele>
        <time>2019-04-13T01:08:02Z</time>
      </trkpt>
      <trkpt lat="48.01879" lon="6.98664">
        <ele>1194</ele>
        <time>2019-04-13T01:09:02Z</time>
      </trkpt>
      <trkpt lat="48.0182" lon="6.9862">
        <ele>1189</ele>
        <time>2019-04-13T01:10:02Z</time>
      </trkpt>
      <trkpt lat="48.01749" lon="6.98581">
        <ele>1184</ele>
        <time>2019-04-13T01:11:02Z</time>
      </trkpt>
      <trkpt lat="48.01712" lon="6.98566">
        <ele>1181</ele>
        <time>2019-04-13T01:12:02Z</time>
      </trkpt>
      <trkpt lat="48.01624" lon="6.98568">
        <ele>1184</ele>
        <time>2019-04-13T01:13:02Z</time>
      </trkpt>
      <trkpt lat="48.01519" lon="6.98524">
        <ele>1180</ele>
        <time>2019-04-13T01:14:02Z</time>
      </trkpt>
      <trkpt lat="48.01489" lon="6.98507">
        <ele>1181</ele>
        <time>2019-04-13T01:15:02Z</time>
      </trkpt>
      <trkpt lat="48.01463" lon="6.98485">
        <ele>1184</ele>
        <time>2019-04-13T01:16:02Z</time>
      </trkpt>
      <trkpt lat="48.01351" lon="6.98363">
        <ele>1192</ele>
        <time>2019-04-13T01:17:02Z</time>
      </trkpt>
      <trkpt lat="48.01254" lon="6.98233">
        <ele>1198</ele>
        <time>2019-04-13T01:18:02Z</time>
      </trkpt>
      <trkpt lat="48.01195" lon="6.98095">
        <ele>1197</ele>
        <time>2019-04-13T01:19:02Z</time>
      </trkpt>
      <trkpt lat="48.01149" lon="6.97973">
        <ele>1194</ele>
        <time>2019-04-13T01:20:02Z</time>
      </trkpt>
      <trkpt lat="48.01124" lon="6.9793">
        <ele>1199</ele>
        <time>2019-04-13T01:21:02Z</time>
      </trkpt>
      <trkpt lat="48.01085" lon="6.97875">
        <ele>1205</ele>
        <time>2019-04-13T01:22:02Z</time>
      </trkpt>
      <trkpt lat="48.01062" lon="6.97827">
        <ele>1204</ele>
        <time>2019-04-13T01:23:02Z</time>
      </trkpt>
      <trkpt lat="48.01021" lon="6.97753">
        <ele>1211</ele>
        <time>2019-04-13T01:24:02Z</time>
      </trkpt>
      <trkpt lat="48.00984" lon="6.97655">
        <ele>1213</ele>
        <time>2019-04-13T01:25:02Z</time>
      </trkpt>
      <trkpt lat="48.00972" lon="6.9761">
        <ele>1212</ele>
        <time>2019-04-13T01:26:02Z</time>
      </trkpt>
      <trkpt lat="48.00965" lon="6.9758">
        <ele>1211</ele>
        <time>2019-04-13T01:27:02Z</time>
      </trkpt>
      <trkpt lat="48.00965" lon="6.97569">
        <ele>1212</ele>
        <time>2019-04-13T01:28:02Z</time>
      </trkpt>
      <trkpt lat="48.0097" lon="6.97548">
        <ele>1210</ele>
        <time>2019-04-13T01:29:02Z</time>
      </trkpt>
      <trkpt lat="48.00992" lon="6.97484">
        <ele>1207</ele>
        <time>2019-04-13T01:30:02Z</time>
      </trkpt>
      <trkpt lat="48.01005" lon="6.9746">
        <ele>1206</ele>
        <time>2019-04-13T01:31:02Z</time>
      </trkpt>
      <trkpt lat="48.01011" lon="6.97446">
        <ele>1206</ele>
        <time>2019-04-13T01:32:02Z</time>
      </trkpt>
      <trkpt lat="48.01014" lon="6.97432">
        <ele>1206</ele>
        <time>2019-04-13T01:33:02Z</time>
      </trkpt>
      <trkpt lat="48.01014" lon="6.97416">
        <ele>1208</ele>
        <time>2019-04-13T01:34:02Z</time>
      </trkpt>
      <trkpt lat="48.01012" lon="6.97408">
        <ele>1207</ele>
        <time>2019-04-13T01:35:02Z</time>
      </trkpt>
      <trkpt lat="48.01006" lon="6.97396">
        <ele>1207</ele>
        <time>2019-04-13T01:36:02Z</time>
      </trkpt>
      <trkpt lat="48.00999" lon="6.97389">
        <ele>1206</ele>
        <time>2019-04-13T01:37:02Z</time>
      </trkpt>
      <trkpt lat="48.0097" lon="6.97384">
        <ele>1205</ele>
        <time>2019-04-13T01:38:02Z</time>
      </trkpt>
      <trkpt lat="48.00942" lon="6.97385">
        <ele>1205</ele>
        <time>2019-04-13T01:39:02Z</time>
      </trkpt>
      <trkpt lat="48.00917" lon="6.97391">
        <ele>1206</ele>
        <time>2019-04-13T01:40:02Z</time>
      </trkpt>
      <trkpt lat="48.00895" lon="6.974">
        <ele>1204</ele>
        <time>2019-04-13T01:41:02Z</time>
      </trkpt>
      <trkpt lat="48.00864" lon="6.97418">
        <ele>1202</ele>
        <time>2019-04-13T01:42:02Z</time>
      </trkpt>
      <trkpt lat="48.00849" lon="6.97432">
        <ele>1201</ele>
        <time>2019-04-13T01:43:02Z</time>
      </trkpt>
      <trkpt lat="48.00839" lon="6.97445">
        <ele>1201</ele>
        <time>2019-04-13T01:44:02Z</time>
      </trkpt>
      <trkpt lat="48.00763" lon="6.97565">
        <ele>1196</ele>
        <time>2019-04-13T01:45:02Z</time>
      </trkpt>
      <trkpt lat="48.00733" lon="6.97616">
        <ele>1195</ele>
        <time>2019-04-13T01:46:02Z</time>
      </trkpt>
      <trkpt lat="48.00705" lon="6.97679">
        <ele>1193</ele>
        <time>2019-04-13T01:47:02Z</time>
      </trkpt>
      <trkpt lat="48.00679" lon="6.97754">
        <ele>1194</ele>
        <time>2019-04-13T01:48:02Z</time>
      </trkpt>
      <trkpt lat="48.00667" lon="6.97785">
        <ele>1194</ele>
        <time>2019-04-13T01:49:02Z</time>
      </trkpt>
      <trkpt lat="48.00664" lon="6.97774">
        <ele>1192</ele>
        <time>2019-04-13T01:50:02Z</time>
      </trkpt>
      <trkpt lat="48.00665" lon="6.97766">
        <ele>1191</ele>
        <time>2019-04-13T01:51:02Z</time>
      </trkpt>
      <trkpt lat="48.00678" lon="6.97713">
        <ele>1188</ele>
        <time>2019-04-13T01:52:02Z</time>
      </trkpt>
      <trkpt lat="48.00697" lon="6.97598">
        <ele>1179</ele>
        <time>2019-04-13T01:53:02Z</time>
      </trkpt>
      <trkpt lat="48.00729" lon="6.97502">
        <ele>1171</ele>
        <time>2019-04-13T01:54:02Z</time>
      </trkpt>
      <trkpt lat="48.00736" lon="6.97491">
        <ele>1172</ele>
        <time>2019-04-13T01:55:02Z</time>
      </trkpt>
      <trkpt lat="48.00752" lon="6.97477">
        <ele>1176</ele>
        <time>2019-04-13T01:56:02Z</time>
      </trkpt>
      <trkpt lat="48.00758" lon="6.97466">
        <ele>1177</ele>
        <time>2019-04-13T01:57:02Z</time>
      </trkpt>
      <trkpt lat="48.00758" lon="6.9745">
        <ele>1175</ele>
        <time>2019-04-13T01:58:02Z</time>
      </trkpt>
      <trkpt lat="48.00754" lon="6.97428">
        <ele>1172</ele>
        <time>2019-04-13T01:59:02Z</time>
      </trkpt>
      <trkpt lat="48.00753" lon="6.97402">
        <ele>1169</ele>
        <time>2019-04-13T02:00:02Z</time>
      </trkpt>
      <trkpt lat="48.00753" lon="6.9736">
        <ele>1167</ele>
        <time>2019-04-13T02:01:02Z</time>
      </trkpt>
      <trkpt lat="48.0075" lon="6.97342">
        <ele>1165</ele>
        <time>2019-04-13T02:02:02Z</time>
      </trkpt>
      <trkpt lat="48.0075" lon="6.97342">
        <ele>1165</ele>
        <time>2019-04-13T02:03:02Z</time>
      </trkpt>
      <trkpt lat="48.00745" lon="6.97308">
        <ele>1163</ele>
        <time>2019-04-13T02:04:02Z</time>
      </trkpt>
      <trkpt lat="48.00749" lon="6.97288">
        <ele>1164</ele>
        <time>2019-04-13T02:05:02Z</time>
      </trkpt>
      <trkpt lat="48.00751" lon="6.97274">
        <ele>1164</ele>
        <time>2019-04-13T02:06:02Z</time>
      </trkpt>
      <trkpt lat="48.0075" lon="6.97266">
        <ele>1163</ele>
        <time>2019-04-13T02:07:02Z</time>
      </trkpt>
      <trkpt lat="48.00748" lon="6.97261">
        <ele>1163</ele>
        <time>2019-04-13T02:08:02Z</time>
      </trkpt>
      <trkpt lat="48.00737" lon="6.97249">
        <ele>1159</ele>
        <time>2019-04-13T02:09:02Z</time>
      </trkpt>
      <trkpt lat="48.00729" lon="6.97229">
        <ele>1156</ele>
        <time>2019-04-13T02:10:02Z</time>
      </trkpt>
      <trkpt lat="48.00727" lon="6.97208">
        <ele>1155</ele>
        <time>2019-04-13T02:11:02Z</time>
      </trkpt>
      <trkpt lat="48.0073" lon="6.97198">
        <ele>1155</ele>
        <time>2019-04-13T02:12:02Z</time>
      </trkpt>
      <trkpt lat="48.00735" lon="6.97187">
        <ele>1155</ele>
        <time>2019-04-13T02:13:02Z</time>
      </trkpt>
      <trkpt lat="48.00748" lon="6.97163">
        <ele>1155</ele>
        <time>2019-04-13T02:14:02Z</time>
      </trkpt>
      <trkpt lat="48.00755" lon="6.97153">
        <ele>1155</ele>
        <time>2019-04-13T02:15:02Z</time>
      </trkpt>
      <trkpt lat="48.00762" lon="6.97149">
        <ele>1154</ele>
        <time>2019-04-13T02:16:02Z</time>
      </trkpt>
      <trkpt lat="48.00836" lon="6.97141">
        <ele>1152</ele>
        <time>2019-04-13T02:17:02Z</time>
      </trkpt>
      <trkpt lat="48.00884" lon="6.9713">
        <ele>1148</ele>
        <time>2019-04-13T02:18:02Z</time>
      </trkpt>
      <trkpt lat="48.00941" lon="6.97113">
        <ele>1143</ele>
        <time>2019-04-13T02:19:02Z</time>
      </trkpt>
      <trkpt lat="48.01025" lon="6.97068">
        <ele>1137</ele>
        <time>2019-04-13T02:20:02Z</time>
      </trkpt>
      <trkpt lat="48.0107" lon="6.97025">
        <ele>1131</ele>
        <time>2019-04-13T02:21:02Z</time>
      </trkpt>
      <trkpt lat="48.01113" lon="6.96973">
        <ele>1125</ele>
        <time>2019-04-13T02:22:02Z</time>
      </trkpt>
      <trkpt lat="48.01133" lon="6.96955">
        <ele>1125</ele>
        <time>2019-04-13T02:23:02Z</time>
      </trkpt>
      <trkpt lat="48.01139" lon="6.96939">
        <ele>1123</ele>
        <time>2019-04-13T02:24:02Z</time>
      </trkpt>
      <trkpt lat="48.01139" lon="6.9693">
        <ele>1121</ele>
        <time>2019-04-13T02:25:02Z</time>
      </trkpt>
      <trkpt lat="48.01137" lon="6.96921">
        <ele>1120</ele>
        <time>2019-04-13T02:26:02Z</time>
      </trkpt>
      <trkpt lat="48.01133" lon="6.96913">
        <ele>1118</ele>
        <time>2019-04-13T02:27:02Z</time>
      </trkpt>
      <trkpt lat="48.01126" lon="6.96906">
        <ele>1116</ele>
        <time>2019-04-13T02:28:02Z</time>
      </trkpt>
      <trkpt lat="48.0112" lon="6.96904">
        <ele>1115</ele>
        <time>2019-04-13T02:29:02Z</time>
      </trkpt>
      <trkpt lat="48.01114" lon="6.96904">
        <ele>1114</ele>
        <time>2019-04-13T02:30:02Z</time>
      </trkpt>
      <trkpt lat="48.01104" lon="6.96915">
        <ele>1115</ele>
        <time>2019-04-13T02:31:02Z</time>
      </trkpt>
      <trkpt lat="48.01091" lon="6.96942">
        <ele>1118</ele>
        <time>2019-04-13T02:32:02Z</time>
      </trkpt>
      <trkpt lat="48.01078" lon="6.96952">
        <ele>1118</ele>
        <time>2019-04-13T02:33:02Z</time>
      </trkpt>
      <trkpt lat="48.01038" lon="6.96969">
        <ele>1118</ele>
        <time>2019-04-13T02:34:02Z</time>
      </trkpt>
      <trkpt lat="48.01012" lon="6.96973">
        <ele>1117</ele>
        <time>2019-04-13T02:35:02Z</time>
      </trkpt>
      <trkpt lat="48.00976" lon="6.9697">
        <ele>1114</ele>
        <time>2019-04-13T02:36:02Z</time>
      </trkpt>
      <trkpt lat="48.0089" lon="6.96957">
        <ele>1108</ele>
        <time>2019-04-13T02:37:02Z</time>
      </trkpt>
      <trkpt lat="48.00884" lon="6.96948">
        <ele>1107</ele>
        <time>2019-04-13T02:38:02Z</time>
      </trkpt>
      <trkpt lat="48.00885" lon="6.96935">
        <ele>1104</ele>
        <time>2019-04-13T02:39:02Z</time>
      </trkpt>
      <trkpt lat="48.00898" lon="6.96918">
        <ele>1099</ele>
        <time>2019-04-13T02:40:02Z</time>
      </trkpt>
      <trkpt lat="48.00933" lon="6.96899">
        <ele>1096</ele>
        <time>2019-04-13T02:41:02Z</time>
      </trkpt>
      <trkpt lat="48.00971" lon="6.96868">
        <ele>1095</ele>
        <time>2019-04-13T02:42:02Z</time>
      </trkpt>
      <trkpt lat="48.01049" lon="6.96792">
        <ele>1089</ele>
        <time>2019-04-13T02:43:02Z</time>
      </trkpt>
      <trkpt lat="48.01058" lon="6.96766">
        <ele>1087</ele>
        <time>2019-04-13T02:44:02Z</time>
      </trkpt>
      <trkpt lat="48.01066" lon="6.96688">
        <ele>1079</ele>
        <time>2019-04-13T02:45:02Z</time>
      </trkpt>
      <trkpt lat="48.01062" lon="6.96605">
        <ele>1075</ele>
        <time>2019-04-13T02:46:02Z</time>
      </trkpt>
      <trkpt lat="48.01053" lon="6.96536">
        <ele>1070</ele>
        <time>2019-04-13T02:47:02Z</time>
      </trkpt>
      <trkpt lat="48.01045" lon="6.9646">
        <ele>1064</ele>
        <time>2019-04-13T02:48:02Z</time>
      </trkpt>
      <trkpt lat="48.01048" lon="6.96413">
        <ele>1062</ele>
        <time>2019-04-13T02:49:02Z</time>
      </trkpt>
      <trkpt lat="48.01074" lon="6.96338">
        <ele>1059</ele>
        <time>2019-04-13T02:50:02Z</time>
      </trkpt>
      <trkpt lat="48.01099" lon="6.96273">
        <ele>1057</ele>
        <time>2019-04-13T02:51:02Z</time>
      </trkpt>
      <trkpt lat="48.01099" lon="6.96273">
        <ele>1057</ele>
        <time>2019-04-13T02:52:02Z</time>
      </trkpt>
      <trkpt lat="48.01103" lon="6.96263">
        <ele>1057</ele>
        <time>2019-04-13T02:53:02Z</time>
      </trkpt>
      <trkpt lat="48.01122" lon="6.96193">
        <ele>1053</ele>
        <time>2019-04-13T02:54:02Z</time>
      </trkpt>
      <trkpt lat="48.01132" lon="6.961">
        <ele>1045</ele>
        <time>2019-04-13T02:55:02Z</time>
      </trkpt>
      <trkpt lat="48.01146" lon="6.96036">
        <ele>1044</ele>
        <time>2019-04-13T02:56:02Z</time>
      </trkpt>
      <trkpt lat="48.01144" lon="6.95967">
        <ele>1040</ele>
        <time>2019-04-13T02:57:02Z</time>
      </trkpt>
      <trkpt lat="48.01133" lon="6.95902">
        <ele>1033</ele>
        <time>2019-04-13T02:58:02Z</time>
      </trkpt>
      <trkpt lat="48.0114" lon="6.9585">
        <ele>1029</ele>
        <time>2019-04-13T02:59:02Z</time>
      </trkpt>
      <trkpt lat="48.0116" lon="6.95782">
        <ele>1028</ele>
        <time>2019-04-13T03:00:02Z</time>
      </trkpt>
      <trkpt lat="48.01167" lon="6.95753">
        <ele>1026</ele>
        <time>2019-04-13T03:01:02Z</time>
      </trkpt>
      <trkpt lat="48.01166" lon="6.95746">
        <ele>1025</ele>
        <time>2019-04-13T03:02:02Z</time>
      </trkpt>
      <trkpt lat="48.01162" lon="6.9574">
        <ele>1024</ele>
        <time>2019-04-13T03:03:02Z</time>
      </trkpt>
      <trkpt lat="48.01155" lon="6.95741">
        <ele>1022</ele>
        <time>2019-04-13T03:04:02Z</time>
      </trkpt>
      <trkpt lat="48.01149" lon="6.9575">
        <ele>1021</ele>
        <time>2019-04-13T03:05:02Z</time>
      </trkpt>
      <trkpt lat="48.01133" lon="6.95805">
        <ele>1022</ele>
        <time>2019-04-13T03:06:02Z</time>
      </trkpt>
      <trkpt lat="48.01054" lon="6.9591">
        <ele>1011</ele>
        <time>2019-04-13T03:07:02Z</time>
      </trkpt>
      <trkpt lat="48.01011" lon="6.95957">
        <ele>1002</ele>
        <time>2019-04-13T03:08:02Z</time>
      </trkpt>
      <trkpt lat="48.00987" lon="6.9597">
        <ele>998</ele>
        <time>2019-04-13T03:09:02Z</time>
      </trkpt>
      <trkpt lat="48.00974" lon="6.95971">
        <ele>995</ele>
        <time>2019-04-13T03:10:02Z</time>
      </trkpt>
      <trkpt lat="48.00961" lon="6.95967">
        <ele>993</ele>
        <time>2019-04-13T03:11:02Z</time>
      </trkpt>
      <trkpt lat="48.00955" lon="6.95934">
        <ele>992</ele>
        <time>2019-04-13T03:12:02Z</time>
      </trkpt>
      <trkpt lat="48.00957" lon="6.95882">
        <ele>993</ele>
        <time>2019-04-13T03:13:02Z</time>
      </trkpt>
      <trkpt lat="48.00961" lon="6.95843">
        <ele>993</ele>
        <time>2019-04-13T03:14:02Z</time>
      </trkpt>
      <trkpt lat="48.00969" lon="6.95782">
        <ele>991</ele>
        <time>2019-04-13T03:15:02Z</time>
      </trkpt>
      <trkpt lat="48.01007" lon="6.95698">
        <ele>983</ele>
        <time>2019-04-13T03:16:02Z</time>
      </trkpt>
      <trkpt lat="48.01011" lon="6.9566">
        <ele>980</ele>
        <time>2019-04-13T03:17:02Z</time>
      </trkpt>
      <trkpt lat="48.01011" lon="6.95651">
        <ele>980</ele>
        <time>2019-04-13T03:18:02Z</time>
      </trkpt>
      <trkpt lat="48.00984" lon="6.95541">
        <ele>978</ele>
        <time>2019-04-13T03:19:02Z</time>
      </trkpt>
      <trkpt lat="48.00983" lon="6.95443">
        <ele>972</ele>
        <time>2019-04-13T03:20:02Z</time>
      </trkpt>
      <trkpt lat="48.00956" lon="6.95321">
        <ele>974</ele>
        <time>2019-04-13T03:21:02Z</time>
      </trkpt>
      <trkpt lat="48.00954" lon="6.95246">
        <ele>968</ele>
        <time>2019-04-13T03:22:02Z</time>
      </trkpt>
      <trkpt lat="48.00955" lon="6.95161">
        <ele>969</ele>
        <time>2019-04-13T03:23:02Z</time>
      </trkpt>
      <trkpt lat="48.00969" lon="6.951">
        <ele>965</ele>
        <time>2019-04-13T03:24:02Z</time>
      </trkpt>
      <trkpt lat="48.0102" lon="6.94998">
        <ele>947</ele>
        <time>2019-04-13T03:25:02Z</time>
      </trkpt>
      <trkpt lat="48.01054" lon="6.94943">
        <ele>932</ele>
        <time>2019-04-13T03:26:02Z</time>
      </trkpt>
      <trkpt lat="48.01061" lon="6.94926">
        <ele>930</ele>
        <time>2019-04-13T03:27:02Z</time>
      </trkpt>
      <trkpt lat="48.01064" lon="6.94907">
        <ele>928</ele>
        <time>2019-04-13T03:28:02Z</time>
      </trkpt>
      <trkpt lat="48.01063" lon="6.94892">
        <ele>927</ele>
        <time>2019-04-13T03:29:02Z</time>
      </trkpt>
      <trkpt lat="48.0106" lon="6.94873">
        <ele>926</ele>
        <time>2019-04-13T03:30:02Z</time>
      </trkpt>
      <trkpt lat="48.01055" lon="6.94859">
        <ele>925</ele>
        <time>2019-04-13T03:31:02Z</time>
      </trkpt>
      <trkpt lat="48.01049" lon="6.94845">
        <ele>924</ele>
        <time>2019-04-13T03:32:02Z</time>
      </trkpt>
      <trkpt lat="48.00989" lon="6.94778">
        <ele>919</ele>
        <time>2019-04-13T03:33:02Z</time>
      </trkpt>
      <trkpt lat="48.00941" lon="6.9474">
        <ele>918</ele>
        <time>2019-04-13T03:34:02Z</time>
      </trkpt>
      <trkpt lat="48.00883" lon="6.94669">
        <ele>911</ele>
        <time>2019-04-13T03:35:02Z</time>
      </trkpt>
      <trkpt lat="48.00864" lon="6.94649">
        <ele>909</ele>
        <time>2019-04-13T03:36:02Z</time>
      </trkpt>
      <trkpt lat="48.00864" lon="6.94649">
        <ele>909</ele>
        <time>2019-04-13T03:37:02Z</time>
      </trkpt>
      <trkpt lat="48.00828" lon="6.94621">
        <ele>907</ele>
        <time>2019-04-13T03:38:02Z</time>
      </trkpt>
      <trkpt lat="48.00788" lon="6.94584">
        <ele>903</ele>
        <time>2019-04-13T03:39:02Z</time>
      </trkpt>
      <trkpt lat="48.00735" lon="6.94562">
        <ele>904</ele>
        <time>2019-04-13T03:40:02Z</time>
      </trkpt>
      <trkpt lat="48.0073" lon="6.94548">
        <ele>899</ele>
        <time>2019-04-13T03:41:02Z</time>
      </trkpt>
      <trkpt lat="48.00781" lon="6.94549">
        <ele>892</ele>
        <time>2019-04-13T03:42:02Z</time>
      </trkpt>
      <trkpt lat="48.00896" lon="6.94582">
        <ele>883</ele>
        <time>2019-04-13T03:43:02Z</time>
      </trkpt>
      <trkpt lat="48.00943" lon="6.94592">
        <ele>877</ele>
        <time>2019-04-13T03:44:02Z</time>
      </trkpt>
      <trkpt lat="48.00986" lon="6.94605">
        <ele>872</ele>
        <time>2019-04-13T03:45:02Z</time>
      </trkpt>
      <trkpt lat="48.01097" lon="6.9465">
        <ele>863</ele>
        <time>2019-04-13T03:46:02Z</time>
      </trkpt>
      <trkpt lat="48.01149" lon="6.94658">
        <ele>855</ele>
        <time>2019-04-13T03:47:02Z</time>
      </trkpt>
      <trkpt lat="48.01198" lon="6.94671">
        <ele>847</ele>
        <time>2019-04-13T03:48:02Z</time>
      </trkpt>
      <trkpt lat="48.01301" lon="6.94755">
        <ele>842</ele>
        <time>2019-04-13T03:49:02Z</time>
      </trkpt>
      <trkpt lat="48.01307" lon="6.94757">
        <ele>840</ele>
        <time>2019-04-13T03:50:02Z</time>
      </trkpt>
      <trkpt lat="48.01312" lon="6.94755">
        <ele>838</ele>
        <time>2019-04-13T03:51:02Z</time>
      </trkpt>
      <trkpt lat="48.01314" lon="6.94752">
        <ele>838</ele>
        <time>2019-04-13T03:52:02Z</time>
      </trkpt>
      <trkpt lat="48.01314" lon="6.94746">
        <ele>837</ele>
        <time>2019-04-13T03:53:02Z</time>
      </trkpt>
      <trkpt lat="48.01312" lon="6.94737">
        <ele>835</ele>
        <time>2019-04-13T03:54:02Z</time>
      </trkpt>
      <trkpt lat="48.01276" lon="6.94699">
        <ele>834</ele>
        <time>2019-04-13T03:55:02Z</time>
      </trkpt>
      <trkpt lat="48.01229" lon="6.94637">
        <ele>827</ele>
        <time>2019-04-13T03:56:02Z</time>
      </trkpt>
      <trkpt lat="48.01197" lon="6.94603">
        <ele>825</ele>
        <time>2019-04-13T03:57:02Z</time>
      </trkpt>
      <trkpt lat="48.01146" lon="6.94558">
        <ele>824</ele>
        <time>2019-04-13T03:58:02Z</time>
      </trkpt>
      <trkpt lat="48.00996" lon="6.94434">
        <ele>813</ele>
        <time>2019-04-13T03:59:02Z</time>
      </trkpt>
      <trkpt lat="48.00923" lon="6.94395">
        <ele>811</ele>
        <time>2019-04-13T04:00:02Z</time>
      </trkpt>
      <trkpt lat="48.00843" lon="6.9432">
        <ele>797</ele>
        <time>2019-04-13T04:01:02Z</time>
      </trkpt>
      <trkpt lat="48.00808" lon="6.94294">
        <ele>795</ele>
        <time>2019-04-13T04:02:02Z</time>
      </trkpt>
      <trkpt lat="48.00759" lon="6.94269">
        <ele>795</ele>
        <time>2019-04-13T04:03:02Z</time>
      </trkpt>
      <trkpt lat="48.0074" lon="6.94256">
        <ele>793</ele>
        <time>2019-04-13T04:04:02Z</time>
      </trkpt>
      <trkpt lat="48.00697" lon="6.94205">
        <ele>783</ele>
        <time>2019-04-13T04:05:02Z</time>
      </trkpt>
      <trkpt lat="48.00659" lon="6.94183">
        <ele>782</ele>
        <time>2019-04-13T04:06:02Z</time>
      </trkpt>
      <trkpt lat="48.00638" lon="6.94159">
        <ele>780</ele>
        <time>2019-04-13T04:07:02Z</time>
      </trkpt>
      <trkpt lat="48.00616" lon="6.9412">
        <ele>777</ele>
        <time>2019-04-13T04:08:02Z</time>
      </trkpt>
      <trkpt lat="48.00548" lon="6.93967">
        <ele>771</ele>
        <time>2019-04-13T04:09:02Z</time>
      </trkpt>
      <trkpt lat="48.00511" lon="6.93893">
        <ele>768</ele>
        <time>2019-04-13T04:10:02Z</time>
      </trkpt>
      <trkpt lat="48.00492" lon="6.93863">
        <ele>766</ele>
        <time>2019-04-13T04:11:02Z</time>
      </trkpt>
      <trkpt lat="48.00477" lon="6.93849">
        <ele>765</ele>
        <time>2019-04-13T04:12:02Z</time>
      </trkpt>
      <trkpt lat="48.00435" lon="6.93828">
        <ele>768</ele>
        <time>2019-04-13T04:13:02Z</time>
      </trkpt>
      <trkpt lat="48.00417" lon="6.93816">
        <ele>769</ele>
        <time>2019-04-13T04:14:02Z</time>
      </trkpt>
      <trkpt lat="48.00401" lon="6.93798">
        <ele>770</ele>
        <time>2019-04-13T04:15:02Z</time>
      </trkpt>
      <trkpt lat="48.00389" lon="6.93781">
        <ele>772</ele>
        <time>2019-04-13T04:16:02Z</time>
      </trkpt>
      <trkpt lat="48.00375" lon="6.93743">
        <ele>771</ele>
        <time>2019-04-13T04:17:02Z</time>
      </trkpt>
      <trkpt lat="48.00366" lon="6.93674">
        <ele>762</ele>
        <time>2019-04-13T04:18:02Z</time>
      </trkpt>
      <trkpt lat="48.00357" lon="6.93637">
        <ele>760</ele>
        <time>2019-04-13T04:19:02Z</time>
      </trkpt>
      <trkpt lat="48.00324" lon="6.93549">
        <ele>754</ele>
        <time>2019-04-13T04:20:02Z</time>
      </trkpt>
      <trkpt lat="48.00311" lon="6.93501">
        <ele>750</ele>
        <time>2019-04-13T04:21:02Z</time>
      </trkpt>
      <trkpt lat="48.00283" lon="6.93361">
        <ele>747</ele>
        <time>2019-04-13T04:22:02Z</time>
      </trkpt>
      <trkpt lat="48.00278" lon="6.93273">
        <ele>746</ele>
        <time>2019-04-13T04:23:02Z</time>
      </trkpt>
      <trkpt lat="48.00275" lon="6.9316">
        <ele>741</ele>
        <time>2019-04-13T04:24:02Z</time>
      </trkpt>
      <trkpt lat="48.00277" lon="6.93117">
        <ele>737</ele>
        <time>2019-04-13T04:25:02Z</time>
      </trkpt>
      <trkpt lat="48.00283" lon="6.93078">
        <ele>734</ele>
        <time>2019-04-13T04:26:02Z</time>
      </trkpt>
      <trkpt lat="48.003" lon="6.93022">
        <ele>729</ele>
        <time>2019-04-13T04:27:02Z</time>
      </trkpt>
      <trkpt lat="48.0032" lon="6.92985">
        <ele>728</ele>
        <time>2019-04-13T04:28:02Z</time>
      </trkpt>
      <trkpt lat="48.00362" lon="6.92917">
        <ele>734</ele>
        <time>2019-04-13T04:29:02Z</time>
      </trkpt>
      <trkpt lat="48.0038" lon="6.929">
        <ele>738</ele>
        <time>2019-04-13T04:30:02Z</time>
      </trkpt>
      <trkpt lat="48.00363" lon="6.92844">
        <ele>737</ele>
        <time>2019-04-13T04:31:02Z</time>
      </trkpt>
      <trkpt lat="48.00318" lon="6.9273">
        <ele>733</ele>
        <time>2019-04-13T04:32:02Z</time>
      </trkpt>
      <trkpt lat="48.00308" lon="6.92686">
        <ele>734</ele>
        <time>2019-04-13T04:33:02Z</time>
      </trkpt>
      <trkpt lat="48.00294" lon="6.92561">
        <ele>737</ele>
        <time>2019-04-13T04:34:02Z</time>
      </trkpt>
      <trkpt lat="48.00294" lon="6.92561">
        <ele>737</ele>
        <time>2019-04-13T04:35:02Z</time>
      </trkpt>
      <trkpt lat="48.00289" lon="6.92519">
        <ele>741</ele>
        <time>2019-04-13T04:36:02Z</time>
      </trkpt>
      <trkpt lat="48.00276" lon="6.9248">
        <ele>742</ele>
        <time>2019-04-13T04:37:02Z</time>
      </trkpt>
      <trkpt lat="48.0024" lon="6.92406">
        <ele>738</ele>
        <time>2019-04-13T04:38:02Z</time>
      </trkpt>
      <trkpt lat="48.0021" lon="6.92335">
        <ele>736</ele>
        <time>2019-04-13T04:39:02Z</time>
      </trkpt>
      <trkpt lat="48.00197" lon="6.92299">
        <ele>734</ele>
        <time>2019-04-13T04:40:02Z</time>
      </trkpt>
      <trkpt lat="48.00188" lon="6.92259">
        <ele>733</ele>
        <time>2019-04-13T04:41:02Z</time>
      </trkpt>
      <trkpt lat="48.00175" lon="6.92187">
        <ele>733</ele>
        <time>2019-04-13T04:42:02Z</time>
      </trkpt>
      <trkpt lat="48.00168" lon="6.9216">
        <ele>732</ele>
        <time>2019-04-13T04:43:02Z</time>
      </trkpt>
      <trkpt lat="48.00152" lon="6.92117">
        <ele>734</ele>
        <time>2019-04-13T04:44:02Z</time>
      </trkpt>
      <trkpt lat="48.00129" lon="6.92061">
        <ele>733</ele>
        <time>2019-04-13T04:45:02Z</time>
      </trkpt>
      <trkpt lat="48.0012" lon="6.9202">
        <ele>730</ele>
        <time>2019-04-13T04:46:02Z</time>
      </trkpt>
      <trkpt lat="48.00117" lon="6.91994">
        <ele>729</ele>
        <time>2019-04-13T04:47:02Z</time>
      </trkpt>
      <trkpt lat="48.00117" lon="6.91962">
        <ele>728</ele>
        <time>2019-04-13T04:48:02Z</time>
      </trkpt>
      <trkpt lat="48.00144" lon="6.91527">
        <ele>710</ele>
        <time>2019-04-13T04:49:02Z</time>
      </trkpt>
      <trkpt lat="48.00145" lon="6.91507">
        <ele>710</ele>
        <time>2019-04-13T04:50:02Z</time>
      </trkpt>
      <trkpt lat="48.0015" lon="6.91473">
        <ele>709</ele>
        <time>2019-04-13T04:51:02Z</time>
      </trkpt>
      <trkpt lat="48.00203" lon="6.91165">
        <ele>707</ele>
        <time>2019-04-13T04:52:02Z</time>
      </trkpt>
      <trkpt lat="48.00243" lon="6.90946">
        <ele>703</ele>
        <time>2019-04-13T04:53:02Z</time>
      </trkpt>
      <trkpt lat="48.00257" lon="6.90883">
        <ele>702</ele>
        <time>2019-04-13T04:54:02Z</time>
      </trkpt>
      <trkpt lat="48.00274" lon="6.90821">
        <ele>702</ele>
        <time>2019-04-13T04:55:02Z</time>
      </trkpt>
      <trkpt lat="48.00303" lon="6.90692">
        <ele>701</ele>
        <time>2019-04-13T04:56:02Z</time>
      </trkpt>
      <trkpt lat="48.00351" lon="6.90489">
        <ele>697</ele>
        <time>2019-04-13T04:57:02Z</time>
      </trkpt>
      <trkpt lat="48.00354" lon="6.90449">
        <ele>697</ele>
        <time>2019-04-13T04:58:02Z</time>
      </trkpt>
      <trkpt lat="48.00354" lon="6.90373">
        <ele>695</ele>
        <time>2019-04-13T04:59:02Z</time>
      </trkpt>
      <trkpt lat="48.00357" lon="6.90326">
        <ele>693</ele>
        <time>2019-04-13T05:00:02Z</time>
      </trkpt>
      <trkpt lat="48.00357" lon="6.90326">
        <ele>693</ele>
        <time>2019-04-13T05:01:02Z</time>
      </trkpt>
      <trkpt lat="48.00362" lon="6.90269">
        <ele>691</ele>
        <time>2019-04-13T05:02:02Z</time>
      </trkpt>
      <trkpt lat="48.00415" lon="6.90027">
        <ele>686</ele>
        <time>2019-04-13T05:03:02Z</time>
      </trkpt>
      <trkpt lat="48.00459" lon="6.89697">
        <ele>677</ele>
        <time>2019-04-13T05:04:02Z</time>
      </trkpt>
      <trkpt lat="48.00459" lon="6.89697">
        <ele>677</ele>
        <time>2019-04-13T05:05:02Z</time>
      </trkpt>
      <trkpt lat="48.0047" lon="6.89607">
        <ele>676</ele>
        <time>2019-04-13T05:06:02Z</time>
      </trkpt>
      <trkpt lat="48.00475" lon="6.8952">
        <ele>676</ele>
        <time>2019-04-13T05:07:02Z</time>
      </trkpt>
      <trkpt lat="48.00476" lon="6.89444">
        <ele>676</ele>
        <time>2019-04-13T05:08:02Z</time>
      </trkpt>
      <trkpt lat="48.00465" lon="6.89269">
        <ele>671</ele>
        <time>2019-04-13T05:09:02Z</time>
      </trkpt>
      <trkpt lat="48.0047" lon="6.89105">
        <ele>666</ele>
        <time>2019-04-13T05:10:02Z</time>
      </trkpt>
      <trkpt lat="48.00468" lon="6.88844">
        <ele>665</ele>
        <time>2019-04-13T05:11:02Z</time>
      </trkpt>
      <trkpt lat="48.00474" lon="6.88803">
        <ele>663</ele>
        <time>2019-04-13T05:12:02Z</time>
      </trkpt>
      <trkpt lat="48.00487" lon="6.88764">
        <ele>661</ele>
        <time>2019-04-13T05:13:02Z</time>
      </trkpt>
      <trkpt lat="48.00506" lon="6.88733">
        <ele>659</ele>
        <time>2019-04-13T05:14:02Z</time>
      </trkpt>
      <trkpt lat="48.00526" lon="6.88711">
        <ele>660</ele>
        <time>2019-04-13T05:15:02Z</time>
      </trkpt>
      <trkpt lat="48.00526" lon="6.88711">
        <ele>660</ele>
        <time>2019-04-13T05:16:02Z</time>
      </trkpt>
      <trkpt lat="48.00599" lon="6.88632">
        <ele>658</ele>
        <time>2019-04-13T05:17:02Z</time>
      </trkpt>
      <trkpt lat="48.00618" lon="6.88602">
        <ele>657</ele>
        <time>2019-04-13T05:18:02Z</time>
      </trkpt>
      <trkpt lat="48.00634" lon="6.88572">
        <ele>655</ele>
        <time>2019-04-13T05:19:02Z</time>
      </trkpt>
      <trkpt lat="48.00634" lon="6.88572">
        <ele>655</ele>
        <time>2019-04-13T05:20:02Z</time>
      </trkpt>
      <trkpt lat="48.00714" lon="6.88415">
        <ele>650</ele>
        <time>2019-04-13T05:21:02Z</time>
      </trkpt>
      <trkpt lat="48.00729" lon="6.88371">
        <ele>650</ele>
        <time>2019-04-13T05:22:02Z</time>
      </trkpt>
      <trkpt lat="48.00729" lon="6.88371">
        <ele>650</ele>
        <time>2019-04-13T05:23:02Z</time>
      </trkpt>
      <trkpt lat="48.00737" lon="6.88336">
        <ele>649</ele>
        <time>2019-04-13T05:24:02Z</time>
      </trkpt>
      <trkpt lat="48.0074" lon="6.8831">
        <ele>648</ele>
        <time>2019-04-13T05:25:02Z</time>
      </trkpt>
      <trkpt lat="48.00748" lon="6.88222">
        <ele>646</ele>
        <time>2019-04-13T05:26:02Z</time>
      </trkpt>
      <trkpt lat="48.00853" lon="6.88255">
        <ele>649</ele>
        <time>2019-04-13T05:27:02Z</time>
      </trkpt>
      <trkpt lat="48.00902" lon="6.88267">
        <ele>652</ele>
        <time>2019-04-13T05:28:02Z</time>
      </trkpt>
      <trkpt lat="48.00936" lon="6.88278">
        <ele>657</ele>
        <time>2019-04-13T05:29:02Z</time>
      </trkpt>
      <trkpt lat="48.00965" lon="6.8829">
        <ele>661</ele>
        <time>2019-04-13T05:30:02Z</time>
      </trkpt>
      <trkpt lat="48.00974" lon="6.88297">
        <ele>662</ele>
        <time>2019-04-13T05:31:02Z</time>
      </trkpt>
      <trkpt lat="48.01015" lon="6.88353">
        <ele>667</ele>
        <time>2019-04-13T05:32:02Z</time>
      </trkpt>
      <trkpt lat="48.01066" lon="6.88471">
        <ele>675</ele>
        <time>2019-04-13T05:33:02Z</time>
      </trkpt>
      <trkpt lat="48.01066" lon="6.88471">
        <ele>675</ele>
        <time>2019-04-13T05:34:02Z</time>
      </trkpt>
      <trkpt lat="48.01082" lon="6.88505">
        <ele>675</ele>
        <time>2019-04-13T05:35:02Z</time>
      </trkpt>
      <trkpt lat="48.01134" lon="6.88592">
        <ele>684</ele>
        <time>2019-04-13T05:36:02Z</time>
      </trkpt>
      <trkpt lat="48.01163" lon="6.88652">
        <ele>682</ele>
        <time>2019-04-13T05:37:02Z</time>
      </trkpt>
      <trkpt lat="48.01191" lon="6.88693">
        <ele>686</ele>
        <time>2019-04-13T05:38:02Z</time>
      </trkpt>
      <trkpt lat="48.01199" lon="6.88794">
        <ele>688</ele>
        <time>2019-04-13T05:39:02Z</time>
      </trkpt>
      <trkpt lat="48.01211" lon="6.88832">
        <ele>689</ele>
        <time>2019-04-13T05:40:02Z</time>
      </trkpt>
      <trkpt lat="48.01245" lon="6.88892">
        <ele>689</ele>
        <time>2019-04-13T05:41:02Z</time>
      </trkpt>
      <trkpt lat="48.01259" lon="6.8891">
        <ele>689</ele>
        <time>2019-04-13T05:42:02Z</time>
      </trkpt>
      <trkpt lat="48.01268" lon="6.88918">
        <ele>689</ele>
        <time>2019-04-13T05:43:02Z</time>
      </trkpt>
      <trkpt lat="48.01287" lon="6.88924">
        <ele>690</ele>
        <time>2019-04-13T05:44:02Z</time>
      </trkpt>
      <trkpt lat="48.01388" lon="6.88915">
        <ele>693</ele>
        <time>2019-04-13T05:45:02Z</time>
      </trkpt>
      <trkpt lat="48.01402" lon="6.8892">
        <ele>693</ele>
        <time>2019-04-13T05:46:02Z</time>
      </trkpt>
      <trkpt lat="48.01427" lon="6.88939">
        <ele>695</ele>
        <time>2019-04-13T05:47:02Z</time>
      </trkpt>
      <trkpt lat="48.01438" lon="6.88957">
        <ele>695</ele>
        <time>2019-04-13T05:48:02Z</time>
      </trkpt>
      <trkpt lat="48.01442" lon="6.8897">
        <ele>695</ele>
        <time>2019-04-13T05:49:02Z</time>
      </trkpt>
      <trkpt lat="48.01444" lon="6.88985">
        <ele>694</ele>
        <time>2019-04-13T05:50:02Z</time>
      </trkpt>
      <trkpt lat="48.01443" lon="6.89067">
        <ele>692</ele>
        <time>2019-04-13T05:51:02Z</time>
      </trkpt>
      <trkpt lat="48.01448" lon="6.89107">
        <ele>693</ele>
        <time>2019-04-13T05:52:02Z</time>
      </trkpt>
      <trkpt lat="48.01458" lon="6.89155">
        <ele>693</ele>
        <time>2019-04-13T05:53:02Z</time>
      </trkpt>
      <trkpt lat="48.01471" lon="6.89196">
        <ele>693</ele>
        <time>2019-04-13T05:54:02Z</time>
      </trkpt>
      <trkpt lat="48.01478" lon="6.89213">
        <ele>693</ele>
        <time>2019-04-13T05:55:02Z</time>
      </trkpt>
      <trkpt lat="48.01504" lon="6.89267">
        <ele>693</ele>
        <time>2019-04-13T05:56:02Z</time>
      </trkpt>
      <trkpt lat="48.01512" lon="6.89277">
        <ele>694</ele>
        <time>2019-04-13T05:57:02Z</time>
      </trkpt>
      <trkpt lat="48.01512" lon="6.89277">
        <ele>694</ele>
        <time>2019-04-13T05:58:02Z</time>
      </trkpt>
      <trkpt lat="48.01539" lon="6.89313">
        <ele>696</ele>
        <time>2019-04-13T05:59:02Z</time>
      </trkpt>
      <trkpt lat="48.01598" lon="6.89375">
        <ele>697</ele>
        <time>2019-04-13T06:00:02Z</time>
      </trkpt>
      <trkpt lat="48.01609" lon="6.8939">
        <ele>698</ele>
        <time>2019-04-13T06:01:02Z</time>
      </trkpt>
      <trkpt lat="48.01775" lon="6.89671">
        <ele>707</ele>
        <time>2019-04-13T06:02:02Z</time>
      </trkpt>
      <trkpt lat="48.01806" lon="6.89717">
        <ele>711</ele>
        <time>2019-04-13T06:03:02Z</time>
      </trkpt>
      <trkpt lat="48.01833" lon="6.89766">
        <ele>715</ele>
        <time>2019-04-13T06:04:02Z</time>
      </trkpt>
      <trkpt lat="48.01866" lon="6.89845">
        <ele>720</ele>
        <time>2019-04-13T06:05:02Z</time>
      </trkpt>
      <trkpt lat="48.01884" lon="6.89896">
        <ele>721</ele>
        <time>2019-04-13T06:06:02Z</time>
      </trkpt>
      <trkpt lat="48.0193" lon="6.90048">
        <ele>725</ele>
        <time>2019-04-13T06:07:02Z</time>
      </trkpt>
      <trkpt lat="48.01957" lon="6.90134">
        <ele>729</ele>
        <time>2019-04-13T06:08:02Z</time>
      </trkpt>
      <trkpt lat="48.01964" lon="6.90151">
        <ele>730</ele>
        <time>2019-04-13T06:09:02Z</time>
      </trkpt>
      <trkpt lat="48.01974" lon="6.90168">
        <ele>730</ele>
        <time>2019-04-13T06:10:02Z</time>
      </trkpt>
      <trkpt lat="48.02004" lon="6.90204">
        <ele>731</ele>
        <time>2019-04-13T06:11:02Z</time>
      </trkpt>
      <trkpt lat="48.02024" lon="6.90233">
        <ele>735</ele>
        <time>2019-04-13T06:12:02Z</time>
      </trkpt>
      <trkpt lat="48.0206" lon="6.9031">
        <ele>740</ele>
        <time>2019-04-13T06:13:02Z</time>
      </trkpt>
      <trkpt lat="48.02069" lon="6.90322">
        <ele>740</ele>
        <time>2019-04-13T06:14:02Z</time>
      </trkpt>
      <trkpt lat="48.02074" lon="6.90325">
        <ele>740</ele>
        <time>2019-04-13T06:15:02Z</time>
      </trkpt>
      <trkpt lat="48.02103" lon="6.90329">
        <ele>741</ele>
        <time>2019-04-13T06:16:02Z</time>
      </trkpt>
      <trkpt lat="48.02111" lon="6.90333">
        <ele>741</ele>
        <time>2019-04-13T06:17:02Z</time>
      </trkpt>
      <trkpt lat="48.0212" lon="6.90343">
        <ele>742</ele>
        <time>2019-04-13T06:18:02Z</time>
      </trkpt>
      <trkpt lat="48.02157" lon="6.90412">
        <ele>737</ele>
        <time>2019-04-13T06:19:02Z</time>
      </trkpt>
      <trkpt lat="48.02236" lon="6.90548">
        <ele>745</ele>
        <time>2019-04-13T06:20:02Z</time>
      </trkpt>
      <trkpt lat="48.02251" lon="6.90583">
        <ele>744</ele>
        <time>2019-04-13T06:21:02Z</time>
      </trkpt>
      <trkpt lat="48.02268" lon="6.90648">
        <ele>748</ele>
        <time>2019-04-13T06:22:02Z</time>
      </trkpt>
      <trkpt lat="48.02281" lon="6.90679">
        <ele>750</ele>
        <time>2019-04-13T06:23:02Z</time>
      </trkpt>
      <trkpt lat="48.02324" lon="6.90743">
        <ele>753</ele>
        <time>2019-04-13T06:24:02Z</time>
      </trkpt>
      <trkpt lat="48.02363" lon="6.90796">
        <ele>760</ele>
        <time>2019-04-13T06:25:02Z</time>
      </trkpt>
      <trkpt lat="48.0238" lon="6.90828">
        <ele>761</ele>
        <time>2019-04-13T06:26:02Z</time>
      </trkpt>
      <trkpt lat="48.02391" lon="6.90858">
        <ele>762</ele>
        <time>2019-04-13T06:27:02Z</time>
      </trkpt>
      <trkpt lat="48.02397" lon="6.90881">
        <ele>762</ele>
        <time>2019-04-13T06:28:02Z</time>
      </trkpt>
      <trkpt lat="48.02419" lon="6.90988">
        <ele>761</ele>
        <time>2019-04-13T06:29:02Z</time>
      </trkpt>
      <trkpt lat="48.02429" lon="6.91071">
        <ele>766</ele>
        <time>2019-04-13T06:30:02Z</time>
      </trkpt>
      <trkpt lat="48.02435" lon="6.91104">
        <ele>768</ele>
        <time>2019-04-13T06:31:02Z</time>
      </trkpt>
      <trkpt lat="48.02443" lon="6.91126">
        <ele>769</ele>
        <time>2019-04-13T06:32:02Z</time>
      </trkpt>
      <trkpt lat="48.02454" lon="6.91147">
        <ele>770</ele>
        <time>2019-04-13T06:33:02Z</time>
      </trkpt>
      <trkpt lat="48.02494" lon="6.91206">
        <ele>771</ele>
        <time>2019-04-13T06:34:02Z</time>
      </trkpt>
      <trkpt lat="48.02525" lon="6.91256">
        <ele>774</ele>
        <time>2019-04-13T06:35:02Z</time>
      </trkpt>
      <trkpt lat="48.02596" lon="6.91432">
        <ele>787</ele>
        <time>2019-04-13T06:36:02Z</time>
      </trkpt>
      <trkpt lat="48.02643" lon="6.91525">
        <ele>795</ele>
        <time>2019-04-13T06:37:02Z</time>
      </trkpt>
      <trkpt lat="48.02663" lon="6.91597">
        <ele>792</ele>
        <time>2019-04-13T06:38:02Z</time>
      </trkpt>
      <trkpt lat="48.02697" lon="6.91675">
        <ele>795</ele>
        <time>2019-04-13T06:39:02Z</time>
      </trkpt>
      <trkpt lat="48.02715" lon="6.91715">
        <ele>796</ele>
        <time>2019-04-13T06:40:02Z</time>
      </trkpt>
      <trkpt lat="48.0274" lon="6.91755">
        <ele>792</ele>
        <time>2019-04-13T06:41:02Z</time>
      </trkpt>
      <trkpt lat="48.02768" lon="6.91794">
        <ele>794</ele>
        <time>2019-04-13T06:42:02Z</time>
      </trkpt>
      <trkpt lat="48.02787" lon="6.91806">
        <ele>795</ele>
        <time>2019-04-13T06:43:02Z</time>
      </trkpt>
      <trkpt lat="48.02823" lon="6.91822">
        <ele>796</ele>
        <time>2019-04-13T06:44:02Z</time>
      </trkpt>
      <trkpt lat="48.02843" lon="6.9184">
        <ele>797</ele>
        <time>2019-04-13T06:45:02Z</time>
      </trkpt>
      <trkpt lat="48.02879" lon="6.91882">
        <ele>803</ele>
        <time>2019-04-13T06:46:02Z</time>
      </trkpt>
      <trkpt lat="48.02927" lon="6.91909">
        <ele>804</ele>
        <time>2019-04-13T06:47:02Z</time>
      </trkpt>
      <trkpt lat="48.02942" lon="6.91929">
        <ele>805</ele>
        <time>2019-04-13T06:48:02Z</time>
      </trkpt>
      <trkpt lat="48.02971" lon="6.91997">
        <ele>805</ele>
        <time>2019-04-13T06:49:02Z</time>
      </trkpt>
      <trkpt lat="48.02983" lon="6.92014">
        <ele>807</ele>
        <time>2019-04-13T06:50:02Z</time>
      </trkpt>
      <trkpt lat="48.02996" lon="6.92024">
        <ele>807</ele>
        <time>2019-04-13T06:51:02Z</time>
      </trkpt>
      <trkpt lat="48.03017" lon="6.92033">
        <ele>808</ele>
        <time>2019-04-13T06:52:02Z</time>
      </trkpt>
      <trkpt lat="48.03055" lon="6.92044">
        <ele>809</ele>
        <time>2019-04-13T06:53:02Z</time>
      </trkpt>
      <trkpt lat="48.03113" lon="6.92054">
        <ele>811</ele>
        <time>2019-04-13T06:54:02Z</time>
      </trkpt>
      <trkpt lat="48.0315" lon="6.92075">
        <ele>812</ele>
        <time>2019-04-13T06:55:02Z</time>
      </trkpt>
      <trkpt lat="48.03201" lon="6.9211">
        <ele>813</ele>
        <time>2019-04-13T06:56:02Z</time>
      </trkpt>
      <trkpt lat="48.03234" lon="6.9215">
        <ele>813</ele>
        <time>2019-04-13T06:57:02Z</time>
      </trkpt>
      <trkpt lat="48.03267" lon="6.92178">
        <ele>815</ele>
        <time>2019-04-13T06:58:02Z</time>
      </trkpt>
      <trkpt lat="48.03287" lon="6.92187">
        <ele>816</ele>
        <time>2019-04-13T06:59:02Z</time>
      </trkpt>
      <trkpt lat="48.0335" lon="6.922">
        <ele>821</ele>
        <time>2019-04-13T07:00:02Z</time>
      </trkpt>
      <trkpt lat="48.03369" lon="6.92201">
        <ele>822</ele>
        <time>2019-04-13T07:01:02Z</time>
      </trkpt>
      <trkpt lat="48.03386" lon="6.92214">
        <ele>823</ele>
        <time>2019-04-13T07:02:02Z</time>
      </trkpt>
      <trkpt lat="48.03396" lon="6.9223">
        <ele>823</ele>
        <time>2019-04-13T07:03:02Z</time>
      </trkpt>
      <trkpt lat="48.03401" lon="6.92245">
        <ele>823</ele>
        <time>2019-04-13T07:04:02Z</time>
      </trkpt>
      <trkpt lat="48.03407" lon="6.92295">
        <ele>823</ele>
        <time>2019-04-13T07:05:02Z</time>
      </trkpt>
      <trkpt lat="48.03413" lon="6.92317">
        <ele>822</ele>
        <time>2019-04-13T07:06:02Z</time>
      </trkpt>
      <trkpt lat="48.03425" lon="6.92334">
        <ele>822</ele>
        <time>2019-04-13T07:07:02Z</time>
      </trkpt>
      <trkpt lat="48.03469" lon="6.9238">
        <ele>825</ele>
        <time>2019-04-13T07:08:02Z</time>
      </trkpt>
      <trkpt lat="48.03494" lon="6.92398">
        <ele>825</ele>
        <time>2019-04-13T07:09:02Z</time>
      </trkpt>
      <trkpt lat="48.03532" lon="6.92422">
        <ele>829</ele>
        <time>2019-04-13T07:10:02Z</time>
      </trkpt>
      <trkpt lat="48.03537" lon="6.92427">
        <ele>829</ele>
        <time>2019-04-13T07:11:02Z</time>
      </trkpt>
      <trkpt lat="48.03543" lon="6.92442">
        <ele>831</ele>
        <time>2019-04-13T07:12:02Z</time>
      </trkpt>
      <trkpt lat="48.03545" lon="6.92455">
        <ele>831</ele>
        <time>2019-04-13T07:13:02Z</time>
      </trkpt>
      <trkpt lat="48.03543" lon="6.92484">
        <ele>832</ele>
        <time>2019-04-13T07:14:02Z</time>
      </trkpt>
      <trkpt lat="48.03545" lon="6.92506">
        <ele>833</ele>
        <time>2019-04-13T07:15:02Z</time>
      </trkpt>
      <trkpt lat="48.03549" lon="6.92523">
        <ele>834</ele>
        <time>2019-04-13T07:16:02Z</time>
      </trkpt>
      <trkpt lat="48.03557" lon="6.92537">
        <ele>835</ele>
        <time>2019-04-13T07:17:02Z</time>
      </trkpt>
      <trkpt lat="48.03625" lon="6.92619">
        <ele>844</ele>
        <time>2019-04-13T07:18:02Z</time>
      </trkpt>
      <trkpt lat="48.03637" lon="6.92637">
        <ele>846</ele>
        <time>2019-04-13T07:19:02Z</time>
      </trkpt>
      <trkpt lat="48.03666" lon="6.92711">
        <ele>849</ele>
        <time>2019-04-13T07:20:02Z</time>
      </trkpt>
      <trkpt lat="48.03671" lon="6.92721">
        <ele>849</ele>
        <time>2019-04-13T07:21:02Z</time>
      </trkpt>
      <trkpt lat="48.03677" lon="6.92726">
        <ele>850</ele>
        <time>2019-04-13T07:22:02Z</time>
      </trkpt>
      <trkpt lat="48.03791" lon="6.92798">
        <ele>856</ele>
        <time>2019-04-13T07:23:02Z</time>
      </trkpt>
      <trkpt lat="48.0388" lon="6.92858">
        <ele>864</ele>
        <time>2019-04-13T07:24:02Z</time>
      </trkpt>
      <trkpt lat="48.03889" lon="6.92867">
        <ele>865</ele>
        <time>2019-04-13T07:25:02Z</time>
      </trkpt>
      <trkpt lat="48.03897" lon="6.92881">
        <ele>864</ele>
        <time>2019-04-13T07:26:02Z</time>
      </trkpt>
      <trkpt lat="48.03908" lon="6.9292">
        <ele>861</ele>
        <time>2019-04-13T07:27:02Z</time>
      </trkpt>
      <trkpt lat="48.03918" lon="6.92943">
        <ele>860</ele>
        <time>2019-04-13T07:28:02Z</time>
      </trkpt>
      <trkpt lat="48.03948" lon="6.92989">
        <ele>860</ele>
        <time>2019-04-13T07:29:02Z</time>
      </trkpt>
      <trkpt lat="48.03968" lon="6.93012">
        <ele>860</ele>
        <time>2019-04-13T07:30:02Z</time>
      </trkpt>
      <trkpt lat="48.03982" lon="6.93036">
        <ele>860</ele>
        <time>2019-04-13T07:31:02Z</time>
      </trkpt>
      <trkpt lat="48.0399" lon="6.93057">
        <ele>860</ele>
        <time>2019-04-13T07:32:02Z</time>
      </trkpt>
      <trkpt lat="48.04008" lon="6.93085">
        <ele>860</ele>
        <time>2019-04-13T07:33:02Z</time>
      </trkpt>
      <trkpt lat="48.04024" lon="6.93103">
        <ele>861</ele>
        <time>2019-04-13T07:34:02Z</time>
      </trkpt>
      <trkpt lat="48.04058" lon="6.93131">
        <ele>861</ele>
        <time>2019-04-13T07:35:02Z</time>
      </trkpt>
      <trkpt lat="48.04084" lon="6.93146">
        <ele>861</ele>
        <time>2019-04-13T07:36:02Z</time>
      </trkpt>
      <trkpt lat="48.04107" lon="6.93156">
        <ele>861</ele>
        <time>2019-04-13T07:37:02Z</time>
      </trkpt>
      <trkpt lat="48.04176" lon="6.93173">
        <ele>863</ele>
        <time>2019-04-13T07:38:02Z</time>
      </trkpt>
      <trkpt lat="48.04206" lon="6.93184">
        <ele>864</ele>
        <time>2019-04-13T07:39:02Z</time>
      </trkpt>
      <trkpt lat="48.04253" lon="6.93207">
        <ele>863</ele>
        <time>2019-04-13T07:40:02Z</time>
      </trkpt>
      <trkpt lat="48.04322" lon="6.93252">
        <ele>862</ele>
        <time>2019-04-13T07:41:02Z</time>
      </trkpt>
      <trkpt lat="48.04336" lon="6.93263">
        <ele>863</ele>
        <time>2019-04-13T07:42:02Z</time>
      </trkpt>
      <trkpt lat="48.04348" lon="6.93277">
        <ele>864</ele>
        <time>2019-04-13T07:43:02Z</time>
      </trkpt>
      <trkpt lat="48.04367" lon="6.93307">
        <ele>866</ele>
        <time>2019-04-13T07:44:02Z</time>
      </trkpt>
      <trkpt lat="48.04379" lon="6.93331">
        <ele>867</ele>
        <time>2019-04-13T07:45:02Z</time>
      </trkpt>
      <trkpt lat="48.04391" lon="6.93374">
        <ele>871</ele>
        <time>2019-04-13T07:46:02Z</time>
      </trkpt>
      <trkpt lat="48.04397" lon="6.93386">
        <ele>872</ele>
        <time>2019-04-13T07:47:02Z</time>
      </trkpt>
      <trkpt lat="48.04406" lon="6.93395">
        <ele>872</ele>
        <time>2019-04-13T07:48:02Z</time>
      </trkpt>
      <trkpt lat="48.04417" lon="6.93399">
        <ele>872</ele>
        <time>2019-04-13T07:49:02Z</time>
      </trkpt>
      <trkpt lat="48.04428" lon="6.934">
        <ele>873</ele>
        <time>2019-04-13T07:50:02Z</time>
      </trkpt>
      <trkpt lat="48.04502" lon="6.93391">
        <ele>876</ele>
        <time>2019-04-13T07:51:02Z</time>
      </trkpt>
      <trkpt lat="48.04522" lon="6.93394">
        <ele>874</ele>
        <time>2019-04-13T07:52:02Z</time>
      </trkpt>
      <trkpt lat="48.0453" lon="6.93399">
        <ele>874</ele>
        <time>2019-04-13T07:53:02Z</time>
      </trkpt>
      <trkpt lat="48.04535" lon="6.93408">
        <ele>874</ele>
        <time>2019-04-13T07:54:02Z</time>
      </trkpt>
      <trkpt lat="48.0454" lon="6.93422">
        <ele>875</ele>
        <time>2019-04-13T07:55:02Z</time>
      </trkpt>
      <trkpt lat="48.0454" lon="6.93433">
        <ele>876</ele>
        <time>2019-04-13T07:56:02Z</time>
      </trkpt>
      <trkpt lat="48.0453" lon="6.93474">
        <ele>884</ele>
        <time>2019-04-13T07:57:02Z</time>
      </trkpt>
      <trkpt lat="48.04526" lon="6.93494">
        <ele>887</ele>
        <time>2019-04-13T07:58:02Z</time>
      </trkpt>
      <trkpt lat="48.04529" lon="6.9351">
        <ele>889</ele>
        <time>2019-04-13T07:59:02Z</time>
      </trkpt>
      <trkpt lat="48.0454" lon="6.93529">
        <ele>891</ele>
        <time>2019-04-13T08:00:02Z</time>
      </trkpt>
      <trkpt lat="48.04601" lon="6.93605">
        <ele>895</ele>
        <time>2019-04-13T08:01:02Z</time>
      </trkpt>
      <trkpt lat="48.04614" lon="6.93616">
        <ele>896</ele>
        <time>2019-04-13T08:02:02Z</time>
      </trkpt>
      <trkpt lat="48.04657" lon="6.93633">
        <ele>895</ele>
        <time>2019-04-13T08:03:02Z</time>
      </trkpt>
      <trkpt lat="48.04683" lon="6.93647">
        <ele>895</ele>
        <time>2019-04-13T08:04:02Z</time>
      </trkpt>
      <trkpt lat="48.0473" lon="6.93681">
        <ele>897</ele>
        <time>2019-04-13T08:05:02Z</time>
      </trkpt>
      <trkpt lat="48.04778" lon="6.93724">
        <ele>898</ele>
        <time>2019-04-13T08:06:02Z</time>
      </trkpt>
      <trkpt lat="48.04875" lon="6.93853">
        <ele>907</ele>
        <time>2019-04-13T08:07:02Z</time>
      </trkpt>
      <trkpt lat="48.04875" lon="6.93853">
        <ele>907</ele>
        <time>2019-04-13T08:08:02Z</time>
      </trkpt>
      <trkpt lat="48.04918" lon="6.93903">
        <ele>908</ele>
        <time>2019-04-13T08:09:02Z</time>
      </trkpt>
      <trkpt lat="48.04983" lon="6.93992">
        <ele>913</ele>
        <time>2019-04-13T08:10:02Z</time>
      </trkpt>
      <trkpt lat="48.05036" lon="6.94049">
        <ele>915</ele>
        <time>2019-04-13T08:11:02Z</time>
      </trkpt>
      <trkpt lat="48.05045" lon="6.94063">
        <ele>916</ele>
        <time>2019-04-13T08:12:02Z</time>
      </trkpt>
      <trkpt lat="48.05049" lon="6.94072">
        <ele>916</ele>
        <time>2019-04-13T08:13:02Z</time>
      </trkpt>
      <trkpt lat="48.05063" lon="6.94118">
        <ele>917</ele>
        <time>2019-04-13T08:14:02Z</time>
      </trkpt>
      <trkpt lat="48.05073" lon="6.94146">
        <ele>916</ele>
        <time>2019-04-13T08:15:02Z</time>
      </trkpt>
      <trkpt lat="48.05121" lon="6.94242">
        <ele>915</ele>
        <time>2019-04-13T08:16:02Z</time>
      </trkpt>
      <trkpt lat="48.05176" lon="6.94342">
        <ele>910</ele>
        <time>2019-04-13T08:17:02Z</time>
      </trkpt>
      <trkpt lat="48.0519" lon="6.94381">
        <ele>911</ele>
        <time>2019-04-13T08:18:02Z</time>
      </trkpt>
      <trkpt lat="48.05245" lon="6.94545">
        <ele>910</ele>
        <time>2019-04-13T08:19:02Z</time>
      </trkpt>
      <trkpt lat="48.05255" lon="6.9457">
        <ele>911</ele>
        <time>2019-04-13T08:20:02Z</time>
      </trkpt>
      <trkpt lat="48.05286" lon="6.94634">
        <ele>913</ele>
        <time>2019-04-13T08:21:02Z</time>
      </trkpt>
      <trkpt lat="48.05291" lon="6.94655">
        <ele>913</ele>
        <time>2019-04-13T08:22:02Z</time>
      </trkpt>
      <trkpt lat="48.05294" lon="6.94708">
        <ele>916</ele>
        <time>2019-04-13T08:23:02Z</time>
      </trkpt>
      <trkpt lat="48.05293" lon="6.94751">
        <ele>918</ele>
        <time>2019-04-13T08:24:02Z</time>
      </trkpt>
      <trkpt lat="48.0529" lon="6.9477">
        <ele>920</ele>
        <time>2019-04-13T08:25:02Z</time>
      </trkpt>
      <trkpt lat="48.05286" lon="6.94783">
        <ele>921</ele>
        <time>2019-04-13T08:26:02Z</time>
      </trkpt>
      <trkpt lat="48.05273" lon="6.94803">
        <ele>921</ele>
        <time>2019-04-13T08:27:02Z</time>
      </trkpt>
      <trkpt lat="48.05257" lon="6.9482">
        <ele>920</ele>
        <time>2019-04-13T08:28:02Z</time>
      </trkpt>
      <trkpt lat="48.05188" lon="6.94861">
        <ele>925</ele>
        <time>2019-04-13T08:29:02Z</time>
      </trkpt>
      <trkpt lat="48.05169" lon="6.9488">
        <ele>926</ele>
        <time>2019-04-13T08:30:02Z</time>
      </trkpt>
      <trkpt lat="48.05127" lon="6.94915">
        <ele>928</ele>
        <time>2019-04-13T08:31:02Z</time>
      </trkpt>
      <trkpt lat="48.05115" lon="6.9493">
        <ele>929</ele>
        <time>2019-04-13T08:32:02Z</time>
      </trkpt>
      <trkpt lat="48.05108" lon="6.94943">
        <ele>931</ele>
        <time>2019-04-13T08:33:02Z</time>
      </trkpt>
      <trkpt lat="48.05101" lon="6.94968">
        <ele>933</ele>
        <time>2019-04-13T08:34:02Z</time>
      </trkpt>
      <trkpt lat="48.05086" lon="6.94999">
        <ele>936</ele>
        <time>2019-04-13T08:35:02Z</time>
      </trkpt>
      <trkpt lat="48.05043" lon="6.95062">
        <ele>939</ele>
        <time>2019-04-13T08:36:02Z</time>
      </trkpt>
      <trkpt lat="48.0503" lon="6.95084">
        <ele>939</ele>
        <time>2019-04-13T08:37:02Z</time>
      </trkpt>
      <trkpt lat="48.04999" lon="6.95174">
        <ele>945</ele>
        <time>2019-04-13T08:38:02Z</time>
      </trkpt>
      <trkpt lat="48.04933" lon="6.9532">
        <ele>952</ele>
        <time>2019-04-13T08:39:02Z</time>
      </trkpt>
      <trkpt lat="48.04916" lon="6.95399">
        <ele>961</ele>
        <time>2019-04-13T08:40:02Z</time>
      </trkpt>
      <trkpt lat="48.04868" lon="6.95545">
        <ele>970</ele>
        <time>2019-04-13T08:41:02Z</time>
      </trkpt>
      <trkpt lat="48.04855" lon="6.95635">
        <ele>974</ele>
        <time>2019-04-13T08:42:02Z</time>
      </trkpt>
      <trkpt lat="48.04843" lon="6.95835">
        <ele>980</ele>
        <time>2019-04-13T08:43:02Z</time>
      </trkpt>
      <trkpt lat="48.04835" lon="6.95883">
        <ele>979</ele>
        <time>2019-04-13T08:44:02Z</time>
      </trkpt>
      <trkpt lat="48.04835" lon="6.95973">
        <ele>981</ele>
        <time>2019-04-13T08:45:02Z</time>
      </trkpt>
      <trkpt lat="48.04827" lon="6.96093">
        <ele>982</ele>
        <time>2019-04-13T08:46:02Z</time>
      </trkpt>
      <trkpt lat="48.04831" lon="6.96113">
        <ele>983</ele>
        <time>2019-04-13T08:47:02Z</time>
      </trkpt>
      <trkpt lat="48.04841" lon="6.96144">
        <ele>985</ele>
        <time>2019-04-13T08:48:02Z</time>
      </trkpt>
      <trkpt lat="48.04844" lon="6.96159">
        <ele>985</ele>
        <time>2019-04-13T08:49:02Z</time>
      </trkpt>
      <trkpt lat="48.04844" lon="6.96185">
        <ele>985</ele>
        <time>2019-04-13T08:50:02Z</time>
      </trkpt>
      <trkpt lat="48.04836" lon="6.96234">
        <ele>986</ele>
        <time>2019-04-13T08:51:02Z</time>
      </trkpt>
      <trkpt lat="48.0482" lon="6.96327">
        <ele>990</ele>
        <time>2019-04-13T08:52:02Z</time>
      </trkpt>
      <trkpt lat="48.04817" lon="6.96382">
        <ele>992</ele>
        <time>2019-04-13T08:53:02Z</time>
      </trkpt>
      <trkpt lat="48.04813" lon="6.96439">
        <ele>992</ele>
        <time>2019-04-13T08:54:02Z</time>
      </trkpt>
      <trkpt lat="48.04806" lon="6.96458">
        <ele>992</ele>
        <time>2019-04-13T08:55:02Z</time>
      </trkpt>
      <trkpt lat="48.04763" lon="6.96528">
        <ele>991</ele>
        <time>2019-04-13T08:56:02Z</time>
      </trkpt>
      <trkpt lat="48.04751" lon="6.96562">
        <ele>991</ele>
        <time>2019-04-13T08:57:02Z</time>
      </trkpt>
      <trkpt lat="48.04744" lon="6.96592">
        <ele>992</ele>
        <time>2019-04-13T08:58:02Z</time>
      </trkpt>
      <trkpt lat="48.04741" lon="6.9664">
        <ele>994</ele>
        <time>2019-04-13T08:59:02Z</time>
      </trkpt>
      <trkpt lat="48.04746" lon="6.96709">
        <ele>995</ele>
        <time>2019-04-13T09:00:02Z</time>
      </trkpt>
      <trkpt lat="48.04744" lon="6.96736">
        <ele>996</ele>
        <time>2019-04-13T09:01:02Z</time>
      </trkpt>
      <trkpt lat="48.04728" lon="6.96804">
        <ele>998</ele>
        <time>2019-04-13T09:02:02Z</time>
      </trkpt>
      <trkpt lat="48.04701" lon="6.96871">
        <ele>997</ele>
        <time>2019-04-13T09:03:02Z</time>
      </trkpt>
      <trkpt lat="48.047" lon="6.96884">
        <ele>997</ele>
        <time>2019-04-13T09:04:02Z</time>
      </trkpt>
      <trkpt lat="48.04701" lon="6.96898">
        <ele>996</ele>
        <time>2019-04-13T09:05:02Z</time>
      </trkpt>
      <trkpt lat="48.0473" lon="6.97046">
        <ele>988</ele>
        <time>2019-04-13T09:06:02Z</time>
      </trkpt>
      <trkpt lat="48.04734" lon="6.97107">
        <ele>986</ele>
        <time>2019-04-13T09:07:02Z</time>
      </trkpt>
      <trkpt lat="48.0473" lon="6.97138">
        <ele>984</ele>
        <time>2019-04-13T09:08:02Z</time>
      </trkpt>
      <trkpt lat="48.04727" lon="6.9715">
        <ele>983</ele>
        <time>2019-04-13T09:09:02Z</time>
      </trkpt>
      <trkpt lat="48.04727" lon="6.9715">
        <ele>983</ele>
        <time>2019-04-13T09:10:02Z</time>
      </trkpt>
      <trkpt lat="48.04719" lon="6.97175">
        <ele>979</ele>
        <time>2019-04-13T09:11:02Z</time>
      </trkpt>
      <trkpt lat="48.04718" lon="6.97193">
        <ele>977</ele>
        <time>2019-04-13T09:12:02Z</time>
      </trkpt>
      <trkpt lat="48.0472" lon="6.97215">
        <ele>975</ele>
        <time>2019-04-13T09:13:02Z</time>
      </trkpt>
      <trkpt lat="48.04741" lon="6.97275">
        <ele>973</ele>
        <time>2019-04-13T09:14:02Z</time>
      </trkpt>
      <trkpt lat="48.04753" lon="6.973">
        <ele>971</ele>
        <time>2019-04-13T09:15:02Z</time>
      </trkpt>
      <trkpt lat="48.04772" lon="6.97326">
        <ele>972</ele>
        <time>2019-04-13T09:16:02Z</time>
      </trkpt>
      <trkpt lat="48.04781" lon="6.97351">
        <ele>972</ele>
        <time>2019-04-13T09:17:02Z</time>
      </trkpt>
      <trkpt lat="48.04784" lon="6.97371">
        <ele>970</ele>
        <time>2019-04-13T09:18:02Z</time>
      </trkpt>
      <trkpt lat="48.04783" lon="6.97436">
        <ele>963</ele>
        <time>2019-04-13T09:19:02Z</time>
      </trkpt>
      <trkpt lat="48.04776" lon="6.97479">
        <ele>960</ele>
        <time>2019-04-13T09:20:02Z</time>
      </trkpt>
      <trkpt lat="48.04769" lon="6.97514">
        <ele>958</ele>
        <time>2019-04-13T09:21:02Z</time>
      </trkpt>
      <trkpt lat="48.0476" lon="6.9758">
        <ele>959</ele>
        <time>2019-04-13T09:22:02Z</time>
      </trkpt>
      <trkpt lat="48.04776" lon="6.97591">
        <ele>961</ele>
        <time>2019-04-13T09:23:02Z</time>
      </trkpt>
      <trkpt lat="48.04785" lon="6.97601">
        <ele>962</ele>
        <time>2019-04-13T09:24:02Z</time>
      </trkpt>
      <trkpt lat="48.04812" lon="6.97637">
        <ele>962</ele>
        <time>2019-04-13T09:25:02Z</time>
      </trkpt>
      <trkpt lat="48.04838" lon="6.97676">
        <ele>960</ele>
        <time>2019-04-13T09:26:02Z</time>
      </trkpt>
      <trkpt lat="48.0485" lon="6.97703">
        <ele>958</ele>
        <time>2019-04-13T09:27:02Z</time>
      </trkpt>
      <trkpt lat="48.04873" lon="6.97798">
        <ele>961</ele>
        <time>2019-04-13T09:28:02Z</time>
      </trkpt>
      <trkpt lat="48.04925" lon="6.97887">
        <ele>950</ele>
        <time>2019-04-13T09:29:02Z</time>
      </trkpt>
      <trkpt lat="48.04946" lon="6.97934">
        <ele>949</ele>
        <time>2019-04-13T09:30:02Z</time>
      </trkpt>
      <trkpt lat="48.04982" lon="6.98057">
        <ele>945</ele>
        <time>2019-04-13T09:31:02Z</time>
      </trkpt>
      <trkpt lat="48.04988" lon="6.98084">
        <ele>944</ele>
        <time>2019-04-13T09:32:02Z</time>
      </trkpt>
      <trkpt lat="48.04992" lon="6.98107">
        <ele>943</ele>
        <time>2019-04-13T09:33:02Z</time>
      </trkpt>
      <trkpt lat="48.04996" lon="6.98154">
        <ele>944</ele>
        <time>2019-04-13T09:34:02Z</time>
      </trkpt>
      <trkpt lat="48.05021" lon="6.98263">
        <ele>933</ele>
        <time>2019-04-13T09:35:02Z</time>
      </trkpt>
      <trkpt lat="48.05026" lon="6.98299">
        <ele>931</ele>
        <time>2019-04-13T09:36:02Z</time>
      </trkpt>
      <trkpt lat="48.05025" lon="6.98326">
        <ele>932</ele>
        <time>2019-04-13T09:37:02Z</time>
      </trkpt>
      <trkpt lat="48.05022" lon="6.98349">
        <ele>934</ele>
        <time>2019-04-13T09:38:02Z</time>
      </trkpt>
      <trkpt lat="48.05012" lon="6.98384">
        <ele>940</ele>
        <time>2019-04-13T09:39:02Z</time>
      </trkpt>
      <trkpt lat="48.05006" lon="6.9842">
        <ele>942</ele>
        <time>2019-04-13T09:40:02Z</time>
      </trkpt>
      <trkpt lat="48.05007" lon="6.98442">
        <ele>939</ele>
        <time>2019-04-13T09:41:02Z</time>
      </trkpt>
      <trkpt lat="48.05012" lon="6.98485">
        <ele>931</ele>
        <time>2019-04-13T09:42:02Z</time>
      </trkpt>
      <trkpt lat="48.05011" lon="6.98502">
        <ele>930</ele>
        <time>2019-04-13T09:43:02Z</time>
      </trkpt>
      <trkpt lat="48.05004" lon="6.98551">
        <ele>932</ele>
        <time>2019-04-13T09:44:02Z</time>
      </trkpt>
      <trkpt lat="48.04995" lon="6.98688">
        <ele>925</ele>
        <time>2019-04-13T09:45:02Z</time>
      </trkpt>
      <trkpt lat="48.0499" lon="6.98715">
        <ele>923</ele>
        <time>2019-04-13T09:46:02Z</time>
      </trkpt>
      <trkpt lat="48.0498" lon="6.98742">
        <ele>923</ele>
        <time>2019-04-13T09:47:02Z</time>
      </trkpt>
      <trkpt lat="48.04902" lon="6.98833">
        <ele>941</ele>
        <time>2019-04-13T09:48:02Z</time>
      </trkpt>
      <trkpt lat="48.04887" lon="6.98864">
        <ele>943</ele>
        <time>2019-04-13T09:49:02Z</time>
      </trkpt>
      <trkpt lat="48.04884" lon="6.98883">
        <ele>942</ele>
        <time>2019-04-13T09:50:02Z</time>
      </trkpt>
      <trkpt lat="48.04885" lon="6.98902">
        <ele>940</ele>
        <time>2019-04-13T09:51:02Z</time>
      </trkpt>
      <trkpt lat="48.0489" lon="6.98919">
        <ele>937</ele>
        <time>2019-04-13T09:52:02Z</time>
      </trkpt>
      <trkpt lat="48.04892" lon="6.98969">
        <ele>937</ele>
        <time>2019-04-13T09:53:02Z</time>
      </trkpt>
      <trkpt lat="48.04891" lon="6.98983">
        <ele>937</ele>
        <time>2019-04-13T09:54:02Z</time>
      </trkpt>
      <trkpt lat="48.04888" lon="6.98996">
        <ele>938</ele>
        <time>2019-04-13T09:55:02Z</time>
      </trkpt>
      <trkpt lat="48.04856" lon="6.99054">
        <ele>947</ele>
        <time>2019-04-13T09:56:02Z</time>
      </trkpt>
      <trkpt lat="48.04853" lon="6.99067">
        <ele>948</ele>
        <time>2019-04-13T09:57:02Z</time>
      </trkpt>
      <trkpt lat="48.04852" lon="6.9908">
        <ele>948</ele>
        <time>2019-04-13T09:58:02Z</time>
      </trkpt>
      <trkpt lat="48.04857" lon="6.99132">
        <ele>949</ele>
        <time>2019-04-13T09:59:02Z</time>
      </trkpt>
      <trkpt lat="48.04856" lon="6.99176">
        <ele>950</ele>
        <time>2019-04-13T10:00:02Z</time>
      </trkpt>
      <trkpt lat="48.04848" lon="6.99214">
        <ele>952</ele>
        <time>2019-04-13T10:01:02Z</time>
      </trkpt>
      <trkpt lat="48.04826" lon="6.99274">
        <ele>959</ele>
        <time>2019-04-13T10:02:02Z</time>
      </trkpt>
      <trkpt lat="48.04825" lon="6.99288">
        <ele>960</ele>
        <time>2019-04-13T10:03:02Z</time>
      </trkpt>
      <trkpt lat="48.04832" lon="6.99372">
        <ele>962</ele>
        <time>2019-04-13T10:04:02Z</time>
      </trkpt>
      <trkpt lat="48.04826" lon="6.99409">
        <ele>965</ele>
        <time>2019-04-13T10:05:02Z</time>
      </trkpt>
      <trkpt lat="48.04813" lon="6.99426">
        <ele>968</ele>
        <time>2019-04-13T10:06:02Z</time>
      </trkpt>
      <trkpt lat="48.04774" lon="6.99451">
        <ele>975</ele>
        <time>2019-04-13T10:07:02Z</time>
      </trkpt>
      <trkpt lat="48.04762" lon="6.99462">
        <ele>976</ele>
        <time>2019-04-13T10:08:02Z</time>
      </trkpt>
      <trkpt lat="48.0466" lon="6.99644">
        <ele>990</ele>
        <time>2019-04-13T10:09:02Z</time>
      </trkpt>
      <trkpt lat="48.04616" lon="6.99702">
        <ele>1002</ele>
        <time>2019-04-13T10:10:02Z</time>
      </trkpt>
      <trkpt lat="48.04597" lon="6.99753">
        <ele>1000</ele>
        <time>2019-04-13T10:11:02Z</time>
      </trkpt>
      <trkpt lat="48.0455" lon="6.99846">
        <ele>1011</ele>
        <time>2019-04-13T10:12:02Z</time>
      </trkpt>
      <trkpt lat="48.04535" lon="6.99915">
        <ele>1014</ele>
        <time>2019-04-13T10:13:02Z</time>
      </trkpt>
      <trkpt lat="48.04538" lon="6.99999">
        <ele>1021</ele>
        <time>2019-04-13T10:14:02Z</time>
      </trkpt>
      <trkpt lat="48.04552" lon="7.00066">
        <ele>1026</ele>
        <time>2019-04-13T10:15:02Z</time>
      </trkpt>
      <trkpt lat="48.04565" lon="7.00119">
        <ele>1029</ele>
        <time>2019-04-13T10:16:02Z</time>
      </trkpt>
      <trkpt lat="48.04596" lon="7.00194">
        <ele>1035</ele>
        <time>2019-04-13T10:17:02Z</time>
      </trkpt>
      <trkpt lat="48.04641" lon="7.00244">
        <ele>1038</ele>
        <time>2019-04-13T10:18:02Z</time>
      </trkpt>
      <trkpt lat="48.04689" lon="7.00274">
        <ele>1042</ele>
        <time>2019-04-13T10:19:02Z</time>
      </trkpt>
      <trkpt lat="48.04727" lon="7.00284">
        <ele>1047</ele>
        <time>2019-04-13T10:20:02Z</time>
      </trkpt>
      <trkpt lat="48.04759" lon="7.00279">
        <ele>1049</ele>
        <time>2019-04-13T10:21:02Z</time>
      </trkpt>
      <trkpt lat="48.04786" lon="7.00251">
        <ele>1048</ele>
        <time>2019-04-13T10:22:02Z</time>
      </trkpt>
      <trkpt lat="48.04808" lon="7.00217">
        <ele>1047</ele>
        <time>2019-04-13T10:23:02Z</time>
      </trkpt>
      <trkpt lat="48.04808" lon="7.00217">
        <ele>1047</ele>
        <time>2019-04-13T10:24:02Z</time>
      </trkpt>
      <trkpt lat="48.04816" lon="7.00206">
        <ele>1048</ele>
        <time>2019-04-13T10:25:02Z</time>
      </trkpt>
      <trkpt lat="48.04854" lon="7.00185">
        <ele>1053</ele>
        <time>2019-04-13T10:26:02Z</time>
      </trkpt>
      <trkpt lat="48.04885" lon="7.00151">
        <ele>1053</ele>
        <time>2019-04-13T10:27:02Z</time>
      </trkpt>
      <trkpt lat="48.04923" lon="7.00103">
        <ele>1054</ele>
        <time>2019-04-13T10:28:02Z</time>
      </trkpt>
      <trkpt lat="48.04957" lon="7.00072">
        <ele>1054</ele>
        <time>2019-04-13T10:29:02Z</time>
      </trkpt>
      <trkpt lat="48.04974" lon="7.00062">
        <ele>1055</ele>
        <time>2019-04-13T10:30:02Z</time>
      </trkpt>
      <trkpt lat="48.04987" lon="7.00061">
        <ele>1056</ele>
        <time>2019-04-13T10:31:02Z</time>
      </trkpt>
      <trkpt lat="48.04999" lon="7.00068">
        <ele>1059</ele>
        <time>2019-04-13T10:32:02Z</time>
      </trkpt>
      <trkpt lat="48.05023" lon="7.00093">
        <ele>1061</ele>
        <time>2019-04-13T10:33:02Z</time>
      </trkpt>
      <trkpt lat="48.05037" lon="7.0012">
        <ele>1063</ele>
        <time>2019-04-13T10:34:02Z</time>
      </trkpt>
      <trkpt lat="48.05084" lon="7.00271">
        <ele>1078</ele>
        <time>2019-04-13T10:35:02Z</time>
      </trkpt>
      <trkpt lat="48.05099" lon="7.00295">
        <ele>1082</ele>
        <time>2019-04-13T10:36:02Z</time>
      </trkpt>
      <trkpt lat="48.05114" lon="7.00311">
        <ele>1084</ele>
        <time>2019-04-13T10:37:02Z</time>
      </trkpt>
      <trkpt lat="48.05215" lon="7.00378">
        <ele>1094</ele>
        <time>2019-04-13T10:38:02Z</time>
      </trkpt>
      <trkpt lat="48.05248" lon="7.00407">
        <ele>1098</ele>
        <time>2019-04-13T10:39:02Z</time>
      </trkpt>
      <trkpt lat="48.05273" lon="7.00438">
        <ele>1103</ele>
        <time>2019-04-13T10:40:02Z</time>
      </trkpt>
      <trkpt lat="48.05319" lon="7.00503">
        <ele>1109</ele>
        <time>2019-04-13T10:41:02Z</time>
      </trkpt>
      <trkpt lat="48.0533" lon="7.00513">
        <ele>1110</ele>
        <time>2019-04-13T10:42:02Z</time>
      </trkpt>
      <trkpt lat="48.05335" lon="7.00514">
        <ele>1109</ele>
        <time>2019-04-13T10:43:02Z</time>
      </trkpt>
      <trkpt lat="48.05346" lon="7.0051">
        <ele>1109</ele>
        <time>2019-04-13T10:44:02Z</time>
      </trkpt>
      <trkpt lat="48.05359" lon="7.005">
        <ele>1108</ele>
        <time>2019-04-13T10:45:02Z</time>
      </trkpt>
      <trkpt lat="48.05407" lon="7.00454">
        <ele>1110</ele>
        <time>2019-04-13T10:46:02Z</time>
      </trkpt>
      <trkpt lat="48.05426" lon="7.00454">
        <ele>1110</ele>
        <time>2019-04-13T10:47:02Z</time>
      </trkpt>
      <trkpt lat="48.05449" lon="7.00489">
        <ele>1109</ele>
        <time>2019-04-13T10:48:02Z</time>
      </trkpt>
      <trkpt lat="48.05463" lon="7.00502">
        <ele>1109</ele>
        <time>2019-04-13T10:49:02Z</time>
      </trkpt>
      <trkpt lat="48.0549" lon="7.00547">
        <ele>1116</ele>
        <time>2019-04-13T10:50:02Z</time>
      </trkpt>
      <trkpt lat="48.05517" lon="7.00586">
        <ele>1118</ele>
        <time>2019-04-13T10:51:02Z</time>
      </trkpt>
      <trkpt lat="48.05656" lon="7.00774">
        <ele>1118</ele>
        <time>2019-04-13T10:52:02Z</time>
      </trkpt>
      <trkpt lat="48.05663" lon="7.00787">
        <ele>1118</ele>
        <time>2019-04-13T10:53:02Z</time>
      </trkpt>
      <trkpt lat="48.05674" lon="7.00816">
        <ele>1119</ele>
        <time>2019-04-13T10:54:02Z</time>
      </trkpt>
      <trkpt lat="48.05683" lon="7.00843">
        <ele>1120</ele>
        <time>2019-04-13T10:55:02Z</time>
      </trkpt>
      <trkpt lat="48.05689" lon="7.00873">
        <ele>1122</ele>
        <time>2019-04-13T10:56:02Z</time>
      </trkpt>
      <trkpt lat="48.05702" lon="7.00941">
        <ele>1125</ele>
        <time>2019-04-13T10:57:02Z</time>
      </trkpt>
      <trkpt lat="48.05711" lon="7.01">
        <ele>1127</ele>
        <time>2019-04-13T10:58:02Z</time>
      </trkpt>
      <trkpt lat="48.05712" lon="7.01054">
        <ele>1133</ele>
        <time>2019-04-13T10:59:02Z</time>
      </trkpt>
      <trkpt lat="48.05714" lon="7.01073">
        <ele>1135</ele>
        <time>2019-04-13T11:00:02Z</time>
      </trkpt>
      <trkpt lat="48.05718" lon="7.01088">
        <ele>1135</ele>
        <time>2019-04-13T11:01:02Z</time>
      </trkpt>
      <trkpt lat="48.05728" lon="7.01109">
        <ele>1135</ele>
        <time>2019-04-13T11:02:02Z</time>
      </trkpt>
      <trkpt lat="48.05747" lon="7.01124">
        <ele>1130</ele>
        <time>2019-04-13T11:03:02Z</time>
      </trkpt>
      <trkpt lat="48.05758" lon="7.01127">
        <ele>1129</ele>
        <time>2019-04-13T11:04:02Z</time>
      </trkpt>
      <trkpt lat="48.05786" lon="7.01129">
        <ele>1126</ele>
        <time>2019-04-13T11:05:02Z</time>
      </trkpt>
      <trkpt lat="48.05801" lon="7.01133">
        <ele>1126</ele>
        <time>2019-04-13T11:06:02Z</time>
      </trkpt>
      <trkpt lat="48.05913" lon="7.0119">
        <ele>1128</ele>
        <time>2019-04-13T11:07:02Z</time>
      </trkpt>
      <trkpt lat="48.05932" lon="7.01204">
        <ele>1128</ele>
        <time>2019-04-13T11:08:02Z</time>
      </trkpt>
      <trkpt lat="48.05985" lon="7.01249">
        <ele>1130</ele>
        <time>2019-04-13T11:09:02Z</time>
      </trkpt>
      <trkpt lat="48.0601" lon="7.01273">
        <ele>1131</ele>
        <time>2019-04-13T11:10:02Z</time>
      </trkpt>
      <trkpt lat="48.06077" lon="7.01347">
        <ele>1133</ele>
        <time>2019-04-13T11:11:02Z</time>
      </trkpt>
      <trkpt lat="48.06152" lon="7.01417">
        <ele>1133</ele>
        <time>2019-04-13T11:12:02Z</time>
      </trkpt>
      <trkpt lat="48.06171" lon="7.0144">
        <ele>1133</ele>
        <time>2019-04-13T11:13:02Z</time>
      </trkpt>
      <trkpt lat="48.06193" lon="7.01482">
        <ele>1134</ele>
        <time>2019-04-13T11:14:02Z</time>
      </trkpt>
      <trkpt lat="48.06221" lon="7.01548">
        <ele>1133</ele>
        <time>2019-04-13T11:15:02Z</time>
      </trkpt>
      <trkpt lat="48.06221" lon="7.01548">
        <ele>1133</ele>
        <time>2019-04-13T11:16:02Z</time>
      </trkpt>
      <trkpt lat="48.06237" lon="7.01591">
        <ele>1133</ele>
        <time>2019-04-13T11:17:02Z</time>
      </trkpt>
      <trkpt lat="48.06265" lon="7.01709">
        <ele>1137</ele>
        <time>2019-04-13T11:18:02Z</time>
      </trkpt>
      <trkpt lat="48.0628" lon="7.01781">
        <ele>1137</ele>
        <time>2019-04-13T11:19:02Z</time>
      </trkpt>
      <trkpt lat="48.06284" lon="7.01813">
        <ele>1137</ele>
        <time>2019-04-13T11:20:02Z</time>
      </trkpt>
      <trkpt lat="48.06285" lon="7.01852">
        <ele>1138</ele>
        <time>2019-04-13T11:21:02Z</time>
      </trkpt>
      <trkpt lat="48.06281" lon="7.01939">
        <ele>1137</ele>
        <time>2019-04-13T11:22:02Z</time>
      </trkpt>
      <trkpt lat="48.06277" lon="7.01975">
        <ele>1137</ele>
        <time>2019-04-13T11:23:02Z</time>
      </trkpt>
      <trkpt lat="48.06272" lon="7.01992">
        <ele>1137</ele>
        <time>2019-04-13T11:24:02Z</time>
      </trkpt>
      <trkpt lat="48.06264" lon="7.02008">
        <ele>1138</ele>
        <time>2019-04-13T11:25:02Z</time>
      </trkpt>
      <trkpt lat="48.0625" lon="7.02028">
        <ele>1140</ele>
        <time>2019-04-13T11:26:02Z</time>
      </trkpt>
      <trkpt lat="48.06239" lon="7.02048">
        <ele>1141</ele>
        <time>2019-04-13T11:27:02Z</time>
      </trkpt>
      <trkpt lat="48.06238" lon="7.02062">
        <ele>1141</ele>
        <time>2019-04-13T11:28:02Z</time>
      </trkpt>
      <trkpt lat="48.06242" lon="7.0208">
        <ele>1140</ele>
        <time>2019-04-13T11:29:02Z</time>
      </trkpt>
      <trkpt lat="48.06252" lon="7.02089">
        <ele>1139</ele>
        <time>2019-04-13T11:30:02Z</time>
      </trkpt>
      <trkpt lat="48.06281" lon="7.02094">
        <ele>1137</ele>
        <time>2019-04-13T11:31:02Z</time>
      </trkpt>
      <trkpt lat="48.06288" lon="7.02098">
        <ele>1137</ele>
        <time>2019-04-13T11:32:02Z</time>
      </trkpt>
      <trkpt lat="48.06298" lon="7.02107">
        <ele>1136</ele>
        <time>2019-04-13T11:33:02Z</time>
      </trkpt>
      <trkpt lat="48.06317" lon="7.02133">
        <ele>1136</ele>
        <time>2019-04-13T11:34:02Z</time>
      </trkpt>
      <trkpt lat="48.06361" lon="7.02201">
        <ele>1138</ele>
        <time>2019-04-13T11:35:02Z</time>
      </trkpt>
      <trkpt lat="48.0637" lon="7.02222">
        <ele>1139</ele>
        <time>2019-04-13T11:36:02Z</time>
      </trkpt>
      <trkpt lat="48.06376" lon="7.02244">
        <ele>1141</ele>
        <time>2019-04-13T11:37:02Z</time>
      </trkpt>
      <trkpt lat="48.06377" lon="7.02254">
        <ele>1142</ele>
        <time>2019-04-13T11:38:02Z</time>
      </trkpt>
      <trkpt lat="48.06395" lon="7.02256">
        <ele>1141</ele>
        <time>2019-04-13T11:39:02Z</time>
      </trkpt>
      <trkpt lat="48.06413" lon="7.02262">
        <ele>1140</ele>
        <time>2019-04-13T11:40:02Z</time>
      </trkpt>
      <trkpt lat="48.06441" lon="7.0226">
        <ele>1140</ele>
        <time>2019-04-13T11:41:02Z</time>
      </trkpt>
      <trkpt lat="48.06575" lon="7.02226">
        <ele>1140</ele>
        <time>2019-04-13T11:42:02Z</time>
      </trkpt>
      <trkpt lat="48.06698" lon="7.02163">
        <ele>1142</ele>
        <time>2019-04-13T11:43:02Z</time>
      </trkpt>
      <trkpt lat="48.06736" lon="7.02156">
        <ele>1143</ele>
        <time>2019-04-13T11:44:02Z</time>
      </trkpt>
      <trkpt lat="48.0676" lon="7.02159">
        <ele>1144</ele>
        <time>2019-04-13T11:45:02Z</time>
      </trkpt>
      <trkpt lat="48.06796" lon="7.02169">
        <ele>1146</ele>
        <time>2019-04-13T11:46:02Z</time>
      </trkpt>
      <trkpt lat="48.06856" lon="7.02191">
        <ele>1152</ele>
        <time>2019-04-13T11:47:02Z</time>
      </trkpt>
      <trkpt lat="48.06876" lon="7.0219">
        <ele>1153</ele>
        <time>2019-04-13T11:48:02Z</time>
      </trkpt>
      <trkpt lat="48.06893" lon="7.02186">
        <ele>1154</ele>
        <time>2019-04-13T11:49:02Z</time>
      </trkpt>
      <trkpt lat="48.06961" lon="7.0213">
        <ele>1152</ele>
        <time>2019-04-13T11:50:02Z</time>
      </trkpt>
      <trkpt lat="48.06982" lon="7.02117">
        <ele>1153</ele>
        <time>2019-04-13T11:51:02Z</time>
      </trkpt>
      <trkpt lat="48.07011" lon="7.0211">
        <ele>1155</ele>
        <time>2019-04-13T11:52:02Z</time>
      </trkpt>
      <trkpt lat="48.07037" lon="7.02111">
        <ele>1156</ele>
        <time>2019-04-13T11:53:02Z</time>
      </trkpt>
      <trkpt lat="48.07117" lon="7.02126">
        <ele>1162</ele>
        <time>2019-04-13T11:54:02Z</time>
      </trkpt>
      <trkpt lat="48.07232" lon="7.02157">
        <ele>1168</ele>
        <time>2019-04-13T11:55:02Z</time>
      </trkpt>
      <trkpt lat="48.07276" lon="7.02174">
        <ele>1169</ele>
        <time>2019-04-13T11:56:02Z</time>
      </trkpt>
      <trkpt lat="48.07326" lon="7.02204">
        <ele>1170</ele>
        <time>2019-04-13T11:57:02Z</time>
      </trkpt>
      <trkpt lat="48.07391" lon="7.02265">
        <ele>1172</ele>
        <time>2019-04-13T11:58:02Z</time>
      </trkpt>
      <trkpt lat="48.07508" lon="7.02397">
        <ele>1172</ele>
        <time>2019-04-13T11:59:02Z</time>
      </trkpt>
      <trkpt lat="48.07584" lon="7.02508">
        <ele>1171</ele>
        <time>2019-04-13T12:00:02Z</time>
      </trkpt>
      <trkpt lat="48.07639" lon="7.02605">
        <ele>1172</ele>
        <time>2019-04-13T12:01:02Z</time>
      </trkpt>
      <trkpt lat="48.07678" lon="7.02696">
        <ele>1174</ele>
        <time>2019-04-13T12:02:02Z</time>
      </trkpt>
      <trkpt lat="48.07813" lon="7.02856">
        <ele>1183</ele>
        <time>2019-04-13T12:03:02Z</time>
      </trkpt>
      <trkpt lat="48.07956" lon="7.03051">
        <ele>1193</ele>
        <time>2019-04-13T12:04:02Z</time>
      </trkpt>
      <trkpt lat="48.08" lon="7.03131">
        <ele>1197</ele>
        <time>2019-04-13T12:05:02Z</time>
      </trkpt>
      <trkpt lat="48.08067" lon="7.03316">
        <ele>1201</ele>
        <time>2019-04-13T12:06:02Z</time>
      </trkpt>
      <trkpt lat="48.08109" lon="7.034">
        <ele>1200</ele>
        <time>2019-04-13T12:07:02Z</time>
      </trkpt>
      <trkpt lat="48.08193" lon="7.0353">
        <ele>1201</ele>
        <time>2019-04-13T12:08:02Z</time>
      </trkpt>
      <trkpt lat="48.08211" lon="7.03565">
        <ele>1201</ele>
        <time>2019-04-13T12:09:02Z</time>
      </trkpt>
      <trkpt lat="48.08211" lon="7.03565">
        <ele>1201</ele>
        <time>2019-04-13T12:10:02Z</time>
      </trkpt>
      <trkpt lat="48.08232" lon="7.03605">
        <ele>1201</ele>
        <time>2019-04-13T12:11:02Z</time>
      </trkpt>
      <trkpt lat="48.08252" lon="7.03671">
        <ele>1203</ele>
        <time>2019-04-13T12:12:02Z</time>
      </trkpt>
      <trkpt lat="48.08261" lon="7.03753">
        <ele>1202</ele>
        <time>2019-04-13T12:13:02Z</time>
      </trkpt>
      <trkpt lat="48.08251" lon="7.03825">
        <ele>1202</ele>
        <time>2019-04-13T12:14:02Z</time>
      </trkpt>
      <trkpt lat="48.0825" lon="7.03884">
        <ele>1202</ele>
        <time>2019-04-13T12:15:02Z</time>
      </trkpt>
      <trkpt lat="48.08264" lon="7.04002">
        <ele>1205</ele>
        <time>2019-04-13T12:16:02Z</time>
      </trkpt>
      <trkpt lat="48.08301" lon="7.04185">
        <ele>1208</ele>
        <time>2019-04-13T12:17:02Z</time>
      </trkpt>
      <trkpt lat="48.08364" lon="7.04427">
        <ele>1211</ele>
        <time>2019-04-13T12:18:02Z</time>
      </trkpt>
      <trkpt lat="48.08385" lon="7.04467">
        <ele>1209</ele>
        <time>2019-04-13T12:19:02Z</time>
      </trkpt>
      <trkpt lat="48.08422" lon="7.04525">
        <ele>1205</ele>
        <time>2019-04-13T12:20:02Z</time>
      </trkpt>
      <trkpt lat="48.08492" lon="7.04624">
        <ele>1210</ele>
        <time>2019-04-13T12:21:02Z</time>
      </trkpt>
      <trkpt lat="48.08535" lon="7.0467">
        <ele>1214</ele>
        <time>2019-04-13T12:22:02Z</time>
      </trkpt>
      <trkpt lat="48.0857" lon="7.04698">
        <ele>1215</ele>
        <time>2019-04-13T12:23:02Z</time>
      </trkpt>
      <trkpt lat="48.08646" lon="7.04741">
        <ele>1219</ele>
        <time>2019-04-13T12:24:02Z</time>
      </trkpt>
      <trkpt lat="48.08682" lon="7.04748">
        <ele>1221</ele>
        <time>2019-04-13T12:25:02Z</time>
      </trkpt>
      <trkpt lat="48.08725" lon="7.04742">
        <ele>1224</ele>
        <time>2019-04-13T12:26:02Z</time>
      </trkpt>
      <trkpt lat="48.08774" lon="7.04723">
        <ele>1227</ele>
        <time>2019-04-13T12:27:02Z</time>
      </trkpt>
      <trkpt lat="48.08853" lon="7.04657">
        <ele>1230</ele>
        <time>2019-04-13T12:28:02Z</time>
      </trkpt>
      <trkpt lat="48.08887" lon="7.04642">
        <ele>1232</ele>
        <time>2019-04-13T12:29:02Z</time>
      </trkpt>
      <trkpt lat="48.08925" lon="7.04655">
        <ele>1235</ele>
        <time>2019-04-13T12:30:02Z</time>
      </trkpt>
      <trkpt lat="48.0901" lon="7.04727">
        <ele>1230</ele>
        <time>2019-04-13T12:31:02Z</time>
      </trkpt>
      <trkpt lat="48.09041" lon="7.04773">
        <ele>1227</ele>
        <time>2019-04-13T12:32:02Z</time>
      </trkpt>
      <trkpt lat="48.09054" lon="7.04817">
        <ele>1226</ele>
        <time>2019-04-13T12:33:02Z</time>
      </trkpt>
      <trkpt lat="48.09055" lon="7.04841">
        <ele>1226</ele>
        <time>2019-04-13T12:34:02Z</time>
      </trkpt>
      <trkpt lat="48.09054" lon="7.049">
        <ele>1226</ele>
        <time>2019-04-13T12:35:02Z</time>
      </trkpt>
      <trkpt lat="48.09044" lon="7.04986">
        <ele>1224</ele>
        <time>2019-04-13T12:36:02Z</time>
      </trkpt>
      <trkpt lat="48.09027" lon="7.05094">
        <ele>1223</ele>
        <time>2019-04-13T12:37:02Z</time>
      </trkpt>
      <trkpt lat="48.09029" lon="7.05138">
        <ele>1223</ele>
        <time>2019-04-13T12:38:02Z</time>
      </trkpt>
      <trkpt lat="48.09043" lon="7.05171">
        <ele>1222</ele>
        <time>2019-04-13T12:39:02Z</time>
      </trkpt>
      <trkpt lat="48.09081" lon="7.05227">
        <ele>1221</ele>
        <time>2019-04-13T12:40:02Z</time>
      </trkpt>
      <trkpt lat="48.09093" lon="7.05268">
        <ele>1220</ele>
        <time>2019-04-13T12:41:02Z</time>
      </trkpt>
      <trkpt lat="48.09097" lon="7.05319">
        <ele>1220</ele>
        <time>2019-04-13T12:42:02Z</time>
      </trkpt>
      <trkpt lat="48.09078" lon="7.0549">
        <ele>1224</ele>
        <time>2019-04-13T12:43:02Z</time>
      </trkpt>
      <trkpt lat="48.09078" lon="7.05551">
        <ele>1226</ele>
        <time>2019-04-13T12:44:02Z</time>
      </trkpt>
      <trkpt lat="48.09093" lon="7.05597">
        <ele>1225</ele>
        <time>2019-04-13T12:45:02Z</time>
      </trkpt>
      <trkpt lat="48.09145" lon="7.05678">
        <ele>1223</ele>
        <time>2019-04-13T12:46:02Z</time>
      </trkpt>
      <trkpt lat="48.09162" lon="7.05721">
        <ele>1223</ele>
        <time>2019-04-13T12:47:02Z</time>
      </trkpt>
      <trkpt lat="48.09171" lon="7.05763">
        <ele>1223</ele>
        <time>2019-04-13T12:48:02Z</time>
      </trkpt>
      <trkpt lat="48.0918" lon="7.05819">
        <ele>1225</ele>
        <time>2019-04-13T12:49:02Z</time>
      </trkpt>
      <trkpt lat="48.09198" lon="7.05878">
        <ele>1228</ele>
        <time>2019-04-13T12:50:02Z</time>
      </trkpt>
      <trkpt lat="48.09242" lon="7.05981">
        <ele>1231</ele>
        <time>2019-04-13T12:51:02Z</time>
      </trkpt>
      <trkpt lat="48.09276" lon="7.06048">
        <ele>1229</ele>
        <time>2019-04-13T12:52:02Z</time>
      </trkpt>
      <trkpt lat="48.09283" lon="7.06055">
        <ele>1229</ele>
        <time>2019-04-13T12:53:02Z</time>
      </trkpt>
      <trkpt lat="48.09297" lon="7.06063">
        <ele>1229</ele>
        <time>2019-04-13T12:54:02Z</time>
      </trkpt>
      <trkpt lat="48.09323" lon="7.06065">
        <ele>1228</ele>
        <time>2019-04-13T12:55:02Z</time>
      </trkpt>
      <trkpt lat="48.09339" lon="7.06061">
        <ele>1228</ele>
        <time>2019-04-13T12:56:02Z</time>
      </trkpt>
      <trkpt lat="48.09405" lon="7.06038">
        <ele>1226</ele>
        <time>2019-04-13T12:57:02Z</time>
      </trkpt>
      <trkpt lat="48.09421" lon="7.06024">
        <ele>1225</ele>
        <time>2019-04-13T12:58:02Z</time>
      </trkpt>
      <trkpt lat="48.09431" lon="7.06009">
        <ele>1225</ele>
        <time>2019-04-13T12:59:02Z</time>
      </trkpt>
      <trkpt lat="48.09446" lon="7.05978">
        <ele>1224</ele>
        <time>2019-04-13T13:00:02Z</time>
      </trkpt>
      <trkpt lat="48.09489" lon="7.05813">
        <ele>1219</ele>
        <time>2019-04-13T13:01:02Z</time>
      </trkpt>
      <trkpt lat="48.0952" lon="7.05707">
        <ele>1214</ele>
        <time>2019-04-13T13:02:02Z</time>
      </trkpt>
      <trkpt lat="48.09543" lon="7.05644">
        <ele>1208</ele>
        <time>2019-04-13T13:03:02Z</time>
      </trkpt>
      <trkpt lat="48.0957" lon="7.05581">
        <ele>1200</ele>
        <time>2019-04-13T13:04:02Z</time>
      </trkpt>
      <trkpt lat="48.09593" lon="7.05537">
        <ele>1196</ele>
        <time>2019-04-13T13:05:02Z</time>
      </trkpt>
      <trkpt lat="48.09638" lon="7.05477">
        <ele>1190</ele>
        <time>2019-04-13T13:06:02Z</time>
      </trkpt>
      <trkpt lat="48.09657" lon="7.05457">
        <ele>1188</ele>
        <time>2019-04-13T13:07:02Z</time>
      </trkpt>
      <trkpt lat="48.09709" lon="7.05421">
        <ele>1186</ele>
        <time>2019-04-13T13:08:02Z</time>
      </trkpt>
      <trkpt lat="48.09721" lon="7.05415">
        <ele>1186</ele>
        <time>2019-04-13T13:09:02Z</time>
      </trkpt>
      <trkpt lat="48.09735" lon="7.05413">
        <ele>1186</ele>
        <time>2019-04-13T13:10:02Z</time>
      </trkpt>
      <trkpt lat="48.09816" lon="7.05419">
        <ele>1195</ele>
        <time>2019-04-13T13:11:02Z</time>
      </trkpt>
      <trkpt lat="48.09856" lon="7.0541">
        <ele>1196</ele>
        <time>2019-04-13T13:12:02Z</time>
      </trkpt>
      <trkpt lat="48.09873" lon="7.05408">
        <ele>1196</ele>
        <time>2019-04-13T13:13:02Z</time>
      </trkpt>
      <trkpt lat="48.09895" lon="7.05409">
        <ele>1197</ele>
        <time>2019-04-13T13:14:02Z</time>
      </trkpt>
      <trkpt lat="48.0993" lon="7.05424">
        <ele>1199</ele>
        <time>2019-04-13T13:15:02Z</time>
      </trkpt>
      <trkpt lat="48.09954" lon="7.05431">
        <ele>1200</ele>
        <time>2019-04-13T13:16:02Z</time>
      </trkpt>
      <trkpt lat="48.10024" lon="7.05434">
        <ele>1201</ele>
        <time>2019-04-13T13:17:02Z</time>
      </trkpt>
      <trkpt lat="48.10056" lon="7.05438">
        <ele>1203</ele>
        <time>2019-04-13T13:18:02Z</time>
      </trkpt>
      <trkpt lat="48.10086" lon="7.05448">
        <ele>1205</ele>
        <time>2019-04-13T13:19:02Z</time>
      </trkpt>
      <trkpt lat="48.10105" lon="7.05457">
        <ele>1205</ele>
        <time>2019-04-13T13:20:02Z</time>
      </trkpt>
      <trkpt lat="48.10123" lon="7.05472">
        <ele>1205</ele>
        <time>2019-04-13T13:21:02Z</time>
      </trkpt>
      <trkpt lat="48.10141" lon="7.05494">
        <ele>1206</ele>
        <time>2019-04-13T13:22:02Z</time>
      </trkpt>
      <trkpt lat="48.10154" lon="7.05519">
        <ele>1207</ele>
        <time>2019-04-13T13:23:02Z</time>
      </trkpt>
      <trkpt lat="48.10161" lon="7.05545">
        <ele>1208</ele>
        <time>2019-04-13T13:24:02Z</time>
      </trkpt>
      <trkpt lat="48.10185" lon="7.05609">
        <ele>1209</ele>
        <time>2019-04-13T13:25:02Z</time>
      </trkpt>
      <trkpt lat="48.1021" lon="7.05716">
        <ele>1211</ele>
        <time>2019-04-13T13:26:02Z</time>
      </trkpt>
      <trkpt lat="48.10219" lon="7.05747">
        <ele>1212</ele>
        <time>2019-04-13T13:27:02Z</time>
      </trkpt>
      <trkpt lat="48.10243" lon="7.05818">
        <ele>1212</ele>
        <time>2019-04-13T13:28:02Z</time>
      </trkpt>
      <trkpt lat="48.10264" lon="7.05864">
        <ele>1214</ele>
        <time>2019-04-13T13:29:02Z</time>
      </trkpt>
      <trkpt lat="48.10287" lon="7.05904">
        <ele>1216</ele>
        <time>2019-04-13T13:30:02Z</time>
      </trkpt>
      <trkpt lat="48.10315" lon="7.05941">
        <ele>1218</ele>
        <time>2019-04-13T13:31:02Z</time>
      </trkpt>
      <trkpt lat="48.10343" lon="7.05969">
        <ele>1219</ele>
        <time>2019-04-13T13:32:02Z</time>
      </trkpt>
      <trkpt lat="48.10376" lon="7.0599">
        <ele>1221</ele>
        <time>2019-04-13T13:33:02Z</time>
      </trkpt>
      <trkpt lat="48.10422" lon="7.06006">
        <ele>1224</ele>
        <time>2019-04-13T13:34:02Z</time>
      </trkpt>
      <trkpt lat="48.10465" lon="7.06014">
        <ele>1226</ele>
        <time>2019-04-13T13:35:02Z</time>
      </trkpt>
      <trkpt lat="48.10499" lon="7.0601">
        <ele>1228</ele>
        <time>2019-04-13T13:36:02Z</time>
      </trkpt>
      <trkpt lat="48.10597" lon="7.05992">
        <ele>1229</ele>
        <time>2019-04-13T13:37:02Z</time>
      </trkpt>
      <trkpt lat="48.10629" lon="7.05996">
        <ele>1229</ele>
        <time>2019-04-13T13:38:02Z</time>
      </trkpt>
      <trkpt lat="48.10654" lon="7.06008">
        <ele>1229</ele>
        <time>2019-04-13T13:39:02Z</time>
      </trkpt>
      <trkpt lat="48.10682" lon="7.06023">
        <ele>1228</ele>
        <time>2019-04-13T13:40:02Z</time>
      </trkpt>
      <trkpt lat="48.10705" lon="7.06045">
        <ele>1226</ele>
        <time>2019-04-13T13:41:02Z</time>
      </trkpt>
      <trkpt lat="48.10745" lon="7.06096">
        <ele>1226</ele>
        <time>2019-04-13T13:42:02Z</time>
      </trkpt>
      <trkpt lat="48.10799" lon="7.06178">
        <ele>1223</ele>
        <time>2019-04-13T13:43:02Z</time>
      </trkpt>
      <trkpt lat="48.10813" lon="7.06208">
        <ele>1222</ele>
        <time>2019-04-13T13:44:02Z</time>
      </trkpt>
      <trkpt lat="48.10823" lon="7.06239">
        <ele>1221</ele>
        <time>2019-04-13T13:45:02Z</time>
      </trkpt>
      <trkpt lat="48.10838" lon="7.06331">
        <ele>1221</ele>
        <time>2019-04-13T13:46:02Z</time>
      </trkpt>
      <trkpt lat="48.1085" lon="7.06356">
        <ele>1221</ele>
        <time>2019-04-13T13:47:02Z</time>
      </trkpt>
      <trkpt lat="48.10863" lon="7.06379">
        <ele>1222</ele>
        <time>2019-04-13T13:48:02Z</time>
      </trkpt>
      <trkpt lat="48.10905" lon="7.06438">
        <ele>1222</ele>
        <time>2019-04-13T13:49:02Z</time>
      </trkpt>
      <trkpt lat="48.10932" lon="7.06464">
        <ele>1223</ele>
        <time>2019-04-13T13:50:02Z</time>
      </trkpt>
      <trkpt lat="48.1101" lon="7.06529">
        <ele>1224</ele>
        <time>2019-04-13T13:51:02Z</time>
      </trkpt>
      <trkpt lat="48.11032" lon="7.06542">
        <ele>1223</ele>
        <time>2019-04-13T13:52:02Z</time>
      </trkpt>
      <trkpt lat="48.1106" lon="7.06551">
        <ele>1223</ele>
        <time>2019-04-13T13:53:02Z</time>
      </trkpt>
      <trkpt lat="48.11081" lon="7.06553">
        <ele>1222</ele>
        <time>2019-04-13T13:54:02Z</time>
      </trkpt>
      <trkpt lat="48.11125" lon="7.06549">
        <ele>1221</ele>
        <time>2019-04-13T13:55:02Z</time>
      </trkpt>
      <trkpt lat="48.11148" lon="7.06543">
        <ele>1220</ele>
        <time>2019-04-13T13:56:02Z</time>
      </trkpt>
      <trkpt lat="48.11167" lon="7.06529">
        <ele>1219</ele>
        <time>2019-04-13T13:57:02Z</time>
      </trkpt>
      <trkpt lat="48.11243" lon="7.06447">
        <ele>1214</ele>
        <time>2019-04-13T13:58:02Z</time>
      </trkpt>
      <trkpt lat="48.11266" lon="7.06415">
        <ele>1214</ele>
        <time>2019-04-13T13:59:02Z</time>
      </trkpt>
      <trkpt lat="48.11281" lon="7.06387">
        <ele>1214</ele>
        <time>2019-04-13T14:00:02Z</time>
      </trkpt>
      <trkpt lat="48.11293" lon="7.06359">
        <ele>1213</ele>
        <time>2019-04-13T14:01:02Z</time>
      </trkpt>
      <trkpt lat="48.11301" lon="7.06321">
        <ele>1213</ele>
        <time>2019-04-13T14:02:02Z</time>
      </trkpt>
      <trkpt lat="48.11306" lon="7.06205">
        <ele>1209</ele>
        <time>2019-04-13T14:03:02Z</time>
      </trkpt>
      <trkpt lat="48.11292" lon="7.05962">
        <ele>1205</ele>
        <time>2019-04-13T14:04:02Z</time>
      </trkpt>
      <trkpt lat="48.11292" lon="7.05938">
        <ele>1204</ele>
        <time>2019-04-13T14:05:02Z</time>
      </trkpt>
      <trkpt lat="48.11297" lon="7.05916">
        <ele>1204</ele>
        <time>2019-04-13T14:06:02Z</time>
      </trkpt>
      <trkpt lat="48.11304" lon="7.05901">
        <ele>1204</ele>
        <time>2019-04-13T14:07:02Z</time>
      </trkpt>
      <trkpt lat="48.11314" lon="7.05891">
        <ele>1204</ele>
        <time>2019-04-13T14:08:02Z</time>
      </trkpt>
      <trkpt lat="48.11328" lon="7.0588">
        <ele>1204</ele>
        <time>2019-04-13T14:09:02Z</time>
      </trkpt>
      <trkpt lat="48.11348" lon="7.05876">
        <ele>1203</ele>
        <time>2019-04-13T14:10:02Z</time>
      </trkpt>
      <trkpt lat="48.11367" lon="7.05875">
        <ele>1202</ele>
        <time>2019-04-13T14:11:02Z</time>
      </trkpt>
      <trkpt lat="48.11425" lon="7.05884">
        <ele>1199</ele>
        <time>2019-04-13T14:12:02Z</time>
      </trkpt>
      <trkpt lat="48.11439" lon="7.05894">
        <ele>1199</ele>
        <time>2019-04-13T14:13:02Z</time>
      </trkpt>
      <trkpt lat="48.11512" lon="7.05957">
        <ele>1201</ele>
        <time>2019-04-13T14:14:02Z</time>
      </trkpt>
      <trkpt lat="48.11528" lon="7.05967">
        <ele>1200</ele>
        <time>2019-04-13T14:15:02Z</time>
      </trkpt>
      <trkpt lat="48.11622" lon="7.06015">
        <ele>1195</ele>
        <time>2019-04-13T14:16:02Z</time>
      </trkpt>
      <trkpt lat="48.11725" lon="7.06106">
        <ele>1190</ele>
        <time>2019-04-13T14:17:02Z</time>
      </trkpt>
      <trkpt lat="48.11797" lon="7.06223">
        <ele>1190</ele>
        <time>2019-04-13T14:18:02Z</time>
      </trkpt>
      <trkpt lat="48.11797" lon="7.06223">
        <ele>1190</ele>
        <time>2019-04-13T14:19:02Z</time>
      </trkpt>
      <trkpt lat="48.11864" lon="7.06331">
        <ele>1186</ele>
        <time>2019-04-13T14:20:02Z</time>
      </trkpt>
      <trkpt lat="48.11949" lon="7.0642">
        <ele>1180</ele>
        <time>2019-04-13T14:21:02Z</time>
      </trkpt>
      <trkpt lat="48.12036" lon="7.06466">
        <ele>1177</ele>
        <time>2019-04-13T14:22:02Z</time>
      </trkpt>
      <trkpt lat="48.12149" lon="7.06494">
        <ele>1173</ele>
        <time>2019-04-13T14:23:02Z</time>
      </trkpt>
      <trkpt lat="48.12178" lon="7.06509">
        <ele>1172</ele>
        <time>2019-04-13T14:24:02Z</time>
      </trkpt>
      <trkpt lat="48.12194" lon="7.06523">
        <ele>1170</ele>
        <time>2019-04-13T14:25:02Z</time>
      </trkpt>
      <trkpt lat="48.12204" lon="7.0654">
        <ele>1169</ele>
        <time>2019-04-13T14:26:02Z</time>
      </trkpt>
      <trkpt lat="48.12255" lon="7.0666">
        <ele>1166</ele>
        <time>2019-04-13T14:27:02Z</time>
      </trkpt>
      <trkpt lat="48.12285" lon="7.06757">
        <ele>1164</ele>
        <time>2019-04-13T14:28:02Z</time>
      </trkpt>
      <trkpt lat="48.12324" lon="7.06898">
        <ele>1165</ele>
        <time>2019-04-13T14:29:02Z</time>
      </trkpt>
      <trkpt lat="48.12338" lon="7.06977">
        <ele>1164</ele>
        <time>2019-04-13T14:30:02Z</time>
      </trkpt>
      <trkpt lat="48.12349" lon="7.07104">
        <ele>1166</ele>
        <time>2019-04-13T14:31:02Z</time>
      </trkpt>
      <trkpt lat="48.12361" lon="7.07181">
        <ele>1168</ele>
        <time>2019-04-13T14:32:02Z</time>
      </trkpt>
      <trkpt lat="48.12381" lon="7.07229">
        <ele>1167</ele>
        <time>2019-04-13T14:33:02Z</time>
      </trkpt>
      <trkpt lat="48.12411" lon="7.07265">
        <ele>1163</ele>
        <time>2019-04-13T14:34:02Z</time>
      </trkpt>
      <trkpt lat="48.12455" lon="7.07289">
        <ele>1162</ele>
        <time>2019-04-13T14:35:02Z</time>
      </trkpt>
      <trkpt lat="48.12516" lon="7.0731">
        <ele>1160</ele>
        <time>2019-04-13T14:36:02Z</time>
      </trkpt>
      <trkpt lat="48.12589" lon="7.07313">
        <ele>1157</ele>
        <time>2019-04-13T14:37:02Z</time>
      </trkpt>
      <trkpt lat="48.12705" lon="7.07307">
        <ele>1153</ele>
        <time>2019-04-13T14:38:02Z</time>
      </trkpt>
      <trkpt lat="48.12777" lon="7.07292">
        <ele>1153</ele>
        <time>2019-04-13T14:39:02Z</time>
      </trkpt>
      <trkpt lat="48.12828" lon="7.0727">
        <ele>1156</ele>
        <time>2019-04-13T14:40:02Z</time>
      </trkpt>
      <trkpt lat="48.12927" lon="7.07203">
        <ele>1160</ele>
        <time>2019-04-13T14:41:02Z</time>
      </trkpt>
      <trkpt lat="48.12943" lon="7.07198">
        <ele>1160</ele>
        <time>2019-04-13T14:42:02Z</time>
      </trkpt>
      <trkpt lat="48.12972" lon="7.07196">
        <ele>1160</ele>
        <time>2019-04-13T14:43:02Z</time>
      </trkpt>
      <trkpt lat="48.12995" lon="7.07214">
        <ele>1162</ele>
        <time>2019-04-13T14:44:02Z</time>
      </trkpt>
      <trkpt lat="48.13008" lon="7.07231">
        <ele>1162</ele>
        <time>2019-04-13T14:45:02Z</time>
      </trkpt>
      <trkpt lat="48.13024" lon="7.07262">
        <ele>1162</ele>
        <time>2019-04-13T14:46:02Z</time>
      </trkpt>
      <trkpt lat="48.13051" lon="7.07331">
        <ele>1164</ele>
        <time>2019-04-13T14:47:02Z</time>
      </trkpt>
      <trkpt lat="48.13074" lon="7.074">
        <ele>1166</ele>
        <time>2019-04-13T14:48:02Z</time>
      </trkpt>
      <trkpt lat="48.13101" lon="7.07495">
        <ele>1168</ele>
        <time>2019-04-13T14:49:02Z</time>
      </trkpt>
      <trkpt lat="48.13107" lon="7.07527">
        <ele>1167</ele>
        <time>2019-04-13T14:50:02Z</time>
      </trkpt>
      <trkpt lat="48.13111" lon="7.07564">
        <ele>1166</ele>
        <time>2019-04-13T14:51:02Z</time>
      </trkpt>
      <trkpt lat="48.13117" lon="7.07596">
        <ele>1166</ele>
        <time>2019-04-13T14:52:02Z</time>
      </trkpt>
      <trkpt lat="48.13174" lon="7.07746">
        <ele>1164</ele>
        <time>2019-04-13T14:53:02Z</time>
      </trkpt>
      <trkpt lat="48.13203" lon="7.07788">
        <ele>1165</ele>
        <time>2019-04-13T14:54:02Z</time>
      </trkpt>
      <trkpt lat="48.13235" lon="7.07828">
        <ele>1164</ele>
        <time>2019-04-13T14:55:02Z</time>
      </trkpt>
      <trkpt lat="48.13267" lon="7.07872">
        <ele>1165</ele>
        <time>2019-04-13T14:56:02Z</time>
      </trkpt>
      <trkpt lat="48.13475" lon="7.0807">
        <ele>1162</ele>
        <time>2019-04-13T14:57:02Z</time>
      </trkpt>
      <trkpt lat="48.13496" lon="7.08095">
        <ele>1164</ele>
        <time>2019-04-13T14:58:02Z</time>
      </trkpt>
      <trkpt lat="48.1358" lon="7.08241">
        <ele>1162</ele>
        <time>2019-04-13T14:59:02Z</time>
      </trkpt>
      <trkpt lat="48.13593" lon="7.08273">
        <ele>1162</ele>
        <time>2019-04-13T15:00:02Z</time>
      </trkpt>
      <trkpt lat="48.13627" lon="7.08378">
        <ele>1158</ele>
        <time>2019-04-13T15:01:02Z</time>
      </trkpt>
      <trkpt lat="48.13649" lon="7.08528">
        <ele>1156</ele>
        <time>2019-04-13T15:02:02Z</time>
      </trkpt>
      <trkpt lat="48.13658" lon="7.08562">
        <ele>1154</ele>
        <time>2019-04-13T15:03:02Z</time>
      </trkpt>
      <trkpt lat="48.13669" lon="7.0861">
        <ele>1151</ele>
        <time>2019-04-13T15:04:02Z</time>
      </trkpt>
      <trkpt lat="48.13671" lon="7.08643">
        <ele>1150</ele>
        <time>2019-04-13T15:05:02Z</time>
      </trkpt>
      <trkpt lat="48.1367" lon="7.08661">
        <ele>1149</ele>
        <time>2019-04-13T15:06:02Z</time>
      </trkpt>
      <trkpt lat="48.13664" lon="7.08694">
        <ele>1149</ele>
        <time>2019-04-13T15:07:02Z</time>
      </trkpt>
      <trkpt lat="48.13649" lon="7.0876">
        <ele>1149</ele>
        <time>2019-04-13T15:08:02Z</time>
      </trkpt>
      <trkpt lat="48.13637" lon="7.08808">
        <ele>1149</ele>
        <time>2019-04-13T15:09:02Z</time>
      </trkpt>
      <trkpt lat="48.13627" lon="7.08835">
        <ele>1148</ele>
        <time>2019-04-13T15:10:02Z</time>
      </trkpt>
      <trkpt lat="48.13623" lon="7.08857">
        <ele>1147</ele>
        <time>2019-04-13T15:11:02Z</time>
      </trkpt>
      <trkpt lat="48.13591" lon="7.08889">
        <ele>1145</ele>
        <time>2019-04-13T15:12:02Z</time>
      </trkpt>
      <trkpt lat="48.13574" lon="7.08912">
        <ele>1143</ele>
        <time>2019-04-13T15:13:02Z</time>
      </trkpt>
      <trkpt lat="48.13555" lon="7.08945">
        <ele>1140</ele>
        <time>2019-04-13T15:14:02Z</time>
      </trkpt>
      <trkpt lat="48.13548" lon="7.08961">
        <ele>1138</ele>
        <time>2019-04-13T15:15:02Z</time>
      </trkpt>
      <trkpt lat="48.13534" lon="7.09002">
        <ele>1133</ele>
        <time>2019-04-13T15:16:02Z</time>
      </trkpt>
      <trkpt lat="48.13501" lon="7.09158">
        <ele>1125</ele>
        <time>2019-04-13T15:17:02Z</time>
      </trkpt>
      <trkpt lat="48.13488" lon="7.09192">
        <ele>1123</ele>
        <time>2019-04-13T15:18:02Z</time>
      </trkpt>
      <trkpt lat="48.13472" lon="7.09221">
        <ele>1121</ele>
        <time>2019-04-13T15:19:02Z</time>
      </trkpt>
      <trkpt lat="48.13447" lon="7.09253">
        <ele>1118</ele>
        <time>2019-04-13T15:20:02Z</time>
      </trkpt>
      <trkpt lat="48.13431" lon="7.0927">
        <ele>1116</ele>
        <time>2019-04-13T15:21:02Z</time>
      </trkpt>
      <trkpt lat="48.13421" lon="7.09278">
        <ele>1115</ele>
        <time>2019-04-13T15:22:02Z</time>
      </trkpt>
      <trkpt lat="48.13399" lon="7.09287">
        <ele>1113</ele>
        <time>2019-04-13T15:23:02Z</time>
      </trkpt>
      <trkpt lat="48.13382" lon="7.09287">
        <ele>1111</ele>
        <time>2019-04-13T15:24:02Z</time>
      </trkpt>
      <trkpt lat="48.13369" lon="7.09284">
        <ele>1110</ele>
        <time>2019-04-13T15:25:02Z</time>
      </trkpt>
      <trkpt lat="48.13351" lon="7.0927">
        <ele>1107</ele>
        <time>2019-04-13T15:26:02Z</time>
      </trkpt>
      <trkpt lat="48.13332" lon="7.09251">
        <ele>1105</ele>
        <time>2019-04-13T15:27:02Z</time>
      </trkpt>
      <trkpt lat="48.13312" lon="7.09234">
        <ele>1104</ele>
        <time>2019-04-13T15:28:02Z</time>
      </trkpt>
      <trkpt lat="48.13312" lon="7.09234">
        <ele>1104</ele>
        <time>2019-04-13T15:29:02Z</time>
      </trkpt>
      <trkpt lat="48.1329" lon="7.09226">
        <ele>1104</ele>
        <time>2019-04-13T15:30:02Z</time>
      </trkpt>
      <trkpt lat="48.1322" lon="7.09218">
        <ele>1104</ele>
        <time>2019-04-13T15:31:02Z</time>
      </trkpt>
      <trkpt lat="48.13022" lon="7.09179">
        <ele>1099</ele>
        <time>2019-04-13T15:32:02Z</time>
      </trkpt>
      <trkpt lat="48.12994" lon="7.09176">
        <ele>1097</ele>
        <time>2019-04-13T15:33:02Z</time>
      </trkpt>
      <trkpt lat="48.12967" lon="7.09177">
        <ele>1094</ele>
        <time>2019-04-13T15:34:02Z</time>
      </trkpt>
      <trkpt lat="48.12947" lon="7.09181">
        <ele>1092</ele>
        <time>2019-04-13T15:35:02Z</time>
      </trkpt>
      <trkpt lat="48.1293" lon="7.0919">
        <ele>1091</ele>
        <time>2019-04-13T15:36:02Z</time>
      </trkpt>
      <trkpt lat="48.12902" lon="7.09212">
        <ele>1091</ele>
        <time>2019-04-13T15:37:02Z</time>
      </trkpt>
      <trkpt lat="48.12859" lon="7.09256">
        <ele>1087</ele>
        <time>2019-04-13T15:38:02Z</time>
      </trkpt>
      <trkpt lat="48.12774" lon="7.09361">
        <ele>1085</ele>
        <time>2019-04-13T15:39:02Z</time>
      </trkpt>
      <trkpt lat="48.12711" lon="7.09424">
        <ele>1079</ele>
        <time>2019-04-13T15:40:02Z</time>
      </trkpt>
      <trkpt lat="48.12689" lon="7.09441">
        <ele>1076</ele>
        <time>2019-04-13T15:41:02Z</time>
      </trkpt>
      <trkpt lat="48.12631" lon="7.09495">
        <ele>1072</ele>
        <time>2019-04-13T15:42:02Z</time>
      </trkpt>
      <trkpt lat="48.12607" lon="7.09522">
        <ele>1070</ele>
        <time>2019-04-13T15:43:02Z</time>
      </trkpt>
      <trkpt lat="48.12525" lon="7.09642">
        <ele>1062</ele>
        <time>2019-04-13T15:44:02Z</time>
      </trkpt>
      <trkpt lat="48.12512" lon="7.09664">
        <ele>1061</ele>
        <time>2019-04-13T15:45:02Z</time>
      </trkpt>
      <trkpt lat="48.12499" lon="7.09699">
        <ele>1059</ele>
        <time>2019-04-13T15:46:02Z</time>
      </trkpt>
      <trkpt lat="48.12485" lon="7.09729">
        <ele>1061</ele>
        <time>2019-04-13T15:47:02Z</time>
      </trkpt>
      <trkpt lat="48.12477" lon="7.09742">
        <ele>1060</ele>
        <time>2019-04-13T15:48:02Z</time>
      </trkpt>
      <trkpt lat="48.12462" lon="7.0976">
        <ele>1059</ele>
        <time>2019-04-13T15:49:02Z</time>
      </trkpt>
      <trkpt lat="48.12391" lon="7.09815">
        <ele>1050</ele>
        <time>2019-04-13T15:50:02Z</time>
      </trkpt>
      <trkpt lat="48.12382" lon="7.09825">
        <ele>1048</ele>
        <time>2019-04-13T15:51:02Z</time>
      </trkpt>
      <trkpt lat="48.12376" lon="7.09838">
        <ele>1045</ele>
        <time>2019-04-13T15:52:02Z</time>
      </trkpt>
      <trkpt lat="48.1237" lon="7.09862">
        <ele>1040</ele>
        <time>2019-04-13T15:53:02Z</time>
      </trkpt>
      <trkpt lat="48.12361" lon="7.09912">
        <ele>1029</ele>
        <time>2019-04-13T15:54:02Z</time>
      </trkpt>
      <trkpt lat="48.12352" lon="7.09951">
        <ele>1025</ele>
        <time>2019-04-13T15:55:02Z</time>
      </trkpt>
      <trkpt lat="48.12345" lon="7.0997">
        <ele>1025</ele>
        <time>2019-04-13T15:56:02Z</time>
      </trkpt>
      <trkpt lat="48.12338" lon="7.09981">
        <ele>1025</ele>
        <time>2019-04-13T15:57:02Z</time>
      </trkpt>
      <trkpt lat="48.12324" lon="7.09989">
        <ele>1026</ele>
        <time>2019-04-13T15:58:02Z</time>
      </trkpt>
      <trkpt lat="48.12306" lon="7.0999">
        <ele>1025</ele>
        <time>2019-04-13T15:59:02Z</time>
      </trkpt>
      <trkpt lat="48.12284" lon="7.0998">
        <ele>1025</ele>
        <time>2019-04-13T16:00:02Z</time>
      </trkpt>
      <trkpt lat="48.12237" lon="7.0994">
        <ele>1029</ele>
        <time>2019-04-13T16:01:02Z</time>
      </trkpt>
      <trkpt lat="48.12219" lon="7.09935">
        <ele>1029</ele>
        <time>2019-04-13T16:02:02Z</time>
      </trkpt>
      <trkpt lat="48.12202" lon="7.09938">
        <ele>1030</ele>
        <time>2019-04-13T16:03:02Z</time>
      </trkpt>
      <trkpt lat="48.12189" lon="7.09947">
        <ele>1029</ele>
        <time>2019-04-13T16:04:02Z</time>
      </trkpt>
      <trkpt lat="48.12176" lon="7.09969">
        <ele>1028</ele>
        <time>2019-04-13T16:05:02Z</time>
      </trkpt>
      <trkpt lat="48.12168" lon="7.09993">
        <ele>1026</ele>
        <time>2019-04-13T16:06:02Z</time>
      </trkpt>
      <trkpt lat="48.12165" lon="7.10059">
        <ele>1025</ele>
        <time>2019-04-13T16:07:02Z</time>
      </trkpt>
      <trkpt lat="48.12168" lon="7.10081">
        <ele>1023</ele>
        <time>2019-04-13T16:08:02Z</time>
      </trkpt>
      <trkpt lat="48.12168" lon="7.10081">
        <ele>1023</ele>
        <time>2019-04-13T16:09:02Z</time>
      </trkpt>
      <trkpt lat="48.12174" lon="7.10132">
        <ele>1020</ele>
        <time>2019-04-13T16:10:02Z</time>
      </trkpt>
      <trkpt lat="48.12183" lon="7.10166">
        <ele>1017</ele>
        <time>2019-04-13T16:11:02Z</time>
      </trkpt>
      <trkpt lat="48.12195" lon="7.10199">
        <ele>1016</ele>
        <time>2019-04-13T16:12:02Z</time>
      </trkpt>
      <trkpt lat="48.12224" lon="7.10251">
        <ele>1015</ele>
        <time>2019-04-13T16:13:02Z</time>
      </trkpt>
      <trkpt lat="48.12261" lon="7.1031">
        <ele>1014</ele>
        <time>2019-04-13T16:14:02Z</time>
      </trkpt>
      <trkpt lat="48.12291" lon="7.1037">
        <ele>1007</ele>
        <time>2019-04-13T16:15:02Z</time>
      </trkpt>
      <trkpt lat="48.12304" lon="7.10425">
        <ele>1002</ele>
        <time>2019-04-13T16:16:02Z</time>
      </trkpt>
      <trkpt lat="48.12298" lon="7.10478">
        <ele>1000</ele>
        <time>2019-04-13T16:17:02Z</time>
      </trkpt>
      <trkpt lat="48.1228" lon="7.10526">
        <ele>1000</ele>
        <time>2019-04-13T16:18:02Z</time>
      </trkpt>
      <trkpt lat="48.12247" lon="7.10604">
        <ele>1002</ele>
        <time>2019-04-13T16:19:02Z</time>
      </trkpt>
      <trkpt lat="48.12203" lon="7.1069">
        <ele>1008</ele>
        <time>2019-04-13T16:20:02Z</time>
      </trkpt>
      <trkpt lat="48.12191" lon="7.1072">
        <ele>1007</ele>
        <time>2019-04-13T16:21:02Z</time>
      </trkpt>
      <trkpt lat="48.12183" lon="7.10753">
        <ele>1004</ele>
        <time>2019-04-13T16:22:02Z</time>
      </trkpt>
      <trkpt lat="48.12179" lon="7.10794">
        <ele>1002</ele>
        <time>2019-04-13T16:23:02Z</time>
      </trkpt>
      <trkpt lat="48.12173" lon="7.10865">
        <ele>998</ele>
        <time>2019-04-13T16:24:02Z</time>
      </trkpt>
      <trkpt lat="48.12172" lon="7.10905">
        <ele>996</ele>
        <time>2019-04-13T16:25:02Z</time>
      </trkpt>
      <trkpt lat="48.12172" lon="7.10905">
        <ele>996</ele>
        <time>2019-04-13T16:26:02Z</time>
      </trkpt>
      <trkpt lat="48.12171" lon="7.10966">
        <ele>994</ele>
        <time>2019-04-13T16:27:02Z</time>
      </trkpt>
      <trkpt lat="48.12167" lon="7.10983">
        <ele>993</ele>
        <time>2019-04-13T16:28:02Z</time>
      </trkpt>
      <trkpt lat="48.12121" lon="7.11079">
        <ele>988</ele>
        <time>2019-04-13T16:29:02Z</time>
      </trkpt>
      <trkpt lat="48.12109" lon="7.11102">
        <ele>987</ele>
        <time>2019-04-13T16:30:02Z</time>
      </trkpt>
      <trkpt lat="48.12098" lon="7.11114">
        <ele>986</ele>
        <time>2019-04-13T16:31:02Z</time>
      </trkpt>
      <trkpt lat="48.12049" lon="7.11139">
        <ele>976</ele>
        <time>2019-04-13T16:32:02Z</time>
      </trkpt>
      <trkpt lat="48.12033" lon="7.11154">
        <ele>972</ele>
        <time>2019-04-13T16:33:02Z</time>
      </trkpt>
      <trkpt lat="48.11998" lon="7.11195">
        <ele>966</ele>
        <time>2019-04-13T16:34:02Z</time>
      </trkpt>
      <trkpt lat="48.11998" lon="7.11195">
        <ele>966</ele>
        <time>2019-04-13T16:35:02Z</time>
      </trkpt>
      <trkpt lat="48.11975" lon="7.11224">
        <ele>963</ele>
        <time>2019-04-13T16:36:02Z</time>
      </trkpt>
      <trkpt lat="48.11963" lon="7.11252">
        <ele>963</ele>
        <time>2019-04-13T16:37:02Z</time>
      </trkpt>
      <trkpt lat="48.11959" lon="7.11275">
        <ele>960</ele>
        <time>2019-04-13T16:38:02Z</time>
      </trkpt>
      <trkpt lat="48.11962" lon="7.11299">
        <ele>959</ele>
        <time>2019-04-13T16:39:02Z</time>
      </trkpt>
      <trkpt lat="48.1197" lon="7.11317">
        <ele>960</ele>
        <time>2019-04-13T16:40:02Z</time>
      </trkpt>
      <trkpt lat="48.11995" lon="7.11336">
        <ele>963</ele>
        <time>2019-04-13T16:41:02Z</time>
      </trkpt>
      <trkpt lat="48.12086" lon="7.11366">
        <ele>969</ele>
        <time>2019-04-13T16:42:02Z</time>
      </trkpt>
      <trkpt lat="48.12152" lon="7.11413">
        <ele>963</ele>
        <time>2019-04-13T16:43:02Z</time>
      </trkpt>
      <trkpt lat="48.12246" lon="7.11494">
        <ele>951</ele>
        <time>2019-04-13T16:44:02Z</time>
      </trkpt>
      <trkpt lat="48.12265" lon="7.11532">
        <ele>949</ele>
        <time>2019-04-13T16:45:02Z</time>
      </trkpt>
      <trkpt lat="48.1228" lon="7.11601">
        <ele>942</ele>
        <time>2019-04-13T16:46:02Z</time>
      </trkpt>
      <trkpt lat="48.12292" lon="7.11647">
        <ele>934</ele>
        <time>2019-04-13T16:47:02Z</time>
      </trkpt>
      <trkpt lat="48.12324" lon="7.1171">
        <ele>925</ele>
        <time>2019-04-13T16:48:02Z</time>
      </trkpt>
      <trkpt lat="48.12348" lon="7.11733">
        <ele>920</ele>
        <time>2019-04-13T16:49:02Z</time>
      </trkpt>
      <trkpt lat="48.12381" lon="7.1175">
        <ele>920</ele>
        <time>2019-04-13T16:50:02Z</time>
      </trkpt>
      <trkpt lat="48.12425" lon="7.11777">
        <ele>921</ele>
        <time>2019-04-13T16:51:02Z</time>
      </trkpt>
      <trkpt lat="48.12529" lon="7.11813">
        <ele>908</ele>
        <time>2019-04-13T16:52:02Z</time>
      </trkpt>
      <trkpt lat="48.12557" lon="7.11827">
        <ele>903</ele>
        <time>2019-04-13T16:53:02Z</time>
      </trkpt>
      <trkpt lat="48.12573" lon="7.11844">
        <ele>901</ele>
        <time>2019-04-13T16:54:02Z</time>
      </trkpt>
      <trkpt lat="48.1259" lon="7.11874">
        <ele>899</ele>
        <time>2019-04-13T16:55:02Z</time>
      </trkpt>
      <trkpt lat="48.1259" lon="7.11874">
        <ele>899</ele>
        <time>2019-04-13T16:56:02Z</time>
      </trkpt>
      <trkpt lat="48.12597" lon="7.11886">
        <ele>897</ele>
        <time>2019-04-13T16:57:02Z</time>
      </trkpt>
      <trkpt lat="48.12604" lon="7.11916">
        <ele>897</ele>
        <time>2019-04-13T16:58:02Z</time>
      </trkpt>
      <trkpt lat="48.12607" lon="7.11946">
        <ele>893</ele>
        <time>2019-04-13T16:59:02Z</time>
      </trkpt>
      <trkpt lat="48.12605" lon="7.11978">
        <ele>892</ele>
        <time>2019-04-13T17:00:02Z</time>
      </trkpt>
      <trkpt lat="48.12598" lon="7.1201">
        <ele>892</ele>
        <time>2019-04-13T17:01:02Z</time>
      </trkpt>
      <trkpt lat="48.12585" lon="7.12039">
        <ele>893</ele>
        <time>2019-04-13T17:02:02Z</time>
      </trkpt>
      <trkpt lat="48.12559" lon="7.12087">
        <ele>888</ele>
        <time>2019-04-13T17:03:02Z</time>
      </trkpt>
      <trkpt lat="48.12539" lon="7.12115">
        <ele>885</ele>
        <time>2019-04-13T17:04:02Z</time>
      </trkpt>
      <trkpt lat="48.12519" lon="7.1213">
        <ele>884</ele>
        <time>2019-04-13T17:05:02Z</time>
      </trkpt>
      <trkpt lat="48.12496" lon="7.12137">
        <ele>884</ele>
        <time>2019-04-13T17:06:02Z</time>
      </trkpt>
      <trkpt lat="48.1248" lon="7.12138">
        <ele>882</ele>
        <time>2019-04-13T17:07:02Z</time>
      </trkpt>
      <trkpt lat="48.12458" lon="7.12129">
        <ele>881</ele>
        <time>2019-04-13T17:08:02Z</time>
      </trkpt>
      <trkpt lat="48.12431" lon="7.1211">
        <ele>882</ele>
        <time>2019-04-13T17:09:02Z</time>
      </trkpt>
      <trkpt lat="48.12382" lon="7.12064">
        <ele>881</ele>
        <time>2019-04-13T17:10:02Z</time>
      </trkpt>
      <trkpt lat="48.12325" lon="7.11975">
        <ele>876</ele>
        <time>2019-04-13T17:11:02Z</time>
      </trkpt>
      <trkpt lat="48.12286" lon="7.11889">
        <ele>873</ele>
        <time>2019-04-13T17:12:02Z</time>
      </trkpt>
      <trkpt lat="48.12265" lon="7.11863">
        <ele>870</ele>
        <time>2019-04-13T17:13:02Z</time>
      </trkpt>
      <trkpt lat="48.12219" lon="7.11835">
        <ele>864</ele>
        <time>2019-04-13T17:14:02Z</time>
      </trkpt>
      <trkpt lat="48.12122" lon="7.11787">
        <ele>854</ele>
        <time>2019-04-13T17:15:02Z</time>
      </trkpt>
      <trkpt lat="48.1205" lon="7.11721">
        <ele>855</ele>
        <time>2019-04-13T17:16:02Z</time>
      </trkpt>
      <trkpt lat="48.11992" lon="7.11676">
        <ele>856</ele>
        <time>2019-04-13T17:17:02Z</time>
      </trkpt>
      <trkpt lat="48.11961" lon="7.11662">
        <ele>854</ele>
        <time>2019-04-13T17:18:02Z</time>
      </trkpt>
      <trkpt lat="48.11941" lon="7.11657">
        <ele>851</ele>
        <time>2019-04-13T17:19:02Z</time>
      </trkpt>
      <trkpt lat="48.11889" lon="7.11651">
        <ele>844</ele>
        <time>2019-04-13T17:20:02Z</time>
      </trkpt>
      <trkpt lat="48.11783" lon="7.11628">
        <ele>832</ele>
        <time>2019-04-13T17:21:02Z</time>
      </trkpt>
      <trkpt lat="48.11739" lon="7.1161">
        <ele>827</ele>
        <time>2019-04-13T17:22:02Z</time>
      </trkpt>
      <trkpt lat="48.11686" lon="7.11564">
        <ele>821</ele>
        <time>2019-04-13T17:23:02Z</time>
      </trkpt>
      <trkpt lat="48.11648" lon="7.11511">
        <ele>818</ele>
        <time>2019-04-13T17:24:02Z</time>
      </trkpt>
      <trkpt lat="48.11615" lon="7.1146">
        <ele>815</ele>
        <time>2019-04-13T17:25:02Z</time>
      </trkpt>
      <trkpt lat="48.11583" lon="7.11397">
        <ele>811</ele>
        <time>2019-04-13T17:26:02Z</time>
      </trkpt>
      <trkpt lat="48.11527" lon="7.11263">
        <ele>804</ele>
        <time>2019-04-13T17:27:02Z</time>
      </trkpt>
      <trkpt lat="48.11516" lon="7.11243">
        <ele>802</ele>
        <time>2019-04-13T17:28:02Z</time>
      </trkpt>
      <trkpt lat="48.11494" lon="7.11223">
        <ele>800</ele>
        <time>2019-04-13T17:29:02Z</time>
      </trkpt>
      <trkpt lat="48.11478" lon="7.11215">
        <ele>799</ele>
        <time>2019-04-13T17:30:02Z</time>
      </trkpt>
      <trkpt lat="48.11367" lon="7.11165">
        <ele>795</ele>
        <time>2019-04-13T17:31:02Z</time>
      </trkpt>
      <trkpt lat="48.11342" lon="7.11157">
        <ele>792</ele>
        <time>2019-04-13T17:32:02Z</time>
      </trkpt>
      <trkpt lat="48.11323" lon="7.11157">
        <ele>791</ele>
        <time>2019-04-13T17:33:02Z</time>
      </trkpt>
      <trkpt lat="48.11298" lon="7.11169">
        <ele>790</ele>
        <time>2019-04-13T17:34:02Z</time>
      </trkpt>
      <trkpt lat="48.11286" lon="7.11178">
        <ele>789</ele>
        <time>2019-04-13T17:35:02Z</time>
      </trkpt>
      <trkpt lat="48.11275" lon="7.11191">
        <ele>787</ele>
        <time>2019-04-13T17:36:02Z</time>
      </trkpt>
      <trkpt lat="48.1122" lon="7.11308">
        <ele>776</ele>
        <time>2019-04-13T17:37:02Z</time>
      </trkpt>
      <trkpt lat="48.11197" lon="7.11341">
        <ele>775</ele>
        <time>2019-04-13T17:38:02Z</time>
      </trkpt>
      <trkpt lat="48.11182" lon="7.11357">
        <ele>774</ele>
        <time>2019-04-13T17:39:02Z</time>
      </trkpt>
      <trkpt lat="48.11164" lon="7.11367">
        <ele>773</ele>
        <time>2019-04-13T17:40:02Z</time>
      </trkpt>
      <trkpt lat="48.111" lon="7.11395">
        <ele>768</ele>
        <time>2019-04-13T17:41:02Z</time>
      </trkpt>
      <trkpt lat="48.11088" lon="7.11376">
        <ele>769</ele>
        <time>2019-04-13T17:42:02Z</time>
      </trkpt>
      <trkpt lat="48.1108" lon="7.11373">
        <ele>769</ele>
        <time>2019-04-13T17:43:02Z</time>
      </trkpt>
      <trkpt lat="48.11063" lon="7.11372">
        <ele>769</ele>
        <time>2019-04-13T17:44:02Z</time>
      </trkpt>
      <trkpt lat="48.11022" lon="7.11385">
        <ele>767</ele>
        <time>2019-04-13T17:45:02Z</time>
      </trkpt>
      <trkpt lat="48.11008" lon="7.11387">
        <ele>766</ele>
        <time>2019-04-13T17:46:02Z</time>
      </trkpt>
      <trkpt lat="48.10979" lon="7.11381">
        <ele>767</ele>
        <time>2019-04-13T17:47:02Z</time>
      </trkpt>
      <trkpt lat="48.10941" lon="7.11356">
        <ele>769</ele>
        <time>2019-04-13T17:48:02Z</time>
      </trkpt>
      <trkpt lat="48.10932" lon="7.11352">
        <ele>770</ele>
        <time>2019-04-13T17:49:02Z</time>
      </trkpt>
      <trkpt lat="48.10923" lon="7.11352">
        <ele>770</ele>
        <time>2019-04-13T17:50:02Z</time>
      </trkpt>
      <trkpt lat="48.10918" lon="7.11355">
        <ele>770</ele>
        <time>2019-04-13T17:51:02Z</time>
      </trkpt>
      <trkpt lat="48.10912" lon="7.11363">
        <ele>771</ele>
        <time>2019-04-13T17:52:02Z</time>
      </trkpt>
      <trkpt lat="48.10908" lon="7.11375">
        <ele>771</ele>
        <time>2019-04-13T17:53:02Z</time>
      </trkpt>
      <trkpt lat="48.10905" lon="7.11392">
        <ele>772</ele>
        <time>2019-04-13T17:54:02Z</time>
      </trkpt>
      <trkpt lat="48.10899" lon="7.11654">
        <ele>773</ele>
        <time>2019-04-13T17:55:02Z</time>
      </trkpt>
      <trkpt lat="48.10904" lon="7.11756">
        <ele>769</ele>
        <time>2019-04-13T17:56:02Z</time>
      </trkpt>
      <trkpt lat="48.109" lon="7.11782">
        <ele>767</ele>
        <time>2019-04-13T17:57:02Z</time>
      </trkpt>
      <trkpt lat="48.10895" lon="7.11795">
        <ele>767</ele>
        <time>2019-04-13T17:58:02Z</time>
      </trkpt>
      <trkpt lat="48.10889" lon="7.11805">
        <ele>766</ele>
        <time>2019-04-13T17:59:02Z</time>
      </trkpt>
      <trkpt lat="48.10882" lon="7.11811">
        <ele>766</ele>
        <time>2019-04-13T18:00:02Z</time>
      </trkpt>
      <trkpt lat="48.10872" lon="7.11814">
        <ele>766</ele>
        <time>2019-04-13T18:01:02Z</time>
      </trkpt>
      <trkpt lat="48.10834" lon="7.11805">
        <ele>769</ele>
        <time>2019-04-13T18:02:02Z</time>
      </trkpt>
      <trkpt lat="48.10837" lon="7.11795">
        <ele>771</ele>
        <time>2019-04-13T18:03:02Z</time>
      </trkpt>
      <trkpt lat="48.10844" lon="7.11794">
        <ele>771</ele>
        <time>2019-04-13T18:04:02Z</time>
      </trkpt>
      <trkpt lat="48.10844" lon="7.11794">
        <ele>771</ele>
        <time>2019-04-13T18:05:02Z</time>
      </trkpt>
      <trkpt lat="48.10837" lon="7.11795">
        <ele>771</ele>
        <time>2019-04-13T18:06:02Z</time>
      </trkpt>
      <trkpt lat="48.10834" lon="7.11805">
        <ele>769</ele>
        <time>2019-04-13T18:07:02Z</time>
      </trkpt>
      <trkpt lat="48.10815" lon="7.11806">
        <ele>772</ele>
        <time>2019-04-13T18:08:02Z</time>
      </trkpt>
      <trkpt lat="48.10805" lon="7.1181">
        <ele>772</ele>
        <time>2019-04-13T18:09:02Z</time>
      </trkpt>
      <trkpt lat="48.10717" lon="7.11856">
        <ele>773</ele>
        <time>2019-04-13T18:10:02Z</time>
      </trkpt>
      <trkpt lat="48.10706" lon="7.11866">
        <ele>773</ele>
        <time>2019-04-13T18:11:02Z</time>
      </trkpt>
      <trkpt lat="48.1069" lon="7.11891">
        <ele>772</ele>
        <time>2019-04-13T18:12:02Z</time>
      </trkpt>
      <trkpt lat="48.10684" lon="7.11905">
        <ele>770</ele>
        <time>2019-04-13T18:13:02Z</time>
      </trkpt>
      <trkpt lat="48.10679" lon="7.11923">
        <ele>769</ele>
        <time>2019-04-13T18:14:02Z</time>
      </trkpt>
      <trkpt lat="48.10672" lon="7.11966">
        <ele>766</ele>
        <time>2019-04-13T18:15:02Z</time>
      </trkpt>
      <trkpt lat="48.1067" lon="7.11972">
        <ele>766</ele>
        <time>2019-04-13T18:16:02Z</time>
      </trkpt>
      <trkpt lat="48.10666" lon="7.11975">
        <ele>766</ele>
        <time>2019-04-13T18:17:02Z</time>
      </trkpt>
      <trkpt lat="48.10599" lon="7.11986">
        <ele>774</ele>
        <time>2019-04-13T18:18:02Z</time>
      </trkpt>
      <trkpt lat="48.10587" lon="7.11992">
        <ele>774</ele>
        <time>2019-04-13T18:19:02Z</time>
      </trkpt>
      <trkpt lat="48.10582" lon="7.11999">
        <ele>773</ele>
        <time>2019-04-13T18:20:02Z</time>
      </trkpt>
      <trkpt lat="48.10579" lon="7.12008">
        <ele>774</ele>
        <time>2019-04-13T18:21:02Z</time>
      </trkpt>
      <trkpt lat="48.10578" lon="7.12019">
        <ele>773</ele>
        <time>2019-04-13T18:22:02Z</time>
      </trkpt>
      <trkpt lat="48.10586" lon="7.12224">
        <ele>780</ele>
        <time>2019-04-13T18:23:02Z</time>
      </trkpt>
      <trkpt lat="48.10585" lon="7.12238">
        <ele>781</ele>
        <time>2019-04-13T18:24:02Z</time>
      </trkpt>
      <trkpt lat="48.10577" lon="7.12263">
        <ele>782</ele>
        <time>2019-04-13T18:25:02Z</time>
      </trkpt>
      <trkpt lat="48.10586" lon="7.12282">
        <ele>781</ele>
        <time>2019-04-13T18:26:02Z</time>
      </trkpt>
      <trkpt lat="48.10622" lon="7.12442">
        <ele>779</ele>
        <time>2019-04-13T18:27:02Z</time>
      </trkpt>
      <trkpt lat="48.10643" lon="7.12548">
        <ele>779</ele>
        <time>2019-04-13T18:28:02Z</time>
      </trkpt>
      <trkpt lat="48.10645" lon="7.12577">
        <ele>778</ele>
        <time>2019-04-13T18:29:02Z</time>
      </trkpt>
      <trkpt lat="48.10644" lon="7.12604">
        <ele>777</ele>
        <time>2019-04-13T18:30:02Z</time>
      </trkpt>
      <trkpt lat="48.1064" lon="7.12626">
        <ele>777</ele>
        <time>2019-04-13T18:31:02Z</time>
      </trkpt>
      <trkpt lat="48.10633" lon="7.12643">
        <ele>776</ele>
        <time>2019-04-13T18:32:02Z</time>
      </trkpt>
      <trkpt lat="48.10615" lon="7.12678">
        <ele>774</ele>
        <time>2019-04-13T18:33:02Z</time>
      </trkpt>
      <trkpt lat="48.10599" lon="7.12698">
        <ele>773</ele>
        <time>2019-04-13T18:34:02Z</time>
      </trkpt>
      <trkpt lat="48.10466" lon="7.12791">
        <ele>763</ele>
        <time>2019-04-13T18:35:02Z</time>
      </trkpt>
      <trkpt lat="48.10445" lon="7.1281">
        <ele>760</ele>
        <time>2019-04-13T18:36:02Z</time>
      </trkpt>
      <trkpt lat="48.10436" lon="7.12823">
        <ele>759</ele>
        <time>2019-04-13T18:37:02Z</time>
      </trkpt>
      <trkpt lat="48.10428" lon="7.12839">
        <ele>757</ele>
        <time>2019-04-13T18:38:02Z</time>
      </trkpt>
      <trkpt lat="48.10408" lon="7.12909">
        <ele>756</ele>
        <time>2019-04-13T18:39:02Z</time>
      </trkpt>
      <trkpt lat="48.10381" lon="7.12988">
        <ele>751</ele>
        <time>2019-04-13T18:40:02Z</time>
      </trkpt>
      <trkpt lat="48.10365" lon="7.13027">
        <ele>750</ele>
        <time>2019-04-13T18:41:02Z</time>
      </trkpt>
      <trkpt lat="48.10348" lon="7.13062">
        <ele>749</ele>
        <time>2019-04-13T18:42:02Z</time>
      </trkpt>
      <trkpt lat="48.10329" lon="7.13089">
        <ele>749</ele>
        <time>2019-04-13T18:43:02Z</time>
      </trkpt>
      <trkpt lat="48.10285" lon="7.13141">
        <ele>746</ele>
        <time>2019-04-13T18:44:02Z</time>
      </trkpt>
      <trkpt lat="48.10256" lon="7.13172">
        <ele>744</ele>
        <time>2019-04-13T18:45:02Z</time>
      </trkpt>
      <trkpt lat="48.1022" lon="7.13205">
        <ele>737</ele>
        <time>2019-04-13T18:46:02Z</time>
      </trkpt>
      <trkpt lat="48.10202" lon="7.13213">
        <ele>736</ele>
        <time>2019-04-13T18:47:02Z</time>
      </trkpt>
      <trkpt lat="48.10151" lon="7.1322">
        <ele>736</ele>
        <time>2019-04-13T18:48:02Z</time>
      </trkpt>
      <trkpt lat="48.1014" lon="7.13225">
        <ele>736</ele>
        <time>2019-04-13T18:49:02Z</time>
      </trkpt>
      <trkpt lat="48.1009" lon="7.13268">
        <ele>731</ele>
        <time>2019-04-13T18:50:02Z</time>
      </trkpt>
      <trkpt lat="48.1005" lon="7.1331">
        <ele>728</ele>
        <time>2019-04-13T18:51:02Z</time>
      </trkpt>
      <trkpt lat="48.10004" lon="7.13366">
        <ele>727</ele>
        <time>2019-04-13T18:52:02Z</time>
      </trkpt>
      <trkpt lat="48.09995" lon="7.13373">
        <ele>726</ele>
        <time>2019-04-13T18:53:02Z</time>
      </trkpt>
      <trkpt lat="48.0995" lon="7.13393">
        <ele>723</ele>
        <time>2019-04-13T18:54:02Z</time>
      </trkpt>
      <trkpt lat="48.099" lon="7.1341">
        <ele>722</ele>
        <time>2019-04-13T18:55:02Z</time>
      </trkpt>
      <trkpt lat="48.09883" lon="7.13419">
        <ele>722</ele>
        <time>2019-04-13T18:56:02Z</time>
      </trkpt>
      <trkpt lat="48.09873" lon="7.13429">
        <ele>721</ele>
        <time>2019-04-13T18:57:02Z</time>
      </trkpt>
      <trkpt lat="48.09855" lon="7.13458">
        <ele>720</ele>
        <time>2019-04-13T18:58:02Z</time>
      </trkpt>
      <trkpt lat="48.09848" lon="7.13477">
        <ele>719</ele>
        <time>2019-04-13T18:59:02Z</time>
      </trkpt>
      <trkpt lat="48.09834" lon="7.13536">
        <ele>716</ele>
        <time>2019-04-13T19:00:02Z</time>
      </trkpt>
      <trkpt lat="48.09826" lon="7.13565">
        <ele>712</ele>
        <time>2019-04-13T19:01:02Z</time>
      </trkpt>
      <trkpt lat="48.09822" lon="7.13573">
        <ele>711</ele>
        <time>2019-04-13T19:02:02Z</time>
      </trkpt>
      <trkpt lat="48.09809" lon="7.1358">
        <ele>709</ele>
        <time>2019-04-13T19:03:02Z</time>
      </trkpt>
      <trkpt lat="48.098" lon="7.13581">
        <ele>708</ele>
        <time>2019-04-13T19:04:02Z</time>
      </trkpt>
      <trkpt lat="48.0979" lon="7.13578">
        <ele>707</ele>
        <time>2019-04-13T19:05:02Z</time>
      </trkpt>
      <trkpt lat="48.09764" lon="7.13565">
        <ele>706</ele>
        <time>2019-04-13T19:06:02Z</time>
      </trkpt>
      <trkpt lat="48.09738" lon="7.13549">
        <ele>705</ele>
        <time>2019-04-13T19:07:02Z</time>
      </trkpt>
      <trkpt lat="48.09726" lon="7.13532">
        <ele>704</ele>
        <time>2019-04-13T19:08:02Z</time>
      </trkpt>
      <trkpt lat="48.09715" lon="7.13504">
        <ele>705</ele>
        <time>2019-04-13T19:09:02Z</time>
      </trkpt>
      <trkpt lat="48.09692" lon="7.13431">
        <ele>706</ele>
        <time>2019-04-13T19:10:02Z</time>
      </trkpt>
      <trkpt lat="48.09667" lon="7.13364">
        <ele>707</ele>
        <time>2019-04-13T19:11:02Z</time>
      </trkpt>
      <trkpt lat="48.0966" lon="7.13349">
        <ele>708</ele>
        <time>2019-04-13T19:12:02Z</time>
      </trkpt>
      <trkpt lat="48.09651" lon="7.13341">
        <ele>709</ele>
        <time>2019-04-13T19:13:02Z</time>
      </trkpt>
      <trkpt lat="48.09642" lon="7.1334">
        <ele>710</ele>
        <time>2019-04-13T19:14:02Z</time>
      </trkpt>
      <trkpt lat="48.09636" lon="7.13341">
        <ele>710</ele>
        <time>2019-04-13T19:15:02Z</time>
      </trkpt>
      <trkpt lat="48.0963" lon="7.13347">
        <ele>709</ele>
        <time>2019-04-13T19:16:02Z</time>
      </trkpt>
      <trkpt lat="48.09626" lon="7.13357">
        <ele>709</ele>
        <time>2019-04-13T19:17:02Z</time>
      </trkpt>
      <trkpt lat="48.09625" lon="7.13368">
        <ele>709</ele>
        <time>2019-04-13T19:18:02Z</time>
      </trkpt>
      <trkpt lat="48.09625" lon="7.13387">
        <ele>708</ele>
        <time>2019-04-13T19:19:02Z</time>
      </trkpt>
      <trkpt lat="48.09636" lon="7.13469">
        <ele>703</ele>
        <time>2019-04-13T19:20:02Z</time>
      </trkpt>
      <trkpt lat="48.09655" lon="7.13571">
        <ele>695</ele>
        <time>2019-04-13T19:21:02Z</time>
      </trkpt>
      <trkpt lat="48.09684" lon="7.13709">
        <ele>685</ele>
        <time>2019-04-13T19:22:02Z</time>
      </trkpt>
      <trkpt lat="48.09688" lon="7.13717">
        <ele>684</ele>
        <time>2019-04-13T19:23:02Z</time>
      </trkpt>
      <trkpt lat="48.09697" lon="7.13721">
        <ele>684</ele>
        <time>2019-04-13T19:24:02Z</time>
      </trkpt>
      <trkpt lat="48.09743" lon="7.13709">
        <ele>682</ele>
        <time>2019-04-13T19:25:02Z</time>
      </trkpt>
      <trkpt lat="48.09774" lon="7.13698">
        <ele>683</ele>
        <time>2019-04-13T19:26:02Z</time>
      </trkpt>
      <trkpt lat="48.09802" lon="7.13701">
        <ele>682</ele>
        <time>2019-04-13T19:27:02Z</time>
      </trkpt>
      <trkpt lat="48.09816" lon="7.137">
        <ele>683</ele>
        <time>2019-04-13T19:28:02Z</time>
      </trkpt>
      <trkpt lat="48.09829" lon="7.13694">
        <ele>683</ele>
        <time>2019-04-13T19:29:02Z</time>
      </trkpt>
      <trkpt lat="48.09857" lon="7.13674">
        <ele>682</ele>
        <time>2019-04-13T19:30:02Z</time>
      </trkpt>
      <trkpt lat="48.09878" lon="7.13651">
        <ele>682</ele>
        <time>2019-04-13T19:31:02Z</time>
      </trkpt>
      <trkpt lat="48.09922" lon="7.13597">
        <ele>678</ele>
        <time>2019-04-13T19:32:02Z</time>
      </trkpt>
      <trkpt lat="48.09932" lon="7.13589">
        <ele>676</ele>
        <time>2019-04-13T19:33:02Z</time>
      </trkpt>
      <trkpt lat="48.09973" lon="7.13574">
        <ele>670</ele>
        <time>2019-04-13T19:34:02Z</time>
      </trkpt>
      <trkpt lat="48.09999" lon="7.1357">
        <ele>665</ele>
        <time>2019-04-13T19:35:02Z</time>
      </trkpt>
      <trkpt lat="48.09999" lon="7.1357">
        <ele>665</ele>
        <time>2019-04-13T19:36:02Z</time>
      </trkpt>
      <trkpt lat="48.10054" lon="7.13562">
        <ele>662</ele>
        <time>2019-04-13T19:37:02Z</time>
      </trkpt>
      <trkpt lat="48.1009" lon="7.13561">
        <ele>659</ele>
        <time>2019-04-13T19:38:02Z</time>
      </trkpt>
      <trkpt lat="48.10174" lon="7.13569">
        <ele>654</ele>
        <time>2019-04-13T19:39:02Z</time>
      </trkpt>
      <trkpt lat="48.10202" lon="7.13577">
        <ele>655</ele>
        <time>2019-04-13T19:40:02Z</time>
      </trkpt>
      <trkpt lat="48.10225" lon="7.1359">
        <ele>656</ele>
        <time>2019-04-13T19:41:02Z</time>
      </trkpt>
      <trkpt lat="48.10236" lon="7.13603">
        <ele>657</ele>
        <time>2019-04-13T19:42:02Z</time>
      </trkpt>
      <trkpt lat="48.10265" lon="7.1368">
        <ele>658</ele>
        <time>2019-04-13T19:43:02Z</time>
      </trkpt>
      <trkpt lat="48.1028" lon="7.13705">
        <ele>661</ele>
        <time>2019-04-13T19:44:02Z</time>
      </trkpt>
      <trkpt lat="48.10294" lon="7.13725">
        <ele>661</ele>
        <time>2019-04-13T19:45:02Z</time>
      </trkpt>
      <trkpt lat="48.10359" lon="7.13797">
        <ele>653</ele>
        <time>2019-04-13T19:46:02Z</time>
      </trkpt>
      <trkpt lat="48.10368" lon="7.13808">
        <ele>651</ele>
        <time>2019-04-13T19:47:02Z</time>
      </trkpt>
      <trkpt lat="48.10407" lon="7.13874">
        <ele>637</ele>
        <time>2019-04-13T19:48:02Z</time>
      </trkpt>
      <trkpt lat="48.10417" lon="7.13885">
        <ele>634</ele>
        <time>2019-04-13T19:49:02Z</time>
      </trkpt>
      <trkpt lat="48.10452" lon="7.13905">
        <ele>629</ele>
        <time>2019-04-13T19:50:02Z</time>
      </trkpt>
      <trkpt lat="48.10452" lon="7.13905">
        <ele>629</ele>
        <time>2019-04-13T19:51:02Z</time>
      </trkpt>
      <trkpt lat="48.10468" lon="7.13913">
        <ele>627</ele>
        <time>2019-04-13T19:52:02Z</time>
      </trkpt>
      <trkpt lat="48.10509" lon="7.13952">
        <ele>623</ele>
        <time>2019-04-13T19:53:02Z</time>
      </trkpt>
      <trkpt lat="48.10581" lon="7.14028">
        <ele>617</ele>
        <time>2019-04-13T19:54:02Z</time>
      </trkpt>
      <trkpt lat="48.10632" lon="7.14086">
        <ele>618</ele>
        <time>2019-04-13T19:55:02Z</time>
      </trkpt>
      <trkpt lat="48.10696" lon="7.14212">
        <ele>610</ele>
        <time>2019-04-13T19:56:02Z</time>
      </trkpt>
      <trkpt lat="48.10714" lon="7.14234">
        <ele>609</ele>
        <time>2019-04-13T19:57:02Z</time>
      </trkpt>
      <trkpt lat="48.10822" lon="7.1432">
        <ele>605</ele>
        <time>2019-04-13T19:58:02Z</time>
      </trkpt>
      <trkpt lat="48.10901" lon="7.14377">
        <ele>598</ele>
        <time>2019-04-13T19:59:02Z</time>
      </trkpt>
      <trkpt lat="48.10926" lon="7.1439">
        <ele>596</ele>
        <time>2019-04-13T20:00:02Z</time>
      </trkpt>
      <trkpt lat="48.11" lon="7.14417">
        <ele>589</ele>
        <time>2019-04-13T20:01:02Z</time>
      </trkpt>
      <trkpt lat="48.11025" lon="7.1442">
        <ele>587</ele>
        <time>2019-04-13T20:02:02Z</time>
      </trkpt>
      <trkpt lat="48.11048" lon="7.14419">
        <ele>585</ele>
        <time>2019-04-13T20:03:02Z</time>
      </trkpt>
      <trkpt lat="48.11067" lon="7.14413">
        <ele>585</ele>
        <time>2019-04-13T20:04:02Z</time>
      </trkpt>
      <trkpt lat="48.11091" lon="7.144">
        <ele>586</ele>
        <time>2019-04-13T20:05:02Z</time>
      </trkpt>
      <trkpt lat="48.11115" lon="7.14394">
        <ele>587</ele>
        <time>2019-04-13T20:06:02Z</time>
      </trkpt>
      <trkpt lat="48.1124" lon="7.14388">
        <ele>586</ele>
        <time>2019-04-13T20:07:02Z</time>
      </trkpt>
      <trkpt lat="48.11257" lon="7.14389">
        <ele>585</ele>
        <time>2019-04-13T20:08:02Z</time>
      </trkpt>
      <trkpt lat="48.11284" lon="7.14396">
        <ele>584</ele>
        <time>2019-04-13T20:09:02Z</time>
      </trkpt>
      <trkpt lat="48.1138" lon="7.14434">
        <ele>578</ele>
        <time>2019-04-13T20:10:02Z</time>
      </trkpt>
      <trkpt lat="48.11395" lon="7.14435">
        <ele>578</ele>
        <time>2019-04-13T20:11:02Z</time>
      </trkpt>
      <trkpt lat="48.11416" lon="7.14431">
        <ele>578</ele>
        <time>2019-04-13T20:12:02Z</time>
      </trkpt>
      <trkpt lat="48.11477" lon="7.1439">
        <ele>577</ele>
        <time>2019-04-13T20:13:02Z</time>
      </trkpt>
      <trkpt lat="48.11499" lon="7.14381">
        <ele>576</ele>
        <time>2019-04-13T20:14:02Z</time>
      </trkpt>
      <trkpt lat="48.11515" lon="7.14379">
        <ele>575</ele>
        <time>2019-04-13T20:15:02Z</time>
      </trkpt>
      <trkpt lat="48.11543" lon="7.14389">
        <ele>573</ele>
        <time>2019-04-13T20:16:02Z</time>
      </trkpt>
      <trkpt lat="48.1158" lon="7.14407">
        <ele>570</ele>
        <time>2019-04-13T20:17:02Z</time>
      </trkpt>
      <trkpt lat="48.11596" lon="7.14409">
        <ele>569</ele>
        <time>2019-04-13T20:18:02Z</time>
      </trkpt>
      <trkpt lat="48.11613" lon="7.14405">
        <ele>568</ele>
        <time>2019-04-13T20:19:02Z</time>
      </trkpt>
      <trkpt lat="48.11712" lon="7.14369">
        <ele>564</ele>
        <time>2019-04-13T20:20:02Z</time>
      </trkpt>
      <trkpt lat="48.11768" lon="7.14345">
        <ele>562</ele>
        <time>2019-04-13T20:21:02Z</time>
      </trkpt>
      <trkpt lat="48.11803" lon="7.14351">
        <ele>561</ele>
        <time>2019-04-13T20:22:02Z</time>
      </trkpt>
      <trkpt lat="48.11806" lon="7.14371">
        <ele>560</ele>
        <time>2019-04-13T20:23:02Z</time>
      </trkpt>
      <trkpt lat="48.11815" lon="7.14402">
        <ele>559</ele>
        <time>2019-04-13T20:24:02Z</time>
      </trkpt>
      <trkpt lat="48.11834" lon="7.14451">
        <ele>558</ele>
        <time>2019-04-13T20:25:02Z</time>
      </trkpt>
      <trkpt lat="48.11874" lon="7.14495">
        <ele>555</ele>
        <time>2019-04-13T20:26:02Z</time>
      </trkpt>
      <trkpt lat="48.11952" lon="7.14557">
        <ele>552</ele>
        <time>2019-04-13T20:27:02Z</time>
      </trkpt>
      <trkpt lat="48.11961" lon="7.14567">
        <ele>551</ele>
        <time>2019-04-13T20:28:02Z</time>
      </trkpt>
      <trkpt lat="48.11992" lon="7.14631">
        <ele>547</ele>
        <time>2019-04-13T20:29:02Z</time>
      </trkpt>
      <trkpt lat="48.1204" lon="7.14713">
        <ele>544</ele>
        <time>2019-04-13T20:30:02Z</time>
      </trkpt>
      <trkpt lat="48.12053" lon="7.14741">
        <ele>543</ele>
        <time>2019-04-13T20:31:02Z</time>
      </trkpt>
      <trkpt lat="48.12072" lon="7.14789">
        <ele>540</ele>
        <time>2019-04-13T20:32:02Z</time>
      </trkpt>
      <trkpt lat="48.1208" lon="7.14806">
        <ele>538</ele>
        <time>2019-04-13T20:33:02Z</time>
      </trkpt>
      <trkpt lat="48.12164" lon="7.14965">
        <ele>529</ele>
        <time>2019-04-13T20:34:02Z</time>
      </trkpt>
      <trkpt lat="48.12193" lon="7.1501">
        <ele>526</ele>
        <time>2019-04-13T20:35:02Z</time>
      </trkpt>
      <trkpt lat="48.12224" lon="7.15063">
        <ele>524</ele>
        <time>2019-04-13T20:36:02Z</time>
      </trkpt>
      <trkpt lat="48.12265" lon="7.15144">
        <ele>520</ele>
        <time>2019-04-13T20:37:02Z</time>
      </trkpt>
      <trkpt lat="48.12286" lon="7.15179">
        <ele>518</ele>
        <time>2019-04-13T20:38:02Z</time>
      </trkpt>
      <trkpt lat="48.12316" lon="7.15234">
        <ele>516</ele>
        <time>2019-04-13T20:39:02Z</time>
      </trkpt>
      <trkpt lat="48.12327" lon="7.1525">
        <ele>514</ele>
        <time>2019-04-13T20:40:02Z</time>
      </trkpt>
      <trkpt lat="48.12342" lon="7.15264">
        <ele>514</ele>
        <time>2019-04-13T20:41:02Z</time>
      </trkpt>
      <trkpt lat="48.12356" lon="7.15271">
        <ele>514</ele>
        <time>2019-04-13T20:42:02Z</time>
      </trkpt>
      <trkpt lat="48.1237" lon="7.15276">
        <ele>514</ele>
        <time>2019-04-13T20:43:02Z</time>
      </trkpt>
      <trkpt lat="48.12426" lon="7.15286">
        <ele>513</ele>
        <time>2019-04-13T20:44:02Z</time>
      </trkpt>
      <trkpt lat="48.12455" lon="7.15293">
        <ele>513</ele>
        <time>2019-04-13T20:45:02Z</time>
      </trkpt>
      <trkpt lat="48.12475" lon="7.15301">
        <ele>513</ele>
        <time>2019-04-13T20:46:02Z</time>
      </trkpt>
      <trkpt lat="48.12483" lon="7.15307">
        <ele>513</ele>
        <time>2019-04-13T20:47:02Z</time>
      </trkpt>
      <trkpt lat="48.12494" lon="7.1532">
        <ele>512</ele>
        <time>2019-04-13T20:48:02Z</time>
      </trkpt>
      <trkpt lat="48.12516" lon="7.15354">
        <ele>510</ele>
        <time>2019-04-13T20:49:02Z</time>
      </trkpt>
      <trkpt lat="48.12528" lon="7.15379">
        <ele>509</ele>
        <time>2019-04-13T20:50:02Z</time>
      </trkpt>
      <trkpt lat="48.12541" lon="7.1542">
        <ele>507</ele>
        <time>2019-04-13T20:51:02Z</time>
      </trkpt>
      <trkpt lat="48.12546" lon="7.15459">
        <ele>505</ele>
        <time>2019-04-13T20:52:02Z</time>
      </trkpt>
      <trkpt lat="48.12547" lon="7.15521">
        <ele>503</ele>
        <time>2019-04-13T20:53:02Z</time>
      </trkpt>
      <trkpt lat="48.1255" lon="7.15531">
        <ele>503</ele>
        <time>2019-04-13T20:54:02Z</time>
      </trkpt>
      <trkpt lat="48.1255" lon="7.15531">
        <ele>503</ele>
        <time>2019-04-13T20:55:02Z</time>
      </trkpt>
      <trkpt lat="48.12555" lon="7.15551">
        <ele>502</ele>
        <time>2019-04-13T20:56:02Z</time>
      </trkpt>
      <trkpt lat="48.12562" lon="7.15562">
        <ele>501</ele>
        <time>2019-04-13T20:57:02Z</time>
      </trkpt>
      <trkpt lat="48.12607" lon="7.15611">
        <ele>500</ele>
        <time>2019-04-13T20:58:02Z</time>
      </trkpt>
      <trkpt lat="48.12609" lon="7.1562">
        <ele>500</ele>
        <time>2019-04-13T20:59:02Z</time>
      </trkpt>
      <trkpt lat="48.12608" lon="7.15642">
        <ele>500</ele>
        <time>2019-04-13T21:00:02Z</time>
      </trkpt>
      <trkpt lat="48.12609" lon="7.15779">
        <ele>498</ele>
        <time>2019-04-13T21:01:02Z</time>
      </trkpt>
      <trkpt lat="48.1261" lon="7.15795">
        <ele>497</ele>
        <time>2019-04-13T21:02:02Z</time>
      </trkpt>
      <trkpt lat="48.12625" lon="7.15883">
        <ele>494</ele>
        <time>2019-04-13T21:03:02Z</time>
      </trkpt>
      <trkpt lat="48.12629" lon="7.15918">
        <ele>492</ele>
        <time>2019-04-13T21:04:02Z</time>
      </trkpt>
      <trkpt lat="48.12629" lon="7.15958">
        <ele>492</ele>
        <time>2019-04-13T21:05:02Z</time>
      </trkpt>
      <trkpt lat="48.12626" lon="7.16006">
        <ele>491</ele>
        <time>2019-04-13T21:06:02Z</time>
      </trkpt>
      <trkpt lat="48.12627" lon="7.16026">
        <ele>491</ele>
        <time>2019-04-13T21:07:02Z</time>
      </trkpt>
      <trkpt lat="48.12641" lon="7.16139">
        <ele>486</ele>
        <time>2019-04-13T21:08:02Z</time>
      </trkpt>
      <trkpt lat="48.12641" lon="7.16168">
        <ele>484</ele>
        <time>2019-04-13T21:09:02Z</time>
      </trkpt>
      <trkpt lat="48.12636" lon="7.1626">
        <ele>481</ele>
        <time>2019-04-13T21:10:02Z</time>
      </trkpt>
      <trkpt lat="48.12636" lon="7.1626">
        <ele>481</ele>
        <time>2019-04-13T21:11:02Z</time>
      </trkpt>
      <trkpt lat="48.12621" lon="7.16478">
        <ele>472</ele>
        <time>2019-04-13T21:12:02Z</time>
      </trkpt>
      <trkpt lat="48.12623" lon="7.16492">
        <ele>471</ele>
        <time>2019-04-13T21:13:02Z</time>
      </trkpt>
      <trkpt lat="48.12627" lon="7.16504">
        <ele>471</ele>
        <time>2019-04-13T21:14:02Z</time>
      </trkpt>
      <trkpt lat="48.12639" lon="7.16519">
        <ele>470</ele>
        <time>2019-04-13T21:15:02Z</time>
      </trkpt>
      <trkpt lat="48.12658" lon="7.1655">
        <ele>469</ele>
        <time>2019-04-13T21:16:02Z</time>
      </trkpt>
      <trkpt lat="48.12664" lon="7.16558">
        <ele>468</ele>
        <time>2019-04-13T21:17:02Z</time>
      </trkpt>
    </trkseg>
  </trk>
</gpx>